[[{"header":{"parameterUnit":"m.s-1","parameterCategory":1,"la1":31.0,"la2":29.5877,"lo1":-88.7671,"lo2":-86.6584,"dy":0.0162,"dx":0.0185,"nx":115,"ny":88,"refTime":"2023-09-12T12:00:00:Z","depth":0,"parameterNumber":2,"parameterNumberName":"U-component_of_WINDS"},"data":[0.0,0.0,0.0,0.0,0.0,0.0,0.0,0.0,0.0,0.0,0.0,0.0,0.0,0.0,0.0,0.0,0.0,0.0,0.0,0.0,0.0,0.0,0.0,0.0,0.0,0.0,0.0,0.0,0.0,0.0,0.0,0.0,0.0,0.0,0.0,0.0,0.0,0.0,0.0,0.0,0.0,0.0,0.0,0.0,0.0,0.0,0.0,0.0,0.0,0.0,0.0,0.0,0.0,0.0,0.0,0.0,0.0,0.0,0.0,0.0,0.0,0.0,0.0,0.0,0.0,0.0,0.0,0.0,0.0,0.0,0.0,0.0,0.0,0.0,0.0,0.0,0.0,0.0,0.0,0.0,0.0,0.0,0.0,0.0,0.0,0.0,0.0,0.0,0.0,0.0,0.0,0.0,0.0,0.0,0.0,0.0,0.0,0.0,0.0,0.0,0.0,0.0,0.0,0.0,0.0,0.0,0.0,0.0,0.0,0.0,0.0,0.0,0.0,0.0,0.0,0.0,0.0,0.0,0.0,0.0,0.0,0.0,0.0,0.0,0.0,0.0,0.0,0.0,0.0,0.0,0.0,0.0,0.0,0.0,0.0,0.0,0.0,0.0,0.0,0.0,0.0,0.0,0.0,0.0,0.0,0.0,0.0,0.0,0.0,0.0,0.0,0.0,0.0,0.0,0.0,0.0,0.0,0.0,0.0,0.0,0.0,0.0,0.0,0.0,0.0,0.0,0.0,0.0,0.0,0.0,0.0,0.0,0.0,0.0,0.0,0.0,0.0,0.0,0.0,0.0,0.0,0.0,0.0,0.0,0.0,0.0,0.0,0.0,0.0,0.0,0.0,0.0,0.0,0.0,0.0,0.0,0.0,0.0,0.0,0.0,0.0,0.0,0.0,0.0,0.0,0.0,0.0,0.0,0.0,0.0,0.0,0.0,0.0,0.0,0.0,0.0,0.0,0.0,0.0,0.0,0.0,0.0,0.0,0.0,0.0,0.0,0.0,0.0,0.0,0.0,0.0,0.0,0.0,0.0,0.0,0.0,0.0,0.0,0.0,0.0,0.0,0.0,0.0,0.0,0.0,0.0,0.0,0.0,0.0,0.0,0.0,0.0,0.0,0.0,0.0,0.0,0.0,0.0,0.0,0.0,0.0,0.0,0.0,0.0,0.0,0.0,0.0,0.0,0.0,0.0,0.0,0.0,0.0,0.0,0.0,0.0,0.0,0.0,0.0,0.0,0.0,0.0,0.0,0.0,0.0,0.0,0.0,0.0,0.0,0.0,0.0,0.0,0.0,0.0,0.0,0.0,0.0,0.0,0.0,0.0,0.0,0.0,0.0,0.0,0.0,0.0,0.0,0.0,0.0,0.0,0.0,0.0,0.0,0.0,0.0,0.0,0.0,0.0,0.0,0.0,0.0,0.0,0.0,0.0,0.0,0.0,0.0,0.0,0.0,0.0,0.0,0.0,0.0,0.0,0.0,0.0,0.0,0.0,0.0,0.0,0.0,0.0,0.0,0.0,0.0,0.0,0.0,0.0,0.0,0.0,0.0,0.0,0.0,0.0,0.0,0.0,0.0,0.0,0.0,0.0,0.0,0.0,0.0,0.0,0.0,0.0,0.0,0.0,0.0,0.0,0.0,0.0,0.0,0.0,0.0,0.0,0.0,0.0,0.0,0.0,0.0,0.0,0.0,0.0,0.0,0.0,0.0,0.0,0.0,0.0,0.0,0.0,0.0,0.0,0.0,0.0,0.0,0.0,0.0,0.0,0.0,0.0,0.0,0.0,0.0,0.0,0.0,0.0,0.0,0.0,0.0,0.0,0.0,0.0,0.0,0.0,0.0,0.0,0.0,0.0,0.0,0.0,0.0,0.0,0.0,0.0,0.0,0.0,0.0,0.0,0.0,0.0,0.0,0.0,0.0,0.0,0.0,0.0,0.0,0.0,0.0,0.0,0.0,0.0,0.0,0.0,0.0,0.0,0.0,0.0,0.0,0.0,0.0,0.0,0.0,0.0,0.0,0.0,0.0,0.0,0.0,0.0,0.0,0.0,0.0,0.0,0.0,0.0,0.0,0.0,0.0,0.0,0.0,0.0,0.0,0.0,0.0,0.0,0.0,0.0,0.0,0.0,0.0,0.0,0.0,0.0,0.0,0.0,0.0,0.0,0.0,0.0,0.0,0.0,0.0,0.0,0.0,0.0,0.0,0.0,0.0,0.0,0.0,0.0,0.0,0.0,0.0,0.0,0.0,0.0,0.0,0.0,0.0,0.0,0.0,0.0,0.0,0.0,0.0,0.0,0.0,0.0,0.0,0.0,0.0,0.0,0.0,0.0,0.0,0.0,0.0,0.0,0.0,0.0,0.0,0.0,0.0,0.0,0.0,0.0,0.0,0.0,0.0,0.0,0.0,0.0,0.0,0.0,0.0,0.0,0.0,0.0,0.0,0.0,0.0,0.0,0.0,0.0,0.0,0.0,0.0,0.0,0.0,0.0,0.0,0.0,0.0,0.0,0.0,0.0,0.0,0.0,0.0,0.0,0.0,0.0,0.0,0.0,0.0,0.0,0.0,0.0,0.0,0.0,0.0,0.0,0.0,0.0,0.0,0.0,0.0,0.0,0.0,0.0,0.0,0.0,0.0,0.0,0.0,0.0,0.0,0.0,0.0,0.0,0.0,0.0,0.0,0.0,0.0,0.0,0.0,0.0,0.0,0.0,0.0,0.0,0.0,0.0,0.0,0.0,0.0,0.0,0.0,0.0,0.0,0.0,0.0,0.0,0.0,0.0,0.0,0.0,0.0,0.0,0.0,0.0,0.0,0.0,0.0,0.0,0.0,0.0,0.0,0.0,0.0,0.0,0.0,0.0,0.0,0.0,0.0,0.0,0.0,0.0,0.0,0.0,0.0,0.0,0.0,0.0,0.0,0.0,0.0,0.0,0.0,0.0,0.0,0.0,0.0,0.0,0.0,0.0,0.0,0.0,0.0,0.0,0.0,0.0,0.0,0.0,0.0,0.0,0.0,0.0,0.0,0.0,0.0,0.0,0.0,0.0,0.0,0.0,0.0,0.0,0.0,0.0,0.0,0.0,0.0,0.0,0.0,0.0,0.0,0.0,0.0,0.0,0.0,0.0,0.0,0.0,0.0,0.0,0.0,0.0,0.0,0.0,0.0,0.0,0.0,0.0,0.0,0.0,0.0,0.0,0.0,0.0,0.0,0.0,0.0,0.0,0.0,0.0,0.0,0.0,0.0,0.0,0.0,0.0,0.0,0.0,0.0,0.0,0.0,0.0,0.0,0.0,0.0,0.0,0.0,0.0,0.0,0.0,0.0,0.0,0.0,0.0,0.0,0.0,0.0,0.0,0.0,0.0,0.0,0.0,0.0,0.0,0.0,0.0,0.0,0.0,0.0,0.0,0.0,0.0,0.0,0.0,0.0,0.0,0.0,0.0,0.0,0.0,0.0,0.0,0.0,0.0,0.0,0.0,0.0,0.0,0.0,0.0,0.0,0.0,0.0,0.0,0.0,0.0,0.0,0.0,0.0,0.0,0.0,0.0,0.0,0.0,0.0,0.0,0.0,0.0,0.0,0.0,0.0,0.0,0.0,0.0,0.0,0.0,0.0,0.0,0.0,0.0,0.0,0.0,0.0,0.0,0.0,0.0,0.0,0.0,0.0,0.0,0.0,0.0,0.0,0.0,0.0,0.0,0.0,0.0,0.0,0.0,0.0,0.0,0.0,0.0,0.0,0.0,0.0,0.0,0.0,0.0,0.0,0.0,0.0,0.0,0.0,0.0,0.0,0.0,0.0,0.0,0.0,0.0,0.0,0.0,0.0,0.0,0.0,0.0,0.0,0.0,0.0,0.0,0.0,0.0,0.0,0.0,0.0,0.0,0.0,0.0,0.0,0.0,0.0,0.0,0.0,0.0,0.0,0.0,0.0,0.0,0.0,0.0,0.0,0.0,0.0,0.0,0.0,0.0,0.0,0.0,0.0,0.0,0.0,0.0,0.0,0.0,0.0,0.0,0.0,0.0,0.0,0.0,0.0,0.0,0.0,0.0,0.0,0.0,0.0,0.0,0.0,0.0,0.0,0.0,0.0,0.0,0.0,0.0,0.0,0.0,0.0,0.0,0.0,0.0,0.0,0.0,0.0,0.0,0.0,0.0,0.0,0.0,0.0,0.0,0.0,0.0,0.0,0.0,0.0,0.0,0.0,0.0,0.0,0.0,0.0,0.0,0.0,0.0,0.0,0.0,0.0,0.0,0.0,0.0,3.3895,0.0,0.0,0.0,0.0,0.0,0.0,0.0,0.0,0.0,0.0,0.0,0.0,0.0,0.0,0.0,0.0,0.0,0.0,0.0,0.0,0.0,0.0,0.0,0.0,0.0,0.0,0.0,0.0,0.0,0.0,0.0,0.0,0.0,0.0,0.0,0.0,0.0,0.0,0.0,0.0,0.0,0.0,0.0,0.0,0.0,0.0,0.0,0.0,0.0,0.0,0.0,0.0,0.0,0.0,0.0,0.0,0.0,0.0,0.0,0.0,0.0,0.0,0.0,0.0,0.0,0.0,0.0,0.0,0.0,0.0,0.0,0.0,0.0,0.0,0.0,0.0,0.0,0.0,0.0,0.0,0.0,0.0,0.0,0.0,0.0,0.0,0.0,0.0,0.0,0.0,0.0,0.0,0.0,0.0,0.0,0.0,0.0,0.0,0.0,0.0,0.0,0.0,0.0,0.0,0.0,0.0,0.0,0.0,0.0,0.0,3.3208,3.3549,3.3771,3.3868,3.3913,0.0,0.0,0.0,0.0,0.0,0.0,0.0,0.0,0.0,0.0,0.0,0.0,0.0,0.0,0.0,0.0,0.0,0.0,0.0,0.0,0.0,0.0,0.0,0.0,0.0,0.0,0.0,0.0,0.0,0.0,0.0,0.0,0.0,0.0,0.0,0.0,0.0,0.0,0.0,0.0,0.0,0.0,0.0,0.0,0.0,0.0,0.0,0.0,0.0,0.0,0.0,0.0,0.0,0.0,0.0,0.0,0.0,0.0,0.0,0.0,0.0,0.0,0.0,0.0,0.0,0.0,0.0,0.0,0.0,0.0,0.0,0.0,0.0,0.0,0.0,0.0,0.0,0.0,0.0,0.0,0.0,0.0,0.0,0.0,0.0,0.0,0.0,0.0,0.0,0.0,0.0,0.0,0.0,0.0,0.0,0.0,0.0,0.0,0.0,0.0,0.0,0.0,0.0,0.0,0.0,0.0,0.0,0.0,0.0,0.0,0.0,0.0,3.3359,3.365,3.3842,0.0,0.0,0.0,0.0,0.0,0.0,0.0,0.0,0.0,0.0,0.0,0.0,0.0,0.0,0.0,0.0,0.0,0.0,0.0,0.0,0.0,0.0,0.0,0.0,0.0,0.0,0.0,0.0,0.0,0.0,0.0,0.0,0.0,0.0,0.0,0.0,0.0,0.0,0.0,0.0,0.0,0.0,0.0,0.0,0.0,0.0,0.0,0.0,0.0,0.0,0.0,0.0,0.0,0.0,0.0,0.0,0.0,0.0,0.0,0.0,0.0,0.0,0.0,0.0,0.0,0.0,0.0,0.0,0.0,0.0,0.0,0.0,0.0,0.0,0.0,0.0,0.0,0.0,0.0,0.0,0.0,0.0,0.0,0.0,0.0,0.0,0.0,0.0,0.0,0.0,0.0,0.0,0.0,0.0,0.0,0.0,0.0,0.0,0.0,0.0,0.0,0.0,0.0,0.0,0.0,0.0,0.0,0.0,0.0,0.0,3.1812,3.1427,3.2261,0.0,3.3625,0.0,0.0,0.0,0.0,0.0,0.0,0.0,0.0,0.0,0.0,0.0,0.0,0.0,0.0,0.0,0.0,0.0,0.0,0.0,0.0,0.0,0.0,0.0,0.0,0.0,0.0,0.0,0.0,0.0,0.0,0.0,0.0,0.0,0.0,0.0,0.0,0.0,0.0,0.0,0.0,0.0,0.0,0.0,0.0,0.0,0.0,0.0,0.0,0.0,0.0,0.0,0.0,0.0,0.0,0.0,0.0,0.0,0.0,0.0,0.0,0.0,0.0,0.0,0.0,0.0,0.0,0.0,0.0,0.0,0.0,0.0,0.0,0.0,0.0,0.0,0.0,0.0,0.0,0.0,0.0,0.0,0.0,0.0,0.0,0.0,0.0,0.0,0.0,0.0,0.0,0.0,0.0,0.0,0.0,0.0,0.0,0.0,0.0,0.0,0.0,0.0,0.0,0.0,0.0,0.0,0.0,0.0,0.0,0.0,0.0,3.1199,3.1084,3.1482,3.2055,0.0,0.0,0.0,0.0,0.0,0.0,0.0,0.0,0.0,0.0,0.0,0.0,0.0,0.0,0.0,0.0,0.0,0.0,0.0,0.0,0.0,0.0,0.0,0.0,0.0,0.0,0.0,0.0,0.0,0.0,0.0,0.0,0.0,0.0,0.0,0.0,0.0,0.0,0.0,0.0,0.0,0.0,0.0,0.0,0.0,0.0,0.0,0.0,0.0,0.0,0.0,0.0,0.0,0.0,0.0,0.0,0.0,0.0,0.0,0.0,0.0,0.0,0.0,0.0,0.0,0.0,0.0,0.0,0.0,0.0,0.0,0.0,0.0,0.0,0.0,0.0,0.0,0.0,0.0,0.0,0.0,0.0,0.0,0.0,0.0,0.0,0.0,0.0,0.0,0.0,0.0,0.0,0.0,0.0,0.0,0.0,0.0,0.0,0.0,0.0,0.0,0.0,0.0,0.0,0.0,0.0,0.0,0.0,0.0,0.0,3.019,3.0466,3.0659,3.0694,3.1093,3.1779,0.0,0.0,0.0,0.0,0.0,0.0,0.0,0.0,0.0,0.0,0.0,0.0,0.0,0.0,0.0,0.0,0.0,0.0,0.0,0.0,0.0,0.0,0.0,0.0,0.0,0.0,0.0,0.0,0.0,0.0,0.0,0.0,0.0,0.0,0.0,0.0,0.0,0.0,0.0,0.0,0.0,0.0,0.0,0.0,0.0,0.0,0.0,0.0,0.0,0.0,0.0,0.0,0.0,0.0,0.0,0.0,0.0,0.0,0.0,0.0,0.0,0.0,0.0,0.0,0.0,0.0,0.0,0.0,0.0,0.0,0.0,0.0,0.0,0.0,0.0,0.0,0.0,0.0,0.0,0.0,0.0,0.0,0.0,0.0,0.0,0.0,0.0,0.0,0.0,0.0,0.0,0.0,0.0,0.0,0.0,0.0,0.0,0.0,0.0,0.0,0.0,0.0,0.0,0.0,0.0,0.0,0.0,0.0,2.8827,2.9107,2.9454,2.9826,2.987,3.0152,0.0,0.0,0.0,0.0,0.0,0.0,0.0,0.0,0.0,0.0,0.0,0.0,0.0,0.0,0.0,0.0,0.0,0.0,0.0,0.0,0.0,0.0,0.0,0.0,0.0,0.0,0.0,0.0,0.0,0.0,0.0,0.0,0.0,0.0,0.0,0.0,0.0,0.0,0.0,0.0,0.0,0.0,0.0,0.0,0.0,0.0,0.0,0.0,0.0,0.0,0.0,0.0,0.0,0.0,0.0,0.0,0.0,0.0,0.0,0.0,0.0,0.0,0.0,0.0,0.0,0.0,0.0,0.0,0.0,0.0,0.0,0.0,0.0,0.0,0.0,0.0,0.0,0.0,0.0,0.0,0.0,0.0,0.0,0.0,0.0,0.0,0.0,0.0,0.0,0.0,0.0,0.0,0.0,0.0,0.0,0.0,0.0,0.0,0.0,0.0,0.0,0.0,0.0,0.0,0.0,0.0,0.0,0.0,0.0,2.7952,2.827,2.8602,2.882,2.8811,2.9088,0.0,0.0,0.0,0.0,0.0,0.0,0.0,0.0,0.0,0.0,0.0,0.0,0.0,0.0,0.0,0.0,0.0,0.0,0.0,0.0,0.0,0.0,0.0,0.0,0.0,0.0,0.0,0.0,0.0,0.0,0.0,0.0,0.0,0.0,0.0,0.0,0.0,0.0,0.0,0.0,0.0,0.0,0.0,0.0,0.0,0.0,0.0,0.0,0.0,0.0,0.0,0.0,0.0,0.0,0.0,0.0,0.0,0.0,0.0,0.0,0.0,0.0,0.0,0.0,0.0,0.0,0.0,0.0,0.0,0.0,0.0,0.0,0.0,0.0,0.0,0.0,0.0,0.0,0.0,0.0,0.0,0.0,0.0,0.0,0.0,0.0,0.0,0.0,0.0,0.0,0.0,0.0,0.0,0.0,0.0,0.0,0.0,0.0,0.0,0.0,0.0,0.0,0.0,0.0,0.0,0.0,0.0,0.0,0.0,2.7456,0.0,2.8025,2.8219,2.8182,2.833,0.0,0.0,0.0,0.0,0.0,0.0,0.0,0.0,0.0,0.0,0.0,0.0,0.0,0.0,0.0,0.0,0.0,0.0,0.0,0.0,0.0,0.0,0.0,0.0,0.0,0.0,0.0,0.0,0.0,0.0,0.0,0.0,0.0,0.0,0.0,0.0,0.0,0.0,0.0,0.0,0.0,0.0,0.0,0.0,0.0,0.0,0.0,0.0,0.0,0.0,0.0,0.0,0.0,0.0,0.0,0.0,0.0,0.0,0.0,0.0,0.0,0.0,0.0,0.0,0.0,0.0,0.0,0.0,0.0,0.0,0.0,0.0,0.0,0.0,0.0,0.0,0.0,0.0,0.0,0.0,0.0,0.0,0.0,0.0,0.0,0.0,0.0,0.0,0.0,0.0,0.0,0.0,0.0,0.0,0.0,0.0,0.0,0.0,0.0,0.0,0.0,0.0,0.0,0.0,0.0,0.0,0.0,0.0,2.7521,2.75,2.7557,2.7766,2.8099,2.8025,2.794,0.0,0.0,0.0,0.0,0.0,0.0,0.0,0.0,0.0,0.0,0.0,0.0,0.0,0.0,0.0,0.0,0.0,0.0,0.0,0.0,0.0,0.0,0.0,0.0,0.0,0.0,0.0,0.0,0.0,0.0,0.0,0.0,0.0,0.0,0.0,0.0,0.0,0.0,0.0,0.0,0.0,0.0,0.0,0.0,0.0,0.0,0.0,0.0,0.0,0.0,0.0,0.0,0.0,0.0,0.0,0.0,0.0,0.0,0.0,0.0,0.0,0.0,0.0,0.0,0.0,0.0,0.0,0.0,0.0,0.0,0.0,0.0,0.0,0.0,0.0,0.0,0.0,0.0,0.0,0.0,0.0,0.0,0.0,0.0,0.0,0.0,0.0,0.0,0.0,0.0,0.0,0.0,0.0,0.0,0.0,0.0,0.0,0.0,0.0,0.0,0.0,0.0,0.0,0.0,0.0,0.0,0.0,0.0,0.0,2.723,2.7417,2.7587,2.7736,2.7736,2.7677,0.0,0.0,0.0,0.0,0.0,0.0,0.0,0.0,0.0,0.0,0.0,0.0,0.0,0.0,0.0,0.0,0.0,0.0,0.0,0.0,0.0,0.0,0.0,0.0,0.0,0.0,0.0,0.0,0.0,0.0,0.0,0.0,0.0,0.0,0.0,0.0,0.0,0.0,0.0,0.0,0.0,0.0,0.0,0.0,0.0,0.0,0.0,0.0,0.0,0.0,0.0,0.0,0.0,0.0,0.0,0.0,0.0,0.0,0.0,0.0,0.0,0.0,0.0,0.0,0.0,0.0,0.0,0.0,0.0,0.0,0.0,0.0,0.0,0.0,0.0,0.0,0.0,0.0,0.0,0.0,0.0,0.0,0.0,0.0,0.0,0.0,0.0,0.0,0.0,0.0,0.0,0.0,0.0,0.0,0.0,0.0,0.0,0.0,0.0,0.0,0.0,0.0,0.0,0.0,0.0,0.0,0.0,0.0,0.0,2.7709,2.7459,2.7373,2.7448,2.7448,2.7417,2.7355,0.0,0.0,0.0,0.0,0.0,0.0,0.0,0.0,0.0,0.0,0.0,0.0,0.0,0.0,0.0,0.0,0.0,0.0,0.0,0.0,0.0,0.0,0.0,0.0,0.0,0.0,0.0,0.0,0.0,0.0,0.0,0.0,0.0,0.0,0.0,0.0,0.0,0.0,0.0,0.0,0.0,0.0,0.0,0.0,0.0,0.0,0.0,0.0,0.0,0.0,0.0,0.0,0.0,0.0,0.0,0.0,0.0,0.0,0.0,0.0,0.0,0.0,0.0,0.0,0.0,0.0,0.0,0.0,0.0,0.0,0.0,0.0,0.0,0.0,0.0,0.0,0.0,0.0,0.0,0.0,0.0,0.0,0.0,0.0,0.0,0.0,0.0,0.0,0.0,0.0,0.0,0.0,0.0,0.0,0.0,0.0,0.0,0.0,0.0,0.0,0.0,0.0,0.0,0.0,0.0,0.0,0.0,0.0,2.8757,2.7657,2.7177,2.7304,2.7304,2.7255,0.0,0.0,0.0,0.0,0.0,0.0,0.0,0.0,0.0,0.0,0.0,0.0,0.0,0.0,0.0,0.0,0.0,0.0,0.0,0.0,0.0,0.0,0.0,0.0,0.0,0.0,0.0,0.0,0.0,0.0,0.0,0.0,0.0,0.0,0.0,0.0,0.0,0.0,0.0,0.0,0.0,0.0,0.0,0.0,0.0,0.0,0.0,0.0,0.0,0.0,0.0,0.0,0.0,0.0,0.0,0.0,0.0,0.0,0.0,0.0,0.0,0.0,0.0,0.0,0.0,0.0,0.0,0.0,0.0,0.0,0.0,0.0,0.0,0.0,0.0,0.0,0.0,0.0,0.0,0.0,0.0,0.0,0.0,0.0,0.0,0.0,0.0,0.0,0.0,0.0,0.0,0.0,0.0,0.0,0.0,0.0,0.0,0.0,0.0,0.0,0.0,0.0,0.0,0.0,0.0,0.0,0.0,0.0,0.0,2.8569,2.8313,2.8258,2.842,2.8384,2.8277,0.0,0.0,0.0,0.0,0.0,0.0,0.0,0.0,0.0,0.0,0.0,0.0,0.0,0.0,0.0,0.0,0.0,0.0,0.0,0.0,0.0,0.0,0.0,0.0,0.0,0.0,0.0,0.0,0.0,0.0,0.0,0.0,0.0,0.0,0.0,0.0,0.0,0.0,0.0,0.0,0.0,0.0,0.0,0.0,0.0,0.0,0.0,0.0,0.0,0.0,0.0,0.0,0.0,0.0,0.0,0.0,0.0,0.0,0.0,0.0,0.0,0.0,0.0,0.0,0.0,0.0,0.0,0.0,0.0,0.0,0.0,0.0,0.0,0.0,0.0,0.0,0.0,0.0,0.0,0.0,0.0,0.0,0.0,0.0,0.0,0.0,0.0,0.0,0.0,0.0,0.0,0.0,0.0,0.0,0.0,0.0,0.0,0.0,0.0,0.0,0.0,0.0,0.0,0.0,0.0,0.0,0.0,0.0,2.9187,2.9307,2.9387,2.9409,2.9449,2.8903,2.8531,0.0,0.0,0.0,0.0,0.0,0.0,0.0,0.0,0.0,0.0,0.0,0.0,0.0,0.0,0.0,0.0,0.0,0.0,0.0,0.0,0.0,0.0,0.0,0.0,0.0,0.0,0.0,0.0,0.0,0.0,0.0,0.0,0.0,0.0,0.0,0.0,0.0,0.0,0.0,0.0,0.0,0.0,0.0,0.0,0.0,0.0,0.0,0.0,0.0,0.0,0.0,0.0,0.0,0.0,0.0,0.0,0.0,0.0,0.0,0.0,0.0,0.0,0.0,0.0,0.0,0.0,0.0,0.0,0.0,0.0,0.0,0.0,0.0,0.0,0.0,0.0,0.0,0.0,0.0,0.0,0.0,0.0,0.0,0.0,0.0,0.0,0.0,0.0,0.0,0.0,0.0,0.0,0.0,0.0,0.0,0.0,0.0,0.0,0.0,0.0,0.0,0.0,0.0,0.0,0.0,0.0,0.0,0.0,3.0106,3.0401,3.0443,3.0401,3.0156,2.9187,2.8533,0.0,0.0,0.0,0.0,0.0,0.0,0.0,0.0,0.0,0.0,0.0,0.0,0.0,0.0,0.0,0.0,0.0,0.0,0.0,0.0,0.0,0.0,0.0,0.0,0.0,0.0,0.0,0.0,0.0,0.0,0.0,0.0,0.0,0.0,0.0,0.0,0.0,0.0,0.0,0.0,0.0,0.0,0.0,0.0,0.0,0.0,0.0,0.0,0.0,0.0,0.0,0.0,0.0,0.0,0.0,0.0,0.0,0.0,0.0,0.0,0.0,0.0,0.0,0.0,0.0,0.0,0.0,0.0,0.0,0.0,0.0,0.0,0.0,0.0,0.0,0.0,0.0,0.0,0.0,0.0,0.0,0.0,0.0,0.0,0.0,0.0,0.0,0.0,0.0,0.0,0.0,0.0,0.0,0.0,0.0,0.0,0.0,0.0,0.0,0.0,0.0,0.0,0.0,0.0,0.0,0.0,0.0,0.0,3.0377,3.0401,3.0333,3.0189,3.006,2.9707,2.9442,0.0,0.0,0.0,0.0,0.0,0.0,0.0,0.0,0.0,0.0,0.0,0.0,0.0,0.0,0.0,0.0,0.0,0.0,0.0,0.0,0.0,0.0,0.0,0.0,0.0,0.0,0.0,0.0,0.0,0.0,0.0,0.0,0.0,0.0,0.0,0.0,0.0,0.0,0.0,0.0,0.0,0.0,0.0,0.0,0.0,0.0,0.0,0.0,-1.9533,0.0,0.0,0.0,0.0,0.0,0.0,0.0,0.0,0.0,0.0,0.0,0.0,0.0,0.0,0.0,0.0,0.0,0.0,0.0,0.0,0.0,0.0,0.0,0.0,0.0,0.0,0.0,0.0,0.0,0.0,0.0,0.0,0.0,0.0,0.0,0.0,0.0,0.0,0.0,0.0,0.0,0.0,0.0,0.0,0.0,0.0,0.0,0.0,0.0,0.0,0.0,0.0,0.0,0.0,0.0,0.0,0.0,0.0,0.0,3.0443,3.013,3.0044,2.9913,2.9694,2.956,2.947,0.0,0.0,0.0,0.0,0.0,0.0,0.0,0.0,0.0,0.0,0.0,0.0,0.0,0.0,0.0,0.0,0.0,0.0,0.0,0.0,0.0,0.0,0.0,0.0,0.0,0.0,0.0,0.0,0.0,0.0,0.0,0.0,0.0,0.0,0.0,0.0,0.0,0.0,0.0,0.0,0.0,0.0,0.0,0.0,0.0,0.0,0.0,0.0,0.0,0.0,0.0,0.0,0.0,0.0,0.0,0.0,0.0,0.0,0.0,0.0,0.0,0.0,0.0,0.0,0.0,0.0,0.0,0.0,0.0,0.0,0.0,0.0,0.0,0.0,0.0,0.0,0.0,0.0,0.0,0.0,0.0,0.0,0.0,0.0,0.0,0.0,0.0,0.0,0.0,0.0,0.0,0.0,0.0,0.0,0.0,0.0,0.0,0.0,0.0,0.0,0.0,0.0,0.0,0.0,0.0,0.0,0.0,3.0568,3.0359,2.9837,2.9766,2.9589,2.9259,2.9121,2.9059,2.9106,0.0,0.0,0.0,0.0,0.0,0.0,0.0,0.0,0.0,0.0,0.0,0.0,0.0,0.0,0.0,0.0,0.0,0.0,0.0,0.0,0.0,0.0,0.0,0.0,0.0,0.0,0.0,0.0,0.0,0.0,0.0,0.0,0.0,0.0,0.0,0.0,0.0,0.0,2.8974,2.3457,0.0,0.0,0.0,0.0,0.0,0.0,0.0,0.0,-2.8436,0.0,0.0,0.0,0.0,0.0,0.0,0.0,0.0,0.0,0.0,0.0,0.0,0.0,0.0,0.0,0.0,0.0,0.0,0.0,0.0,0.0,0.0,0.0,0.0,0.0,0.0,0.0,0.0,0.0,0.0,0.0,0.0,0.0,0.0,0.0,0.0,0.0,0.0,0.0,0.0,0.0,0.0,0.0,0.0,0.0,0.0,0.0,0.0,0.0,0.0,0.0,0.0,0.0,0.0,0.0,0.0,3.0417,3.0316,3.013,2.9793,2.9621,2.935,2.9013,2.8951,2.8716,2.8253,0.0,0.0,0.0,0.0,0.0,0.0,0.0,0.0,0.0,0.0,0.0,0.0,0.0,0.0,0.0,0.0,0.0,0.0,0.0,0.0,0.0,0.0,0.0,0.0,0.0,0.0,0.0,0.0,0.0,0.0,0.0,0.0,0.0,0.0,0.0,0.0,0.0,0.0,0.0,1.8396,1.34,0.0,0.0,0.0,0.0,0.0,0.0,0.0,0.0,-4.2227,0.0,0.0,0.0,0.0,0.0,0.0,0.0,0.0,0.0,0.0,0.0,0.0,0.0,0.0,0.0,0.0,0.0,0.0,0.0,0.0,0.0,0.0,0.0,0.0,0.0,0.0,0.0,0.0,0.0,0.0,0.0,0.0,0.0,0.0,0.0,0.0,0.0,0.0,0.0,0.0,0.0,0.0,0.0,0.0,0.0,0.0,0.0,0.0,0.0,0.0,0.0,0.0,0.0,0.0,0.0,3.0459,3.029,3.0017,2.9665,2.935,2.9029,2.8748,2.859,2.8253,0.0,0.0,0.0,0.0,0.0,0.0,0.0,0.0,0.0,0.0,0.0,0.0,0.0,0.0,0.0,0.0,0.0,0.0,0.0,0.0,0.0,0.0,0.0,0.0,0.0,0.0,0.0,0.0,0.0,0.0,0.0,0.0,0.0,0.0,0.0,0.0,0.0,0.0,0.0,0.0,1.528,1.0828,0.6957,0.0,0.0,0.0,0.0,0.0,0.0,-2.8673,-4.1795,0.0,0.0,0.0,0.0,0.0,0.0,0.0,0.0,0.0,0.0,0.0,0.0,0.0,0.0,0.0,0.0,0.0,0.0,0.0,0.0,0.0,0.0,0.0,0.0,0.0,0.0,0.0,0.0,0.0,0.0,0.0,0.0,0.0,0.0,0.0,0.0,0.0,0.0,0.0,0.0,0.0,0.0,0.0,0.0,0.0,0.0,0.0,0.0,0.0,0.0,0.0,0.0,0.0,0.0,0.0,3.0485,3.0248,2.9902,2.9457,2.9075,2.8732,2.8477,2.822,2.784,0.0,0.0,0.0,0.0,0.0,0.0,0.0,0.0,0.0,0.0,0.0,0.0,0.0,0.0,0.0,0.0,0.0,0.0,0.0,0.0,0.0,0.0,0.0,0.0,0.0,0.0,0.0,0.0,0.0,0.0,0.0,0.0,0.0,0.0,0.0,0.0,0.0,0.0,0.0,0.0,0.0,0.7333,0.1701,0.2581,0.0,0.0,0.0,0.0,-1.4542,-2.8992,0.0,0.0,0.0,0.0,0.0,0.0,0.0,0.0,0.0,0.0,0.0,0.0,0.0,0.0,0.0,0.0,0.0,0.0,0.0,0.0,0.0,0.0,0.0,0.0,0.0,0.0,0.0,0.0,0.0,0.0,0.0,0.0,0.0,0.0,0.0,0.0,0.0,0.0,0.0,0.0,0.0,0.0,0.0,0.0,0.0,0.0,0.0,0.0,0.0,0.0,0.0,0.0,0.0,0.0,0.0,0.0,3.0417,2.9973,2.9621,2.9305,2.892,2.8494,2.8057,2.7925,2.7539,0.0,0.0,0.0,0.0,0.0,0.0,0.0,0.0,0.0,0.0,0.0,0.0,0.0,0.0,0.0,0.0,0.0,0.0,0.0,0.0,0.0,0.0,0.0,0.0,0.0,0.0,0.0,0.0,0.0,0.0,0.0,0.0,0.0,0.0,0.0,0.0,0.0,0.0,0.0,0.0,0.0,0.0193,-0.7884,-0.7085,-0.4357,0.0,0.0,-1.4118,-1.5839,-2.8497,0.0,0.0,0.0,0.0,0.0,0.0,0.0,0.0,0.0,0.0,0.0,0.0,0.0,0.0,0.0,0.0,0.0,0.0,0.0,0.0,0.0,0.0,0.0,0.0,0.0,0.0,0.0,0.0,0.0,0.0,0.0,0.0,0.0,0.0,0.0,0.0,0.0,0.0,0.0,0.0,0.0,0.0,0.0,0.0,0.0,0.0,0.0,0.0,0.0,0.0,0.0,0.0,0.0,0.0,0.0,3.0443,3.0326,2.9886,2.9502,2.9106,2.87,2.8501,2.8384,2.818,2.8047,0.0,0.0,0.0,0.0,0.0,0.0,0.0,0.0,0.0,0.0,0.0,0.0,0.0,0.0,0.0,0.0,0.0,0.0,0.0,0.0,0.0,0.0,0.0,0.0,0.0,0.0,0.0,0.0,0.0,0.0,0.0,0.0,0.0,0.0,0.0,0.0,0.0,0.0,0.0,0.0,0.0,0.0,-1.4754,-1.5761,0.0,0.0,0.0,-2.1646,-2.4109,0.0,0.0,0.0,0.0,0.0,0.0,0.0,0.0,0.0,0.0,0.0,0.0,0.0,0.0,0.0,0.0,0.0,0.0,0.0,0.0,0.0,0.0,0.0,0.0,0.0,0.0,0.0,0.0,0.0,0.0,0.0,0.0,0.0,0.0,0.0,0.0,0.0,0.0,0.0,0.0,0.0,0.0,0.0,0.0,0.0,0.0,0.0,0.0,0.0,0.0,0.0,0.0,0.0,0.0,0.0,0.0,0.0,3.0182,2.996,2.9605,2.9077,2.8894,2.8784,2.8839,2.8589,0.0,0.0,0.0,0.0,0.0,0.0,0.0,0.0,0.0,0.0,0.0,0.0,0.0,0.0,0.0,0.0,0.0,0.0,0.0,0.0,0.0,0.0,0.0,0.0,0.0,0.0,0.0,3.7629,0.0,0.0,0.0,0.0,0.0,0.0,0.0,0.0,0.0,0.0,0.0,0.0,0.0,0.0,-1.0094,-1.9874,-2.2961,-2.4569,0.0,0.0,-2.8595,-3.1103,-3.4218,-3.6538,0.0,0.0,0.0,0.0,0.0,0.0,0.0,0.0,0.0,0.0,0.0,0.0,0.0,0.0,0.0,0.0,0.0,0.0,0.0,0.0,0.0,0.0,0.0,0.0,0.0,0.0,0.0,0.0,0.0,0.0,0.0,0.0,0.0,0.0,0.0,0.0,0.0,0.0,0.0,0.0,0.0,0.0,0.0,0.0,0.0,0.0,0.0,0.0,0.0,0.0,0.0,0.0,0.0,0.0,0.0,2.987,3.0126,3.0022,2.9487,2.9699,2.9629,2.9258,2.8998,2.8764,0.0,0.0,0.0,0.0,0.0,0.0,0.0,0.0,0.0,0.0,0.0,0.0,0.0,0.0,0.0,0.0,0.0,0.0,0.0,0.0,0.0,0.0,0.0,0.0,0.0,0.0,0.0,0.0,0.0,0.0,0.0,0.0,0.0,0.0,0.0,0.0,0.0,0.0,0.0,0.0,0.0,-1.176,-2.3012,-2.8094,-3.079,0.0,0.0,-3.293,-3.3403,-3.4567,-3.531,-3.4898,0.0,0.0,0.0,0.0,0.0,0.0,0.0,0.0,0.0,0.0,0.0,0.0,0.0,0.0,0.0,0.0,0.0,0.0,0.0,0.0,0.0,0.0,0.0,0.0,0.0,0.0,0.0,0.0,0.0,0.0,0.0,0.0,0.0,0.0,0.0,0.0,0.0,0.0,0.0,0.0,0.0,0.0,0.0,0.0,0.0,0.0,0.0,0.0,0.0,0.0,0.0,0.0,0.0,3.0851,3.0967,3.0799,3.0401,2.9776,2.9758,2.9729,2.9631,2.9518,2.9551,0.0,0.0,0.0,0.0,0.0,0.0,0.0,0.0,0.0,0.0,0.0,0.0,0.0,0.0,0.0,0.0,0.0,0.0,0.0,0.0,0.0,0.0,0.0,0.0,0.0,0.0,0.0,0.0,4.1615,4.1237,3.8164,0.0,0.0,0.0,0.0,0.0,0.0,0.0,0.0,0.0,0.0,-1.6749,-2.5678,-3.0108,0.0,0.0,-3.324,-3.3488,-3.3531,-3.3571,-3.3488,-3.338,-3.3129,0.0,0.0,0.0,0.0,0.0,0.0,0.0,0.0,0.0,0.0,0.0,0.0,0.0,0.0,0.0,0.0,0.0,0.0,0.0,0.0,0.0,0.0,0.0,0.0,0.0,0.0,0.0,0.0,0.0,0.0,0.0,0.0,0.0,0.0,0.0,0.0,0.0,0.0,0.0,0.0,0.0,0.0,0.0,0.0,0.0,0.0,0.0,0.0,0.0,0.0,0.0,0.0,3.1461,3.1566,3.1297,3.083,3.0144,3.0123,3.0119,3.009,3.0061,3.0221,0.0,0.0,0.0,0.0,0.0,0.0,0.0,0.0,0.0,0.0,0.0,0.0,0.0,0.0,0.0,0.0,0.0,0.0,0.0,0.0,0.0,0.0,0.0,0.0,0.0,0.0,0.0,0.0,4.2814,4.1529,3.6055,0.0,0.0,0.0,0.0,0.0,0.0,0.0,0.0,0.0,0.0,-2.0393,-2.7044,-3.0537,-3.2437,-3.2579,-3.2666,-3.2624,-3.2256,-3.1726,-3.1303,-3.1383,0.0,0.0,0.0,0.0,0.0,0.0,0.0,0.0,0.0,0.0,0.0,0.0,0.0,0.0,0.0,0.0,0.0,0.0,0.0,0.0,0.0,0.0,0.0,0.0,0.0,0.0,0.0,0.0,0.0,0.0,3.2214,0.0,0.0,0.0,0.0,0.0,0.0,0.0,0.0,0.0,0.0,0.0,0.0,0.0,0.0,0.0,0.0,0.0,0.0,0.0,0.0,0.0,0.0,3.1805,3.1239,3.141,3.1244,3.0744,3.0891,3.0925,3.0792,3.0658,3.0628,3.0642,0.0,0.0,0.0,0.0,0.0,0.0,0.0,0.0,0.0,0.0,0.0,0.0,0.0,0.0,0.0,0.0,0.0,0.0,0.0,0.0,0.0,0.0,0.0,0.0,0.0,0.0,4.1801,4.3592,4.2139,0.0,0.0,0.0,0.0,0.0,0.0,0.0,0.0,0.0,0.0,-1.6733,-2.1702,-2.6944,-2.926,-3.0374,-3.0374,-3.0336,-3.0173,-2.9593,-2.8991,-2.8638,0.0,0.0,0.0,0.0,0.0,0.0,0.0,0.0,0.0,0.0,0.0,0.0,0.0,0.0,0.0,0.0,0.0,0.0,0.0,0.0,0.0,0.0,0.0,0.0,0.0,0.0,0.0,3.2179,3.2232,0.0,0.0,0.0,0.0,0.0,0.0,0.0,0.0,0.0,0.0,0.0,3.1877,3.1796,0.0,0.0,0.0,0.0,0.0,0.0,0.0,0.0,0.0,0.0,0.0,0.0,3.2658,3.2598,3.226,3.1879,3.1407,3.126,3.1176,3.1014,3.0836,3.0702,3.0642,0.0,0.0,0.0,0.0,0.0,0.0,0.0,0.0,0.0,0.0,0.0,0.0,0.0,0.0,0.0,0.0,0.0,0.0,0.0,0.0,0.0,0.0,0.0,0.0,0.0,4.0319,0.0,0.0,0.0,0.0,0.0,0.0,0.0,0.0,0.0,0.0,0.0,-0.6401,-1.3616,-1.8442,-2.2074,-2.4509,-2.5744,-2.6345,0.0,0.0,0.0,0.0,0.0,0.0,0.0,0.0,0.0,0.0,0.0,0.0,0.0,0.0,-3.0008,-3.0469,-2.9871,-2.925,-2.8937,0.0,0.0,0.0,0.0,0.0,0.0,0.0,0.0,0.0,0.0,0.0,0.0,0.0,0.0,3.2179,0.0,3.2371,0.0,0.0,0.0,0.0,0.0,0.0,0.0,0.0,3.1695,3.1918,3.2302,3.2233,3.2364,0.0,3.3034,3.299,0.0,0.0,0.0,0.0,0.0,0.0,0.0,0.0,3.3448,3.333,3.2819,3.2327,3.191,3.1567,3.1394,3.1234,3.1058,3.0881,3.0702,3.0702,3.0747,0.0,0.0,0.0,0.0,0.0,0.0,0.0,0.0,0.0,0.0,0.0,0.0,0.0,0.0,0.0,0.0,0.0,0.0,0.0,0.0,0.0,0.0,0.0,4.1414,0.0,0.0,0.0,0.0,0.0,0.0,0.0,0.0,0.0,-0.1192,-0.5389,-0.9914,-1.4709,-1.8068,-2.0553,-2.1797,0.0,0.0,0.0,0.0,0.0,0.0,0.0,-2.3443,-2.4407,-2.5344,-2.6394,-2.7669,-2.8491,-2.8761,-2.8263,0.0,0.0,-2.9938,-2.9591,-2.9038,-2.8746,-2.8541,-2.8399,-2.8322,-2.8744,-2.9163,0.0,0.0,0.0,0.0,0.0,0.0,0.0,0.0,3.2284,3.2336,0.0,3.2476,0.0,0.0,0.0,0.0,0.0,3.2517,0.0,0.0,3.2807,3.289,3.2718,3.2628,3.2492,3.2417,3.3104,3.3526,3.3617,3.3245,0.0,0.0,0.0,0.0,0.0,0.0,3.405,3.3503,3.3033,3.2656,3.2247,3.191,3.1667,3.1552,3.1394,3.1161,3.0821,3.0821,3.0881,3.1087,3.1234,0.0,0.0,0.0,0.0,0.0,0.0,0.0,0.0,0.0,0.0,0.0,0.0,0.0,0.0,0.0,0.0,0.0,0.0,0.0,0.0,4.1069,0.0,0.0,0.0,0.0,0.0,0.0,0.0,0.0,0.0,0.0,-0.3286,-0.703,-1.0863,-1.438,0.0,0.0,0.0,0.0,-1.8465,-2.0152,-2.0393,-2.0411,-2.0522,-2.0541,-2.082,-2.1495,0.0,0.0,-2.5415,-2.6107,-2.6411,-2.6566,-2.7113,-2.7656,-2.8167,-2.846,-2.8486,-2.8122,-2.7952,-2.7755,-2.7508,-2.7841,-2.8002,3.2402,0.0,0.0,0.0,0.0,3.382,3.4021,3.4164,3.4164,3.4217,3.4217,3.4253,0.0,0.0,0.0,0.0,0.0,0.0,3.3257,3.2942,3.2947,3.3067,3.3337,3.3291,3.3461,3.3874,3.4087,3.4234,3.4378,3.4259,3.4416,3.4835,0.0,0.0,0.0,0.0,3.4101,3.3642,3.333,3.3065,3.2765,3.2586,3.2382,3.216,3.191,3.164,3.1321,3.1219,3.1176,3.1234,3.1394,0.0,0.0,0.0,0.0,0.0,0.0,0.0,0.0,0.0,0.0,0.0,0.0,0.0,0.0,0.0,0.0,0.0,0.0,0.0,4.0791,4.2246,4.3316,0.0,0.0,0.0,0.0,0.0,0.0,0.0,0.0,0.0,-0.4202,-0.7362,-1.0365,0.0,0.0,-1.513,-1.5616,-1.5425,-1.5611,-1.6476,-1.6802,0.0,-1.8095,-1.865,-1.9265,-2.0196,-2.1724,-2.3031,-2.3913,-2.4546,-2.497,-2.4621,-2.531,-2.5884,-2.5853,-2.7376,-2.8371,-2.8205,-2.8157,-2.8097,-2.7816,-2.8075,-2.8333,3.4024,3.4078,3.3811,3.3865,3.4237,3.4559,3.4798,3.4942,3.4978,3.4995,3.4995,3.5031,3.5031,3.4995,3.4942,0.0,0.0,0.0,3.4148,3.3829,3.3873,3.3989,3.411,3.3985,3.4119,3.4448,3.4399,3.4497,3.4659,3.4643,3.4804,3.4994,0.0,0.0,3.4691,3.4546,3.43,3.3949,3.3745,3.3523,3.3261,3.314,3.298,3.2711,3.2508,3.2231,3.1781,3.1567,3.1452,3.1394,3.1437,3.1625,0.0,0.0,0.0,0.0,0.0,0.0,0.0,0.0,0.0,0.0,0.0,3.7231,3.7424,0.0,0.0,0.0,3.9135,4.0585,4.2257,4.305,0.0,0.0,0.0,0.0,0.0,0.0,0.0,0.2234,-0.0197,-0.2263,-0.4224,-0.6554,-0.8952,-1.1233,-1.2385,-1.3068,-1.3197,0.0,-1.363,-1.4391,-1.4803,-1.5384,-1.6499,-1.7131,-1.7954,-1.9247,-2.0417,-2.146,-2.1949,-2.2652,-2.2949,-2.2958,-2.3621,-2.4203,-2.4055,-2.5648,-2.7095,-2.7335,-2.749,-2.7503,-2.7301,-2.7532,-2.7713,3.5605,3.5548,3.443,3.4152,3.4411,3.4751,3.4955,3.5011,3.5137,3.5208,3.5208,3.5261,3.5261,3.5172,3.5083,0.0,3.4898,3.5218,3.5208,3.4916,3.5267,3.5258,3.4883,3.4643,3.4448,3.4284,3.4284,3.4399,3.4546,3.4643,3.4787,3.4947,3.4947,3.4851,3.4707,3.4707,3.4594,3.4349,3.4349,3.4151,3.3797,3.3658,3.3487,3.3298,3.3177,3.2803,3.2302,3.1966,3.1724,3.161,3.1537,3.1781,3.2221,0.0,0.0,0.0,0.0,0.0,0.0,0.0,0.0,0.0,0.0,0.0,0.0,0.0,0.0,0.0,4.1018,0.0,4.2759,4.3361,0.0,0.0,0.0,2.2727,1.539,0.8258,0.3005,0.0669,0.0,0.0,-0.3615,-0.5122,-0.6944,-0.9564,-1.0393,-1.1043,-1.1556,-1.181,-1.226,-1.3451,-1.3964,-1.4566,-1.5506,-1.6087,-1.7008,-1.8325,-1.8904,-1.9506,-2.0058,-2.0596,-2.0954,-2.145,-2.2164,-2.281,-2.3036,-2.3942,-2.4765,-2.5966,-2.6251,-2.6383,-2.6446,-2.6553,-2.6603,3.6002,3.6156,3.6039,3.5989,3.6052,3.6352,3.6655,3.6787,3.6787,3.6878,3.6987,3.7005,3.6951,3.6841,3.6748,3.6559,3.6287,3.6261,3.6042,3.5702,3.561,3.5412,3.5041,3.4899,3.4691,3.4448,3.4448,3.4611,3.4787,3.4851,3.4994,3.5198,3.5198,3.5088,3.4835,3.4835,3.4835,3.4756,3.4643,3.4546,3.4448,3.4349,3.4234,3.4184,3.3882,3.3471,3.3081,3.2602,3.2327,3.2216,3.2064,3.2135,3.2358,3.3187,0.0,0.0,0.0,0.0,0.0,0.0,0.0,0.0,0.0,3.9504,3.9592,0.0,3.9713,0.0,4.085,4.1333,4.1407,4.1852,0.0,0.0,2.8468,2.1748,1.5232,0.7871,0.2485,0.0572,-0.0762,-0.2188,-0.371,-0.4688,-0.5945,-0.7547,-0.8683,-0.966,-1.0479,-1.0676,-1.1154,-1.2443,-1.296,-1.3464,-1.4566,-1.5643,-1.6656,-1.7546,-1.804,-1.8434,-1.9002,-1.9539,-2.0175,-2.0887,-2.1777,-2.2538,-2.3134,-2.4004,-2.4745,-2.5396,-2.5805,-2.605,-2.6188,-2.6389,-2.6414,3.6385,3.655,3.6771,3.6851,3.6811,3.697,3.7147,3.7261,3.7317,3.7429,3.7503,3.7577,3.754,3.7466,3.7372,3.7182,3.693,3.6708,3.6419,3.6148,3.5932,3.5667,3.5304,3.5165,3.4977,3.4756,3.4756,3.4851,3.5105,3.5118,3.5211,3.5458,3.5503,3.5441,3.5304,3.5152,3.5088,3.5105,3.4994,3.4947,3.4947,3.4899,3.4804,3.4691,3.4349,3.3949,3.3503,3.3081,3.2726,3.2492,3.2302,3.2247,3.2413,3.3044,3.3614,0.0,0.0,0.0,0.0,0.0,0.0,0.0,0.0,0.0,0.0,0.0,3.9139,3.9508,4.012,4.052,4.0702,4.1148,3.8516,3.1184,2.6453,2.0285,1.149,0.6103,0.2339,0.065,-0.0556,-0.1669,-0.2872,-0.3849,-0.5001,-0.6175,-0.7348,-0.8484,-0.9454,-0.9951,-1.0641,-1.1843,-1.2363,-1.3089,-1.4392,-1.5646,-1.6684,-1.7283,-1.787,-1.8271,-1.8676,-1.9261,-1.9907,-2.0473,-2.1374,-2.2221,-2.2869,-2.3807,-2.4511,-2.4893,-2.5535,-2.6154,-2.6551,-2.6532,-2.6487,3.6794,3.6895,3.7052,3.7108,3.7048,3.7066,3.7048,3.7108,3.7241,3.7372,3.7411,3.754,3.7594,3.7577,3.739,3.722,3.7069,3.6829,3.6585,3.6343,3.6233,3.6019,3.5667,3.5532,3.535,3.5182,3.5135,3.5245,3.5383,3.5441,3.5532,3.5667,3.5783,3.5827,3.5861,3.5566,3.5412,3.5383,3.5337,3.5337,3.5383,3.5337,3.5228,3.4994,3.4691,3.43,3.3797,3.3346,3.3027,3.2711,3.2398,3.2302,3.2413,3.2745,3.3069,0.0,3.3842,0.0,0.0,0.0,0.0,0.0,0.0,0.0,0.0,3.8027,3.7993,3.8315,3.9041,3.9629,4.0077,4.0624,3.7015,2.7563,2.4622,1.9072,0.8279,0.4696,0.2651,0.1168,0.009,-0.0807,-0.1707,-0.2956,-0.4117,-0.5211,-0.6385,-0.7474,-0.8629,-0.9499,-1.044,-1.1462,-1.2181,-1.32,-1.4516,-1.5732,-1.669,-1.7224,-1.7802,-1.8354,-1.8631,-1.9272,-1.9827,-2.0223,-2.1117,-2.1963,-2.2416,-2.3452,-2.425,-2.4512,-2.5576,-2.65,-2.6914,-2.6956,-2.6744,3.7279,3.7429,3.7374,3.7354,3.7317,3.7259,3.7238,3.7273,3.7334,3.7466,3.754,3.7594,3.754,3.7429,3.7317,3.7182,3.7009,3.6869,3.6667,3.6461,3.636,3.6131,3.5932,3.5817,3.5622,3.5532,3.5487,3.5594,3.5684,3.5728,3.5861,3.6079,3.6122,3.6148,3.6174,0.0,0.0,0.0,3.5577,3.5594,3.5684,3.5594,3.5487,3.5287,3.4977,0.0,3.4201,3.3694,3.3398,3.333,3.2796,0.0,0.0,0.0,0.0,0.0,0.0,0.0,0.0,0.0,0.0,0.0,3.5581,3.6405,3.7547,3.7694,3.7537,3.7097,3.7767,3.8205,3.8078,3.8652,3.6696,3.096,2.6057,2.0425,1.3562,0.7789,0.3773,0.2599,0.1255,0.0,-0.1077,-0.233,-0.3515,-0.4756,-0.5772,-0.6819,-0.7948,-0.9298,-1.0464,-1.1279,-1.2489,-1.3542,-1.45,-1.5102,-1.5988,-1.6793,-1.7494,-1.804,-1.8679,-1.9187,-1.9729,-2.0199,-2.1151,-2.1969,-2.263,-2.3685,-2.4556,-2.4924,-2.598,-2.6725,-2.67,-2.7334,-2.7706,3.7577,0.0,3.7667,3.7613,0.0,3.7577,3.7577,3.7487,3.7394,3.7466,3.7577,3.7577,3.754,3.7374,3.7334,3.7182,3.697,3.6851,3.6766,3.6602,3.6544,3.6419,3.6233,3.6208,3.6062,3.5888,3.5932,3.5975,3.601,3.6079,3.6208,3.6335,3.6461,3.6527,3.655,3.6468,3.6301,3.6062,3.5975,3.5958,3.5993,3.5958,3.5783,3.5424,3.5211,0.0,0.0,0.0,0.0,0.0,0.0,0.0,0.0,3.1968,0.0,3.147,3.1643,3.1941,3.2303,3.2821,3.3244,3.3529,3.4048,3.4832,3.5926,3.6284,3.6323,3.6047,3.668,3.7178,3.7356,3.7929,3.647,3.1873,2.6541,2.1009,1.5359,0.9202,0.49,0.3491,0.215,0.0719,-0.0546,-0.1821,-0.3029,-0.4295,-0.5244,-0.6103,-0.7092,-0.8629,-1.004,-1.1418,-1.2894,-1.3989,-1.4453,-1.5226,-1.5844,-1.6661,-1.7379,-1.8213,-1.9148,-1.9478,-1.9875,-2.0509,-2.1235,-2.1923,-2.2541,-2.357,-2.4529,-2.502,-2.5852,-2.6558,-2.6667,-2.7669,-2.8348,3.7863,3.7969,3.7969,3.7898,3.7827,3.7916,3.7862,3.7736,0.0,0.0,0.0,3.7667,3.7594,3.7449,3.7392,3.7297,3.7087,3.6987,3.6851,3.6766,3.6766,3.6667,3.6544,3.6544,3.6461,3.631,3.636,3.6318,3.631,3.6461,3.6561,3.6585,3.6748,3.6851,3.6851,3.6713,3.6591,3.6402,3.6343,3.6259,3.6208,3.6276,3.6045,3.5515,3.535,3.5041,3.4448,3.4084,3.371,3.3256,3.2834,3.2327,3.1724,3.119,3.0792,3.0507,3.0266,3.0251,3.0598,3.1073,3.1652,3.2342,3.3049,3.3745,3.4399,3.4739,3.5041,3.5215,3.5827,3.6474,3.7076,3.7703,3.6636,3.2998,2.798,2.2936,1.8147,1.155,0.7307,0.5639,0.3508,0.1361,-0.0093,-0.1395,-0.2718,-0.3905,-0.4782,-0.5553,-0.6418,-0.8023,-0.9792,-1.1636,-1.3012,-1.3984,-1.4384,-1.5181,-1.6109,-1.6438,-1.739,-1.8381,-1.9345,-1.9779,-2.0119,-2.0538,-2.1186,-2.1704,-2.2246,-2.3125,-2.4079,-2.468,-2.5443,-2.6102,-2.6693,-2.7726,-2.8366,3.8138,3.8241,3.8241,3.8241,3.8223,3.8138,3.8034,3.7966,3.7863,3.7775,3.7703,3.781,3.7775,3.7667,3.7631,3.7613,3.7503,3.7374,3.7223,3.7048,3.7031,3.6952,3.6731,3.6731,3.6708,3.6661,3.6643,3.6643,3.6661,3.6661,3.6684,3.6788,3.6891,3.7009,3.7031,3.697,3.6851,3.6748,3.6426,3.6301,3.6259,3.6251,3.6122,3.5932,3.556,3.5258,3.4994,3.4399,3.3949,3.3607,3.298,3.2327,3.1724,3.0999,3.0343,2.9931,2.9623,2.9623,2.9931,3.0524,3.1349,3.2342,3.2958,3.3555,3.4101,3.43,3.4562,3.4947,3.5498,3.6139,3.6816,3.7431,3.7642,3.7043,3.306,2.9505,2.7252,1.8795,1.2683,1.1641,0.6226,0.1853,0.0377,-0.1232,-0.2674,-0.3788,-0.4683,-0.5489,-0.6623,-0.8146,-0.9966,-1.1636,-1.2587,-1.329,-1.4136,-1.4841,-1.5547,-1.6197,-1.7037,-1.7986,-1.8835,-1.9487,-1.9928,-2.03,-2.0826,-2.1266,-2.1731,-2.2441,-2.3309,-2.41,-2.4786,-2.5359,-2.6124,-2.6894,-2.7441,3.8396,3.8465,3.8465,3.8465,3.8446,3.8382,3.8318,3.8267,3.8204,3.8036,3.781,3.7864,3.781,3.7721,3.7757,3.7721,3.7577,3.7577,3.7431,3.7261,3.7241,3.7108,3.697,3.6952,3.6948,3.6869,3.6908,3.6908,3.6886,3.6869,3.6908,3.6952,3.7126,3.7203,3.7203,3.7182,3.7027,3.6829,3.6609,3.6502,3.6402,3.6461,3.631,3.6036,3.58,3.5532,3.5088,3.4594,3.405,3.3471,3.2964,3.2312,3.1495,3.0955,3.0358,2.9775,2.9449,2.9373,2.956,3.0478,3.1422,3.2247,3.2757,3.3256,3.3745,3.4101,3.4448,3.4899,3.5453,3.6071,3.6753,3.7356,3.7913,3.8431,3.4376,3.1676,3.0438,2.2087,1.5458,1.3925,0.7914,0.2639,0.0578,-0.1257,-0.2728,-0.3866,-0.4773,-0.5688,-0.6334,-0.7684,-0.9221,-1.1063,-1.2257,-1.3232,-1.4022,-1.47,-1.5261,-1.5724,-1.6473,-1.7419,-1.8265,-1.9004,-1.9646,-2.0019,-2.0473,-2.1006,-2.1553,-2.2176,-2.2969,-2.3937,-2.4454,-2.5031,-2.579,-2.6539,-2.736,3.9209,3.9209,3.9228,3.9228,3.9215,3.9135,3.9103,3.9122,3.9026,3.8849,3.8594,3.82,3.7951,3.7845,3.7951,3.7881,3.7721,3.7721,3.7649,3.7466,3.741,3.7297,3.7147,3.7164,3.7069,3.7027,3.7069,3.7069,3.7066,3.7066,3.7087,3.7167,3.7337,3.7374,3.7334,3.7297,3.7143,3.6811,3.6725,3.6602,3.6444,3.6602,3.6461,3.6105,3.6062,3.58,3.5228,3.4804,3.4184,3.3439,3.3071,3.2492,3.161,3.1073,3.0539,2.9851,2.9526,2.9387,2.956,3.0598,3.1567,3.2135,3.2624,3.3058,3.3503,3.4,3.4448,3.4883,3.5424,3.6071,3.6771,3.7571,3.8254,3.8658,3.6154,3.4841,3.4277,2.5292,1.8021,1.6447,0.9368,0.2887,0.0587,-0.1479,-0.3074,-0.4212,-0.5135,-0.5636,-0.6042,-0.7042,-0.8428,-1.0096,-1.1755,-1.2937,-1.3636,-1.4406,-1.4981,-1.5248,-1.6015,-1.6864,-1.7699,-1.8542,-1.9188,-1.9737,-2.0201,-2.0744,-2.1463,-2.1909,-2.2618,-2.359,-2.4013,-2.4444,-2.5464,-2.6373,-2.7278,4.1132,4.1083,4.1126,4.1188,4.1071,4.0959,4.0872,4.0891,4.0804,4.0775,4.0489,3.9057,3.834,3.8256,3.8292,3.8207,3.8052,3.7951,3.781,3.7685,3.7613,3.7466,3.7279,3.7297,3.7182,3.7027,3.7069,3.7091,3.7108,3.722,3.7279,3.7337,3.7374,3.7374,3.7374,3.7334,3.7143,3.6829,3.6742,3.6602,3.6343,3.6444,3.6444,3.6301,3.6208,3.5993,3.5549,3.4961,3.4497,3.405,3.3398,3.2866,3.2287,3.145,3.0763,3.0251,2.9699,2.9574,3.019,3.0925,3.1567,3.215,3.2679,3.3128,3.355,3.4032,3.4513,3.5013,3.552,3.6165,3.6788,3.8055,3.924,4.0037,4.0255,4.1259,4.0307,3.1128,2.315,2.2361,1.1156,0.1965,0.0099,-0.2004,-0.3714,-0.5131,-0.5436,-0.5737,-0.6039,-0.6839,-0.7736,-0.9019,-1.0596,-1.2068,-1.305,-1.3823,-1.4496,-1.5077,-1.573,-1.648,-1.7232,-1.7971,-1.8703,-1.9271,-1.9828,-2.0292,-2.1024,-2.1482,-2.1919,-2.2969,-2.3396,-2.3744,-2.4935,-2.5946,-2.6869,4.1679,4.1593,4.164,4.1659,4.163,4.1542,4.1464,4.1422,4.1348,4.1222,4.1005,4.0299,3.9652,3.9016,3.9046,3.8692,3.8052,3.8018,3.7898,3.7703,3.7613,3.7503,3.7372,3.7372,3.7279,3.7182,3.7241,3.7261,3.7317,3.7429,3.7447,3.7411,3.7374,3.7374,3.7392,3.7203,3.7027,3.6829,3.6684,3.6502,3.636,3.6444,3.6444,3.6318,3.6233,3.5993,3.5622,3.5088,3.4611,3.4101,3.3591,3.3065,3.2453,3.1736,3.1102,3.0464,2.9993,3.0054,3.0673,3.1248,3.1823,3.2382,3.3349,3.407,3.4526,3.5429,3.6272,3.673,3.6802,3.724,3.8382,3.9427,4.0291,4.1007,4.1694,4.2532,4.3363,3.608,2.9152,2.3585,1.4646,0.5719,0.0098,-0.3119,-0.4632,-0.5639,-0.5839,-0.5939,-0.6042,-0.6836,-0.7733,-0.8528,-0.9916,-1.1389,-1.2662,-1.3534,-1.4208,-1.4783,-1.535,-1.6001,-1.6567,-1.7412,-1.8149,-1.8804,-1.918,-1.9828,-2.0736,-2.1006,-2.1275,-2.2334,-2.3387,-2.3993,-2.4509,-2.5454,-2.629,4.2648,4.2566,4.2539,4.253,4.253,4.2473,4.2406,4.2289,4.2217,4.2013,4.1787,4.1739,4.1147,4.0213,3.9974,3.9418,3.8757,3.8703,3.8563,3.833,3.806,3.7879,3.7731,3.7463,3.7354,3.7334,3.7354,3.7429,3.7466,3.7503,3.7503,3.7411,3.7392,3.7337,3.7317,3.7087,3.6891,3.6708,3.6544,3.6343,3.6259,3.6318,3.6318,3.6276,3.6208,3.5993,3.5577,3.5118,3.4643,3.4184,3.3761,3.324,3.2633,3.2104,3.1407,3.0718,3.0478,3.0746,3.1397,3.1908,3.2568,3.3341,3.4374,3.5182,3.5768,3.6804,3.7838,3.8653,3.8684,3.9195,3.9761,4.0739,4.149,4.2061,4.2688,4.3519,4.4023,3.9159,3.193,2.3926,1.5987,0.8196,-0.0672,-0.4528,-0.5842,-0.6142,-0.6139,-0.6142,-0.6142,-0.6836,-0.7534,-0.8131,-0.932,-1.0699,-1.2175,-1.3055,-1.3727,-1.4304,-1.4771,-1.5242,-1.5812,-1.6655,-1.7404,-1.787,-1.8434,-1.918,-1.9911,-2.0275,-2.0727,-2.1891,-2.295,-2.3734,-2.4003,-2.4946,-2.5538,4.4546,4.4428,4.4383,4.4233,4.4252,4.4195,4.4165,4.3904,4.3775,4.3634,4.3376,4.3279,4.2703,4.1705,4.1015,4.0562,4.0329,4.0113,3.9947,3.9799,3.9095,3.8716,3.8496,3.7802,3.7408,3.7529,3.7623,3.7609,3.7648,3.7502,3.7429,3.7374,3.7317,3.7241,3.7108,3.7009,3.6829,3.6527,3.6402,3.6216,3.6062,3.6019,3.6122,3.6234,3.6165,3.5932,3.5424,3.5071,3.4707,3.43,3.3745,3.3361,3.3058,3.2435,3.173,3.0999,3.1161,3.1633,3.245,3.3181,3.4036,3.5063,3.577,3.6279,3.6901,3.7776,3.8842,4.0087,4.0991,4.1265,4.0928,4.1946,4.2837,4.3392,4.4421,4.5115,4.5376,4.0212,3.1855,2.2902,1.4172,0.5165,-0.443,-0.6337,-0.6642,-0.6742,-0.6539,-0.6437,-0.6439,-0.6739,-0.7238,-0.7829,-0.8916,-1.01,-1.1385,-1.2365,-1.3044,-1.3522,-1.41,-1.458,-1.5153,-1.5724,-1.6379,-1.6943,-1.7606,-1.8257,-1.8996,-1.9637,-2.0275,-2.1177,-2.2167,-2.2872,-2.3309,-2.4262,-2.4861,4.484,4.4719,4.4659,4.4578,4.4524,4.4468,4.4401,4.4274,4.4055,4.3846,4.3597,4.341,4.3068,4.265,4.2267,4.1432,4.0474,4.0347,4.0292,4.0217,3.9924,3.9687,3.9506,3.9238,3.9055,3.894,3.8943,3.8732,3.8267,3.8176,3.7816,3.7276,3.7126,3.7066,3.6891,3.6748,3.6568,3.6402,3.6293,3.6165,3.6053,3.6036,3.618,3.6597,3.6082,3.5667,3.5367,3.4883,3.4497,3.4201,3.3642,3.3514,3.3701,3.3433,3.3154,3.2901,3.3049,3.3376,3.3925,3.4642,3.5291,3.5975,3.7052,3.7902,3.8548,3.964,4.0863,4.18,4.2702,4.3164,4.3429,4.3837,4.4278,4.4688,4.5228,4.5638,4.5397,4.3275,3.6651,2.2058,0.8282,-0.3007,-0.494,-0.7329,-0.7338,-0.7238,-0.7036,-0.6936,-0.6939,-0.7241,-0.7736,-0.8134,-0.8924,-0.9817,-1.0413,-1.1585,-1.2462,-1.3039,-1.3522,-1.3908,-1.4478,-1.5153,-1.5717,-1.6001,-1.6567,-1.7419,-1.8156,-1.918,-1.982,-2.0374,-2.1365,-2.2176,-2.2539,-2.3484,-2.4003,4.4943,4.4846,4.477,4.4685,4.4578,4.4542,4.4383,4.4207,4.4055,4.3814,4.3563,4.3391,4.3251,4.3104,4.2955,4.2318,4.1214,4.1141,4.1067,4.0915,4.0733,4.0551,4.0405,4.0211,3.9971,3.9815,3.9815,3.9473,3.9008,3.8915,3.8553,3.7919,3.7805,3.7562,3.7248,3.7015,3.6849,3.668,3.6612,3.6585,3.6703,3.6771,3.6949,3.7189,3.6695,3.6211,3.5994,3.5563,3.5151,3.4848,3.4329,3.4139,3.4295,3.4198,3.4164,3.4208,3.434,3.474,3.5331,3.5967,3.661,3.7298,3.8403,3.9357,3.9991,4.1286,4.2361,4.3114,4.3877,4.4598,4.4963,4.5121,4.5244,4.5463,4.5635,4.5739,4.5704,4.5688,3.8648,2.5123,0.8503,-0.1626,-0.4436,-0.6557,-0.7786,-0.8028,-0.7733,-0.7637,-0.7637,-0.7935,-0.8333,-0.8627,-0.9126,-0.9624,-1.0019,-1.0806,-1.1585,-1.217,-1.2851,-1.3329,-1.3811,-1.4478,-1.4867,-1.5057,-1.5629,-1.6473,-1.7505,-1.8535,-1.9279,-1.9745,-2.0564,-2.1374,-2.1998,-2.2706,-2.3222,4.4991,4.4986,4.4846,4.4712,4.4578,4.4496,4.4296,4.4036,4.3929,4.3716,4.3532,4.3411,4.3269,4.3104,4.303,4.2882,4.2546,4.2397,4.2279,4.2083,4.1669,4.1325,4.1114,4.062,4.0256,4.002,3.978,3.9686,3.9633,3.9552,3.94,3.9359,3.9135,3.8643,3.8,3.784,3.7731,3.7517,3.7386,3.7624,3.8208,3.814,3.8174,3.8265,3.801,3.7756,3.7517,3.7053,3.653,3.632,3.5786,3.5291,3.4852,3.4759,3.467,3.4891,3.4945,3.5571,3.6581,3.7219,3.8077,3.8949,3.9834,4.0487,4.1227,4.2167,4.3047,4.3807,4.4513,4.5117,4.541,4.5525,4.557,4.5616,4.562,4.5557,4.5475,4.5075,4.1705,3.06,1.5244,0.5482,0.2434,-0.2533,-0.6997,-0.8364,-0.8627,-0.8528,-0.8531,-0.8829,-0.9023,-0.9221,-0.9616,-0.9916,-0.992,-0.9924,-1.0511,-1.1198,-1.198,-1.2657,-1.3044,-1.3619,-1.4004,-1.4292,-1.5057,-1.5906,-1.6951,-1.7978,-1.8627,-1.9279,-2.0011,-2.0744,-2.1463,-2.2078,-2.253,4.5103,4.4986,4.4796,4.464,4.4496,4.4288,4.4109,4.3974,4.3781,4.3649,4.3548,4.3358,4.3196,4.3049,4.286,4.2649,4.245,4.2409,4.2409,4.2436,4.2279,4.2131,4.1998,4.1743,4.1533,4.1345,4.1262,4.0901,4.0376,4.0162,3.9831,3.9308,3.9153,3.8988,3.8719,3.8659,3.8556,3.8408,3.8364,3.8415,3.8532,3.8504,3.8763,3.9105,3.8999,3.8965,3.9193,3.7752,3.6795,3.6568,3.6023,3.5721,3.5812,3.624,3.6476,3.6476,3.6869,3.7278,3.777,3.8537,3.9187,3.9851,4.0546,4.1331,4.2055,4.2904,4.3713,4.4473,4.5095,4.549,4.5581,4.5501,4.5403,4.5395,4.5263,4.5093,4.4302,3.96,3.4335,3.0538,2.0296,1.1116,0.4949,-0.0086,-0.3253,-0.843,-0.9469,-0.9719,-0.962,-0.9912,-1.0212,-1.031,-1.0408,-1.0408,-1.0413,-1.0413,-1.0609,-1.1002,-1.1683,-1.2175,-1.2559,-1.2948,-1.3238,-1.3811,-1.458,-1.5439,-1.648,-1.7326,-1.7978,-1.8727,-1.9463,-2.0192,-2.0826,-2.1454,-2.19,4.5061,4.4919,4.4693,4.4505,4.4364,4.4109,4.3955,4.3828,4.3682,4.3582,4.3497,4.3358,4.3178,4.2994,4.2747,4.2512,4.2287,4.2187,4.2205,4.2328,4.2468,4.2422,4.2282,4.2121,4.2012,4.1902,4.1754,4.1464,4.0902,4.0745,4.0429,3.994,3.9887,3.9748,3.9521,3.9486,3.9443,3.9382,3.9382,3.9442,3.9517,3.9631,3.9783,4.0095,4.0006,4.0038,4.0119,3.8891,3.7983,3.7636,3.7178,3.7005,3.7116,3.7456,3.7695,3.7828,3.8026,3.8367,3.8717,3.9348,3.9952,4.0417,4.1082,4.1888,4.2607,4.3472,4.4229,4.4939,4.5417,4.5659,4.5581,4.5279,4.501,4.4729,4.4607,4.4428,4.3295,3.8978,3.5883,3.3862,2.7214,1.9474,1.4536,0.4772,0.1498,-0.4956,-0.8925,-1.1091,-1.0993,-1.1194,-1.1389,-1.1389,-1.1292,-1.1292,-1.11,-1.1002,-1.0801,-1.1096,-1.1487,-1.1878,-1.2268,-1.2565,-1.2953,-1.3715,-1.4484,-1.5159,-1.6109,-1.6763,-1.7419,-1.8164,-1.9004,-1.9737,-2.0464,-2.0925,-2.1365,4.4962,4.4846,4.4532,4.4335,4.4181,4.4023,4.3832,4.3649,4.3615,4.3532,4.3411,4.334,4.3196,4.29,4.2691,4.2472,4.2228,4.1977,4.1805,4.1849,4.2037,4.2097,4.1987,4.1797,4.1736,4.1736,4.1436,4.1328,4.1331,4.1241,4.1209,4.1063,4.1101,4.1059,4.0482,4.0359,4.0359,4.0403,4.0386,4.0656,4.1108,4.1258,4.1185,4.1053,4.0896,4.0707,4.0434,4.0118,3.9851,3.9504,3.8896,3.8608,3.8535,3.8343,3.8343,3.8511,3.8639,3.8952,3.9382,3.9764,4.0271,4.0931,4.149,4.2162,4.3086,4.3841,4.4592,4.5244,4.5597,4.5699,4.5434,4.4975,4.4386,4.3726,4.3651,4.356,4.3191,4.2541,4.1483,4.062,3.5487,2.9422,2.7023,1.3631,0.6136,-0.051,-0.6042,-0.9267,-1.2646,-1.2743,-1.2657,-1.2559,-1.2365,-1.1975,-1.1688,-1.1296,-1.1096,-1.1194,-1.1487,-1.1878,-1.217,-1.2565,-1.305,-1.3817,-1.4292,-1.4968,-1.573,-1.6581,-1.7239,-1.7986,-1.8727,-1.9463,-2.0019,-2.0564,-2.1015,4.487,4.4659,4.4468,4.4325,4.4177,4.3961,4.3869,4.3719,4.3671,4.3642,4.3431,4.3251,4.3102,4.2688,4.2427,4.2103,4.1894,4.1666,4.1436,4.1408,4.1436,4.1587,4.1692,4.1736,4.1692,4.1648,4.1542,4.1515,4.1515,4.1408,4.1318,4.1363,4.1363,4.1338,4.1128,4.1165,4.1306,4.1393,4.1393,4.149,4.1683,4.1692,4.156,4.1335,4.118,4.0948,4.0697,4.0534,4.0238,3.9849,3.959,3.9345,3.9115,3.892,3.8882,3.8952,3.9148,3.9451,3.9817,4.0154,4.071,4.1363,4.1924,4.26,4.3498,4.4194,4.488,4.5447,4.5714,4.566,4.5253,4.4633,4.3695,4.2569,4.2549,4.2567,4.2132,4.2167,4.2289,4.1759,3.9703,3.5571,2.954,2.3571,1.4825,0.44,-0.1978,-0.6418,-1.0334,-1.4076,-1.398,-1.3619,-1.3329,-1.2754,-1.2273,-1.1688,-1.1394,-1.1292,-1.1585,-1.2073,-1.237,-1.2759,-1.3437,-1.4304,-1.4496,-1.507,-1.5927,-1.6777,-1.7434,-1.79,-1.8727,-1.9371,-1.9928,-2.0382,-2.0736,4.5221,4.5059,4.5204,4.5221,4.5146,4.4934,4.4835,4.482,4.4718,4.4507,4.4309,4.4143,4.3837,4.3417,4.3166,4.2926,4.2642,4.21,4.1869,4.1736,4.1475,4.1426,4.1515,4.1604,4.1648,4.1648,4.156,4.1604,4.1648,4.156,4.1471,4.1426,4.1471,4.1471,4.1391,4.1604,4.1719,4.1849,4.1952,4.2037,4.2097,4.2012,4.178,4.1498,4.1318,4.1088,4.0823,4.0728,4.0485,4.0188,4.0037,3.9884,3.9696,3.9592,3.954,3.9504,3.9729,3.9969,4.0319,4.0628,4.1117,4.177,4.2338,4.3032,4.3782,4.448,4.5127,4.559,4.5722,4.5546,4.5026,4.4116,4.2832,4.1664,4.1455,4.1437,4.1076,4.1133,4.1115,4.1018,4.0683,3.9495,3.2921,2.9721,2.2138,1.2729,0.4625,-0.1532,-0.7678,-1.1739,-1.4432,-1.3394,-1.3646,-1.3329,-1.2559,-1.2073,-1.159,-1.1487,-1.1683,-1.2175,-1.2662,-1.2953,-1.363,-1.4304,-1.4598,-1.5166,-1.6021,-1.6777,-1.7347,-1.7994,-1.8727,-1.9371,-1.9928,-2.0201,-2.0555,4.5848,4.5758,4.6275,4.6494,4.642,4.6289,4.6073,4.6149,4.5987,4.5773,4.5439,4.5358,4.4818,4.4581,4.4085,4.412,4.3909,4.2993,4.2771,4.2428,4.1992,4.1653,4.1716,4.1568,4.1622,4.1736,4.156,4.1648,4.178,4.1719,4.1604,4.1604,4.1631,4.1587,4.1587,4.1736,4.1849,4.2002,4.2205,4.2328,4.2369,4.2228,4.1959,4.1675,4.1335,4.1088,4.0918,4.0871,4.0793,4.0534,4.0436,4.0355,4.0337,4.0238,4.0171,4.0171,4.0271,4.05,4.0866,4.1146,4.1578,4.2257,4.2752,4.3369,4.4071,4.4734,4.526,4.5655,4.5716,4.5412,4.4641,4.3393,4.2119,4.1094,4.0594,4.0302,4.0136,4.0069,3.9902,3.9545,3.9529,3.9343,3.7118,3.2516,2.5882,1.8944,1.2043,0.6517,-0.1013,-0.7245,-1.0008,-1.1451,-1.2267,-1.3806,-1.3039,-1.2365,-1.1975,-1.1688,-1.1883,-1.2273,-1.2856,-1.3346,-1.3823,-1.4304,-1.4694,-1.5261,-1.5825,-1.6581,-1.734,-1.8087,-1.8912,-1.9554,-2.0011,-2.011,-2.0283,4.6513,4.6427,4.6512,4.6559,4.6494,4.6442,4.6379,4.626,4.6207,4.6049,4.5544,4.5309,4.4977,4.4485,4.4304,4.3933,4.3933,4.361,4.3411,4.3306,4.2655,4.2433,4.2349,4.2035,4.1771,4.1823,4.1841,4.1927,4.1977,4.2019,4.1977,4.1995,4.1977,4.1934,4.1831,4.1977,4.2127,4.2274,4.2472,4.2649,4.2709,4.2494,4.221,4.1934,4.1426,4.1076,4.0918,4.0871,4.0871,4.0823,4.0793,4.0745,4.0728,4.0728,4.0728,4.0728,4.0806,4.1053,4.1445,4.1692,4.2074,4.2734,4.3141,4.3638,4.4346,4.4887,4.5322,4.563,4.5724,4.5233,4.407,4.285,4.1715,4.0797,4.0053,3.9332,3.8794,3.8712,3.857,3.8076,3.763,3.7261,3.7112,3.5836,3.0263,2.4345,1.9596,1.4836,0.7224,-0.1099,-0.4851,-0.7018,-0.9802,-1.1162,-1.2651,-1.1975,-1.1585,-1.1487,-1.178,-1.2273,-1.2759,-1.3437,-1.3823,-1.44,-1.4885,-1.5452,-1.6015,-1.685,-1.7707,-1.8357,-1.9012,-1.9563,-1.9928,-2.0019,-1.9928,4.721,4.7155,4.7527,4.7642,4.7627,4.7608,4.7559,4.742,4.7314,4.6984,4.6521,4.6254,4.5871,4.5425,4.5164,4.504,4.4791,4.4463,4.4065,4.378,4.3355,4.3278,4.324,4.2803,4.2359,4.2143,4.2097,4.2205,4.231,4.2391,4.2391,4.2351,4.2391,4.2333,4.2251,4.2333,4.2476,4.2655,4.2806,4.2975,4.3032,4.2806,4.2374,4.1977,4.1471,4.1123,4.0982,4.0918,4.0918,4.0918,4.1012,4.1012,4.1029,4.1076,4.1169,4.1152,4.1255,4.149,4.1864,4.2157,4.2577,4.3178,4.3526,4.4046,4.4606,4.5107,4.546,4.5694,4.5626,4.5089,4.3633,4.2607,4.156,4.0429,3.9577,3.8613,3.7764,3.7557,3.7377,3.6628,3.5966,3.5431,3.516,3.51,3.4248,2.8183,2.832,2.3663,1.6403,0.8363,0.1549,-0.1958,-0.5606,-0.846,-1.1042,-1.1487,-1.09,-1.09,-1.1194,-1.178,-1.2467,-1.3141,-1.3817,-1.44,-1.5077,-1.5642,-1.6298,-1.7232,-1.7978,-1.8542,-1.9104,-1.9571,-1.9845,-1.9928,-1.9745,4.7936,4.7924,4.863,4.889,4.889,4.8853,4.8746,4.866,4.8532,4.7988,4.7752,4.7414,4.6802,4.6613,4.6371,4.6332,4.6059,4.5638,4.5022,4.4583,4.4267,4.4237,4.418,4.3775,4.3309,4.2744,4.2476,4.2508,4.2649,4.2765,4.2786,4.2747,4.275,4.275,4.2729,4.2788,4.2921,4.3051,4.3196,4.3321,4.3338,4.3105,4.2595,4.1959,4.1587,4.129,4.1169,4.1059,4.0965,4.0965,4.1134,4.118,4.1215,4.1353,4.1471,4.1515,4.1657,4.1924,4.2257,4.2616,4.2995,4.3566,4.3923,4.4374,4.4872,4.5246,4.5577,4.5646,4.5531,4.4863,4.3467,4.2472,4.1367,4.0184,3.9176,3.8003,3.6888,3.6492,3.5821,3.515,3.4316,3.3693,3.3142,3.2905,3.2933,3.2961,3.3179,3.1399,2.381,1.6697,0.9237,0.2739,-0.1273,-0.6369,-0.9381,-1.06,-1.0109,-1.0408,-1.0703,-1.1389,-1.217,-1.3141,-1.3913,-1.4688,-1.5363,-1.6021,-1.6676,-1.7426,-1.8079,-1.8735,-1.9204,-1.9579,-1.9762,-1.9845,-1.9563,4.8686,4.8723,4.8853,4.889,4.889,4.889,4.8768,4.8532,4.8401,4.8032,4.7578,4.7258,4.6989,4.6778,4.6637,4.6495,4.6328,4.6164,4.6076,4.5729,4.5423,4.528,4.524,4.4733,4.451,4.4268,4.3592,4.3003,4.2991,4.3013,4.3105,4.316,4.3196,4.316,4.3196,4.3249,4.3355,4.3474,4.3579,4.3664,4.3664,4.3373,4.2884,4.2216,4.1831,4.1587,4.138,4.1226,4.1163,4.1163,4.1255,4.1335,4.1426,4.1604,4.1754,4.1884,4.2061,4.2292,4.2595,4.2958,4.3408,4.386,4.4229,4.4584,4.5007,4.5361,4.5638,4.5566,4.5215,4.4455,4.3569,4.2397,4.1181,3.9985,3.8712,3.7424,3.6151,3.505,3.4172,3.3338,3.2664,3.1874,3.1336,3.0803,3.0664,3.066,3.0698,3.0817,2.7109,2.0837,1.4636,0.8491,0.3,-0.2653,-0.7858,-0.8795,-0.9122,-0.9817,-1.0212,-1.1096,-1.197,-1.3136,-1.4004,-1.4873,-1.5635,-1.6292,-1.6951,-1.7707,-1.8172,-1.8735,-1.9212,-1.9587,-1.9579,-1.9571,-1.9471,4.889,4.889,4.889,4.889,4.8909,4.8839,4.8715,4.8513,4.8247,4.7911,4.7493,4.7187,4.6962,4.6795,4.6637,4.6525,4.6542,4.6542,4.659,4.6418,4.6236,4.6152,4.6211,4.5676,4.569,4.554,4.4867,4.4088,4.3761,4.3504,4.3518,4.3461,4.3513,4.3582,4.3631,4.3679,4.3758,4.3886,4.3968,4.3986,4.3974,4.3545,4.3032,4.2616,4.2192,4.1874,4.1648,4.1408,4.1272,4.1255,4.1318,4.1471,4.1604,4.178,4.1995,4.2097,4.2346,4.2609,4.2882,4.325,4.3612,4.3999,4.4374,4.4764,4.5156,4.5472,4.5648,4.5514,4.5051,4.4259,4.3358,4.2221,4.0937,3.9614,3.8325,3.6857,3.528,3.3833,3.265,3.1642,3.0917,3.0164,2.9332,2.8863,2.8548,2.8445,2.8397,2.8246,2.824,2.3787,1.7741,1.08,0.4467,-0.1246,-0.6176,-0.7505,-0.8524,-0.9126,-0.9916,-1.0703,-1.1775,-1.2942,-1.41,-1.5064,-1.5818,-1.648,-1.7145,-1.7807,-1.8272,-1.8735,-1.9012,-1.9296,-1.9396,-1.9296,-1.9288,4.889,4.889,4.889,4.889,4.889,4.8804,4.8642,4.8401,4.8072,4.7747,4.7425,4.716,4.6934,4.6842,4.6731,4.6684,4.6655,4.6684,4.6684,4.6619,4.6695,4.6852,4.6838,4.6762,4.6644,4.6819,4.6341,4.5718,4.4948,4.4538,4.4147,4.4085,4.4096,4.4027,4.4016,4.4036,4.417,4.424,4.4269,4.421,4.3999,4.3646,4.3267,4.2976,4.2577,4.2234,4.1977,4.1675,4.1498,4.1408,4.1408,4.156,4.1823,4.1977,4.2145,4.2269,4.2512,4.2804,4.3105,4.3479,4.3809,4.4181,4.4541,4.4915,4.5266,4.5548,4.5699,4.5515,4.4995,4.4194,4.3201,4.2042,4.0753,3.9304,3.7882,3.6399,3.4596,3.2961,3.1222,3.0227,2.9356,2.8573,2.7695,2.7116,2.6778,2.6345,2.63,2.5616,2.5456,2.4525,1.8966,1.1553,0.5072,-0.0586,-0.4593,-0.6617,-0.7627,-0.8726,-0.962,-1.0507,-1.158,-1.2748,-1.3902,-1.4962,-1.592,-1.6676,-1.7246,-1.7807,-1.8179,-1.855,-1.8819,-1.892,-1.8928,-1.9128,-1.9128,4.889,4.889,4.889,4.889,4.8855,4.8822,4.8532,4.8153,4.7915,4.7603,4.7241,4.7088,4.698,4.6934,4.6934,4.6888,4.6842,4.6842,4.6842,4.6778,4.698,4.716,4.7302,4.753,4.7579,4.7748,4.7408,4.6726,4.6153,4.5944,4.5512,4.5082,4.5032,4.4929,4.4431,4.4512,4.4468,4.4524,4.4496,4.4325,4.4067,4.3814,4.3548,4.3232,4.2939,4.2634,4.2292,4.2002,4.1762,4.1692,4.1604,4.1692,4.1892,4.2002,4.2292,4.2573,4.2806,4.2975,4.3232,4.3615,4.3968,4.4308,4.4726,4.5094,4.5447,4.5682,4.579,4.5577,4.5039,4.4202,4.3149,4.1925,4.0625,3.908,3.7536,3.5887,3.4143,3.2225,3.0416,2.8567,2.7671,2.6964,2.6163,2.5579,2.4999,2.4563,2.4039,2.3501,2.2378,2.1219,1.8889,1.1268,0.5835,0.0396,-0.32,-0.5218,-0.693,-0.8131,-0.932,-1.0408,-1.1482,-1.2651,-1.3613,-1.4771,-1.5724,-1.6581,-1.7052,-1.7613,-1.7994,-1.8272,-1.8365,-1.8465,-1.8574,-1.8767,-1.9144,4.889,4.889,4.889,4.8874,4.8822,4.8679,4.8401,4.8053,4.7728,4.745,4.7223,4.7043,4.6998,4.6998,4.6998,4.698,4.6952,4.6998,4.698,4.6962,4.716,4.7338,4.7597,4.787,4.8169,4.8328,4.8292,4.8159,4.7546,4.6802,4.6168,4.5997,4.5964,4.5736,4.5121,4.52,4.5009,4.481,4.4578,4.4383,4.4177,4.3979,4.3734,4.3495,4.3196,4.2882,4.2534,4.2169,4.1934,4.1823,4.1736,4.1823,4.2019,4.2228,4.2512,4.2768,4.3068,4.3251,4.341,4.3767,4.4091,4.4402,4.4833,4.5237,4.5634,4.585,4.5858,4.5601,4.4979,4.4139,4.3061,4.1825,4.0384,3.8867,3.7302,3.5334,3.3571,3.1621,2.9796,2.7853,2.6047,2.54,2.4734,2.4125,2.3531,2.3086,2.2356,2.1355,1.9488,1.732,1.4346,1.0136,0.564,0.1497,-0.1602,-0.4019,-0.6129,-0.7531,-0.9217,-1.0301,-1.1385,-1.2554,-1.3522,-1.4484,-1.5445,-1.6204,-1.6763,-1.7239,-1.7621,-1.7714,-1.7908,-1.8001,-1.8195,-1.8968,-1.9437,4.889,4.889,4.8892,4.882,4.8731,4.8513,4.8247,4.7915,4.7603,4.7338,4.7178,4.7043,4.6998,4.6998,4.6998,4.698,4.6998,4.6998,4.7043,4.7116,4.7294,4.7493,4.7806,4.8108,4.8419,4.8642,4.8658,4.8691,4.841,4.7831,4.7163,4.681,4.6954,4.6595,4.6157,4.5865,4.5583,4.482,4.4597,4.443,4.4285,4.4055,4.3846,4.3631,4.3391,4.3087,4.2709,4.2351,4.2103,4.1952,4.1884,4.1952,4.2187,4.2432,4.2729,4.2995,4.3268,4.3463,4.3615,4.386,4.4151,4.4511,4.4947,4.5475,4.5824,4.5976,4.5917,4.5635,4.5046,4.4148,4.3025,4.1825,4.0401,3.8851,3.72,3.5061,3.3017,3.1209,2.9257,2.7221,2.5462,2.3963,2.3377,2.2668,2.2138,2.1695,2.0692,1.948,1.7216,1.4582,1.1961,0.8758,0.5778,0.2302,-0.0301,-0.2813,-0.492,-0.683,-0.8517,-0.9903,-1.0886,-1.2063,-1.3232,-1.4196,-1.4968,-1.5452,-1.5927,-1.6581,-1.7145,-1.7246,-1.734,-1.7628,-1.8009,-1.8783,-1.9812,4.889,4.889,4.8822,4.8711,4.8581,4.8345,4.8035,4.7679,4.7457,4.7187,4.7043,4.698,4.6998,4.6998,4.6998,4.6998,4.6998,4.6998,4.7088,4.7223,4.7381,4.7663,4.7992,4.8286,4.8569,4.8751,4.8839,4.8874,4.8872,4.8649,4.8091,4.7772,4.7858,4.7503,4.7033,4.6547,4.5906,4.5193,4.4821,4.4533,4.4352,4.4116,4.3961,4.3832,4.3634,4.3339,4.2976,4.2573,4.2269,4.2061,4.2012,4.2097,4.2351,4.2573,4.2864,4.3214,4.3444,4.3667,4.3832,4.3986,4.4288,4.472,4.5225,4.5658,4.5938,4.6045,4.5942,4.5661,4.5128,4.4327,4.3192,4.1976,4.0526,3.8904,3.7152,3.5155,3.3073,3.0926,2.8959,2.6755,2.5052,2.3627,2.2422,2.1891,2.1159,2.0718,1.8932,1.7639,1.5549,1.308,1.084,0.8188,0.5797,0.3006,0.0703,-0.1707,-0.3919,-0.5824,-0.7518,-0.881,-1.0002,-1.1272,-1.2651,-1.3426,-1.41,-1.4592,-1.5077,-1.573,-1.6298,-1.6581,-1.677,-1.7145,-1.7978,-1.892,-2.0053,4.8855,4.8804,4.8679,4.855,4.8384,4.8075,4.7752,4.7482,4.7302,4.716,4.6998,4.6998,4.6998,4.6998,4.6998,4.6998,4.6998,4.7106,4.7178,4.7381,4.7621,4.7911,4.8229,4.8476,4.8769,4.8839,4.8909,4.889,4.889,4.889,4.885,4.8654,4.8688,4.842,4.791,4.734,4.6575,4.5849,4.5364,4.504,4.4333,4.4116,4.3974,4.3915,4.3634,4.3339,4.2995,4.2595,4.2333,4.2145,4.2079,4.2246,4.253,4.2768,4.305,4.341,4.3634,4.3786,4.3929,4.4091,4.4402,4.4947,4.5433,4.5808,4.6057,4.6085,4.5961,4.5626,4.5321,4.4669,4.3383,4.2074,4.0619,3.8941,3.7164,3.5205,3.3128,3.1,2.8814,2.6685,2.4957,2.3367,2.2236,2.1186,2.0456,1.972,1.7755,1.5778,1.3872,1.2047,1.0083,0.8308,0.5912,0.3812,0.1508,-0.0804,-0.3118,-0.472,-0.642,-0.7816,-0.911,-1.06,-1.1878,-1.2651,-1.3329,-1.3817,-1.4394,-1.4968,-1.5445,-1.5825,-1.6292,-1.6669,-1.7684,-1.888,-2.0019,4.8839,4.8787,4.8532,4.8343,4.8169,4.7852,4.7536,4.7267,4.7178,4.7088,4.6998,4.6998,4.6998,4.6998,4.6998,4.7043,4.7088,4.7133,4.7312,4.7493,4.7788,4.8111,4.8382,4.8624,4.8822,4.8874,4.889,4.889,4.889,4.889,4.894,4.9075,4.9257,4.8995,4.8843,4.827,4.7552,4.674,4.601,4.5547,4.4736,4.4258,4.4005,4.3929,4.3667,4.3375,4.3032,4.2691,4.2391,4.2269,4.2246,4.2369,4.2631,4.2938,4.3214,4.3479,4.3753,4.3883,4.4023,4.4258,4.4617,4.5161,4.5503,4.5924,4.628,4.6463,4.656,4.6689,4.6109,4.5281,4.4124,4.294,4.1609,4.0093,3.7424,3.5379,3.3198,3.1014,2.8778,2.6603,2.4946,2.328,2.1872,2.0727,1.9347,1.8419,1.6821,1.5032,1.3312,1.157,1.0096,0.8212,0.642,0.4418,0.2413,0.0302,-0.1811,-0.3422,-0.5125,-0.6822,-0.8315,-0.9805,-1.0998,-1.1873,-1.2554,-1.3136,-1.3619,-1.4106,-1.4682,-1.5356,-1.5825,-1.6292,-1.7217,-1.8326,-1.9538,4.8839,4.8751,4.8438,4.8187,4.7984,4.7657,4.7374,4.7178,4.7079,4.6998,4.6998,4.6998,4.6998,4.6998,4.6998,4.7088,4.7196,4.7241,4.7399,4.7681,4.7951,4.8208,4.8476,4.8715,4.8839,4.8855,4.889,4.889,4.889,4.889,4.9012,4.9211,4.9352,4.951,4.9674,4.9245,4.8457,4.7498,4.6542,4.6064,4.5319,4.4673,4.4327,4.3942,4.3682,4.341,4.3142,4.2806,4.2512,4.2351,4.2427,4.2606,4.2822,4.3105,4.3391,4.3615,4.3846,4.4023,4.4195,4.4542,4.5014,4.5475,4.588,4.6338,4.7097,4.7425,4.7507,4.7608,4.7473,4.689,4.5693,4.4227,4.2717,4.0809,3.8131,3.5608,3.352,3.1088,2.879,2.6767,2.4957,2.328,2.1686,2.0175,1.8511,1.7109,1.5697,1.4178,1.2748,1.1482,1.0105,0.8517,0.6825,0.5125,0.3219,0.1309,-0.0604,-0.2116,-0.3825,-0.5724,-0.7223,-0.8612,-0.9801,-1.089,-1.158,-1.2068,-1.2657,-1.3147,-1.3727,-1.4394,-1.535,-1.6008,-1.6936,-1.787,-1.898,4.8769,4.8569,4.8343,4.8028,4.7657,4.745,4.7267,4.7079,4.7015,4.6998,4.6998,4.6998,4.6998,4.7043,4.7106,4.7151,4.7241,4.7486,4.7699,4.7888,4.8169,4.8457,4.8679,4.8768,4.8855,4.889,4.889,4.889,4.889,4.8909,4.9012,4.9211,4.9566,4.9824,4.9948,4.9782,4.9387,4.8492,4.778,4.708,4.5761,4.517,4.4656,4.4061,4.3716,4.3479,4.3304,4.2957,4.2709,4.2552,4.2645,4.284,4.3049,4.3321,4.3548,4.3749,4.3974,4.4158,4.458,4.5096,4.5794,4.6166,4.6513,4.7062,4.8001,4.822,4.8357,4.8373,4.8238,4.75,4.6221,4.4871,4.3384,4.142,3.8932,3.636,3.3973,3.122,2.8814,2.6919,2.5136,2.2999,2.1248,1.9894,1.8234,1.6749,1.5425,1.419,1.2851,1.1683,1.0404,0.8916,0.7325,0.5627,0.3823,0.1913,0.0202,-0.1411,-0.3021,-0.4726,-0.6224,-0.7521,-0.8715,-0.9805,-1.0404,-1.1096,-1.1585,-1.217,-1.2662,-1.334,-1.4292,-1.5248,-1.6089,-1.7117,-1.8334,4.8679,4.8475,4.8265,4.7988,4.7554,4.7363,4.7187,4.7025,4.6998,4.6998,4.6998,4.6998,4.6998,4.7025,4.7133,4.7267,4.7312,4.7597,4.7888,4.8111,4.8382,4.8587,4.8751,4.8874,4.889,4.889,4.889,4.889,4.8909,4.8962,4.9131,4.9434,4.9769,5.0005,5.0139,5.0078,4.9945,4.9182,4.8609,4.7645,4.6467,4.5623,4.4929,4.4215,4.3781,4.3582,4.3356,4.3142,4.292,4.2824,4.288,4.3086,4.3286,4.3497,4.3719,4.3865,4.4085,4.4437,4.5114,4.5672,4.6488,4.7548,4.7529,4.8005,4.8818,4.9118,4.9318,4.9252,4.8829,4.8157,4.7236,4.5916,4.4064,4.2134,3.9622,3.6995,3.4016,3.1329,2.904,2.7126,2.5136,2.2979,2.0808,1.9521,1.8149,1.6749,1.5248,1.4004,1.2851,1.1683,1.0502,0.9015,0.7528,0.5829,0.4126,0.2416,0.0806,-0.0706,-0.2317,-0.3925,-0.5129,-0.6429,-0.7524,-0.8619,-0.9316,-1.001,-1.0605,-1.1194,-1.178,-1.2365,-1.3039,-1.4088,-1.5235,-1.6177,-1.721,4.8679,4.8475,4.8265,4.7988,4.7681,4.7407,4.7187,4.6998,4.6998,4.6998,4.6998,4.6998,4.7025,4.7043,4.7133,4.7312,4.7554,4.7728,4.8014,4.8267,4.8495,4.8697,4.8768,4.8874,4.889,4.889,4.889,4.889,4.8909,4.9064,4.9327,4.9663,4.9952,5.0133,5.0255,5.0264,5.0135,4.9727,4.9174,4.822,4.7154,4.6132,4.5258,4.4506,4.3994,4.3738,4.3532,4.3339,4.3178,4.3105,4.316,4.3322,4.3497,4.3686,4.3818,4.3961,4.4237,4.4871,4.5644,4.6193,4.7386,4.851,4.8752,4.9201,4.9654,5.0048,5.0186,5.0285,5.0061,4.9434,4.8634,4.6846,4.5035,4.2618,4.0112,3.721,3.4199,3.1655,2.9364,2.7323,2.5348,2.3163,2.0881,1.9347,1.7963,1.656,1.5146,1.3811,1.2559,1.158,1.0306,0.8821,0.7329,0.5932,0.4327,0.2619,0.131,-0.0202,-0.1613,-0.3123,-0.4329,-0.5432,-0.6528,-0.7528,-0.8326,-0.9023,-0.9813,-1.0408,-1.0904,-1.1482,-1.2068,-1.2937,-1.3992,-1.4758,-1.5609,4.8532,4.8344,4.8169,4.7929,4.7657,4.7407,4.7187,4.7043,4.6998,4.6998,4.6998,4.6998,4.7043,4.7133,4.7356,4.7468,4.7723,4.7951,4.8247,4.8476,4.8624,4.8768,4.8839,4.8855,4.889,4.889,4.889,4.889,4.8959,4.9146,4.9434,4.9778,5.0057,5.0231,5.0325,5.0348,5.0278,5.0106,4.9625,4.8796,4.7803,4.6749,4.5792,4.5003,4.4151,4.3892,4.3667,4.3548,4.3426,4.341,4.3444,4.3582,4.3686,4.3818,4.3915,4.4104,4.4418,4.4917,4.5892,4.69,4.8085,4.9351,4.9853,5.0429,5.0782,5.0844,5.0922,5.0884,5.0656,4.9892,4.8902,4.7305,4.5511,4.3259,4.0607,3.7601,3.4621,3.1911,2.9616,2.6772,2.4808,2.2726,2.0529,1.908,1.7785,1.6372,1.5045,1.3613,1.236,1.1287,1.0109,0.8623,0.7232,0.5834,0.4329,0.2621,0.1513,0.0303,-0.1109,-0.2319,-0.3425,-0.4529,-0.5632,-0.6631,-0.763,-0.8428,-0.9023,-0.962,-1.0015,-1.0413,-1.0998,-1.1873,-1.2646,-1.3511,-1.4094,4.8532,4.8363,4.8169,4.797,4.7723,4.7475,4.7276,4.7116,4.7043,4.6998,4.698,4.7025,4.7133,4.7232,4.7493,4.7705,4.7947,4.8229,4.8495,4.8642,4.8751,4.8839,4.8874,4.889,4.889,4.889,4.8909,4.8943,4.9046,4.9321,4.9644,4.9925,5.0163,5.0325,5.0416,5.0438,5.039,5.0231,4.9886,4.9239,4.8332,4.7267,4.6259,4.5356,4.4424,4.399,4.3851,4.3749,4.3701,4.3667,4.3716,4.3749,4.3883,4.3979,4.4104,4.4341,4.4881,4.5636,4.667,4.7818,4.8875,4.9826,5.0666,5.0965,5.115,5.116,5.1132,5.1054,5.0632,5.0026,4.8908,4.7618,4.5829,4.3934,4.1022,3.8087,3.5184,3.2306,2.9343,2.6263,2.3922,2.1933,2.0257,1.8896,1.7598,1.6278,1.4949,1.3516,1.2262,1.1091,0.9813,0.8329,0.7033,0.5636,0.413,0.2822,0.1715,0.0606,-0.0505,-0.1715,-0.2722,-0.3828,-0.5133,-0.6134,-0.7138,-0.7832,-0.8432,-0.873,-0.913,-0.9525,-1.0019,-1.0703,-1.158,-1.236,-1.284,4.8569,4.8494,4.8323,4.809,4.7811,4.7621,4.745,4.7302,4.7116,4.7043,4.7043,4.7116,4.7249,4.7432,4.7669,4.7951,4.8208,4.8476,4.8624,4.8805,4.8839,4.8909,4.8909,4.889,4.889,4.889,4.8943,4.8978,4.9197,4.9483,4.9816,5.0108,5.0302,5.0457,5.054,5.0521,5.0457,5.0348,5.0012,4.9484,4.8474,4.7372,4.6296,4.5467,4.4623,4.3974,4.3929,4.3897,4.3915,4.3897,4.3897,4.391,4.3992,4.4104,4.4244,4.4655,4.5245,4.624,4.7267,4.8422,4.9529,5.0359,5.0965,5.1144,5.1237,5.1281,5.1234,5.1054,5.0656,5.0,4.8952,4.7618,4.5935,4.3827,4.1199,3.8237,3.5288,3.1913,2.8209,2.5434,2.3424,2.1507,2.0076,1.8804,1.7512,1.6285,1.4854,1.342,1.2165,1.0895,0.9517,0.8131,0.6736,0.5436,0.413,0.2822,0.1817,0.0808,-0.0202,-0.1211,-0.232,-0.3426,-0.4634,-0.5737,-0.6739,-0.7241,-0.7739,-0.8137,-0.8535,-0.9031,-0.9426,-0.9821,-1.0408,-1.1292,-1.1683,4.8678,4.8587,4.8457,4.8304,4.809,4.7951,4.7705,4.7468,4.7276,4.7205,4.7178,4.7232,4.7432,4.771,4.7974,4.8208,4.8457,4.8606,4.8733,4.8822,4.8874,4.889,4.889,4.889,4.889,4.889,4.8943,4.9079,4.934,4.9644,4.9925,5.0163,5.0371,5.0521,5.0603,5.0582,5.0521,5.0457,5.0149,4.9784,4.9068,4.7733,4.6576,4.581,4.5045,4.4116,4.3992,4.3992,4.3992,4.3974,4.3974,4.3974,4.4005,4.4153,4.4274,4.4561,4.5477,4.6563,4.7628,4.8773,4.9874,5.0529,5.097,5.1144,5.1245,5.1291,5.1206,5.0992,5.0583,4.9863,4.8971,4.7542,4.597,4.3726,4.1406,3.8342,3.5258,3.1213,2.7217,2.5026,2.2969,2.1418,1.9977,1.8703,1.7412,1.6089,1.4567,1.313,1.1965,1.0699,0.9316,0.7832,0.6337,0.5037,0.393,0.2924,0.1917,0.101,0.0,-0.0908,-0.2017,-0.3428,-0.4836,-0.5539,-0.6339,-0.6842,-0.7341,-0.7743,-0.8137,-0.8634,-0.9031,-0.9426,-0.9628,-1.0314,-1.0511,4.8751,4.8678,4.8606,4.8476,4.8363,4.8169,4.797,4.7806,4.7578,4.7511,4.7536,4.756,4.7687,4.8014,4.8267,4.8457,4.8642,4.8751,4.8822,4.8857,4.8874,4.889,4.889,4.889,4.889,4.889,4.9061,4.9225,4.9476,4.9741,5.0031,5.0259,5.0438,5.0542,5.0623,5.0623,5.0582,5.05,5.0255,4.9986,4.9466,4.7999,4.6869,4.614,4.5151,4.4228,4.4005,4.4005,4.4005,4.4005,4.4005,4.4005,4.4036,4.4147,4.4314,4.488,4.5783,4.6941,4.7888,4.9026,5.0141,5.0716,5.103,5.1208,5.1278,5.1297,5.1229,5.1014,5.0665,5.001,4.9081,4.7827,4.6076,4.405,4.1405,3.8492,3.4375,2.998,2.6886,2.4623,2.2824,2.1239,1.9886,1.8611,1.7318,1.6001,1.4478,1.3022,1.1863,1.06,0.9118,0.773,0.6337,0.5037,0.4033,0.3127,0.2119,0.1211,0.0202,-0.111,-0.2321,-0.3731,-0.4939,-0.5539,-0.6039,-0.6442,-0.6942,-0.7344,-0.7739,-0.8137,-0.8634,-0.9133,-0.9331,-0.9529,-0.9727,4.8822,4.8787,4.8678,4.8623,4.8605,4.8363,4.8226,4.8148,4.7907,4.7888,4.7992,4.7915,4.8072,4.8267,4.8495,4.866,4.8768,4.8839,4.8874,4.8909,4.889,4.889,4.889,4.889,4.8909,4.9012,4.9179,4.9334,4.9577,4.9852,5.0108,5.0348,5.0478,5.0582,5.0643,5.0643,5.0582,5.0459,5.0302,5.0082,4.9153,4.7983,4.7086,4.6078,4.5071,4.4116,4.4005,4.4005,4.4005,4.4005,4.4005,4.4023,4.4116,4.4226,4.4599,4.5132,4.6372,4.7386,4.8343,4.9644,5.0426,5.0921,5.1088,5.121,5.1276,5.1277,5.1229,5.1006,5.0646,5.0035,4.9133,4.7941,4.6181,4.3838,4.1103,3.808,3.3467,2.9166,2.6745,2.4368,2.2736,2.1239,1.9795,1.8519,1.7217,1.5906,1.4567,1.3113,1.176,1.0493,0.9122,0.7829,0.6437,0.5336,0.4133,0.3127,0.2119,0.1212,0.0202,-0.1211,-0.2624,-0.3833,-0.4839,-0.5436,-0.5939,-0.6242,-0.6542,-0.7042,-0.7441,-0.7836,-0.8237,-0.8634,-0.9031,-0.9229,-0.9331,4.8962,4.8874,4.8855,4.8804,4.8751,4.8587,4.842,4.8286,4.8229,4.819,4.8267,4.8402,4.8476,4.8532,4.8697,4.8822,4.8839,4.8909,4.8909,4.889,4.889,4.889,4.889,4.889,4.8962,4.9098,4.9262,4.9446,4.9665,4.9906,5.0158,5.0457,5.0478,5.0563,5.0663,5.0663,5.0623,5.0521,5.0371,5.0207,4.9424,4.8277,4.7061,4.6047,4.496,4.4302,4.4005,4.4005,4.4005,4.4005,4.4005,4.4055,4.4165,4.4371,4.4777,4.558,4.6834,4.7861,4.8888,5.0028,5.0709,5.0971,5.1108,5.1219,5.1292,5.1338,5.126,5.1113,5.0704,5.0136,4.9211,4.7978,4.6262,4.3053,4.0153,3.6432,3.2251,2.9201,2.6587,2.4654,2.2911,2.132,1.9795,1.8519,1.7412,1.6001,1.4573,1.3119,1.176,1.0395,0.9027,0.7829,0.6537,0.5336,0.4133,0.3026,0.2018,0.111,0.0101,-0.1312,-0.2624,-0.3732,-0.4638,-0.5336,-0.5837,-0.6139,-0.6439,-0.6842,-0.7039,-0.7437,-0.7839,-0.8237,-0.863,-0.8928,-0.9031]},{"header":{"parameterUnit":"m.s-1","parameterCategory":1,"la1":31.0,"la2":29.5877,"lo1":-88.7671,"lo2":-86.6584,"dy":0.0162,"dx":0.0185,"nx":115,"ny":88,"refTime":"2023-09-12T12:00:00:Z","depth":0,"parameterNumber":3,"parameterNumberName":"V-component_of_WINDS"},"data":[0.0,0.0,0.0,0.0,0.0,0.0,0.0,0.0,0.0,0.0,0.0,0.0,0.0,0.0,0.0,0.0,0.0,0.0,0.0,0.0,0.0,0.0,0.0,0.0,0.0,0.0,0.0,0.0,0.0,0.0,0.0,0.0,0.0,0.0,0.0,0.0,0.0,0.0,0.0,0.0,0.0,0.0,0.0,0.0,0.0,0.0,0.0,0.0,0.0,0.0,0.0,0.0,0.0,0.0,0.0,0.0,0.0,0.0,0.0,0.0,0.0,0.0,0.0,0.0,0.0,0.0,0.0,0.0,0.0,0.0,0.0,0.0,0.0,0.0,0.0,0.0,0.0,0.0,0.0,0.0,0.0,0.0,0.0,0.0,0.0,0.0,0.0,0.0,0.0,0.0,0.0,0.0,0.0,0.0,0.0,0.0,0.0,0.0,0.0,0.0,0.0,0.0,0.0,0.0,0.0,0.0,0.0,0.0,0.0,0.0,0.0,0.0,0.0,0.0,0.0,0.0,0.0,0.0,0.0,0.0,0.0,0.0,0.0,0.0,0.0,0.0,0.0,0.0,0.0,0.0,0.0,0.0,0.0,0.0,0.0,0.0,0.0,0.0,0.0,0.0,0.0,0.0,0.0,0.0,0.0,0.0,0.0,0.0,0.0,0.0,0.0,0.0,0.0,0.0,0.0,0.0,0.0,0.0,0.0,0.0,0.0,0.0,0.0,0.0,0.0,0.0,0.0,0.0,0.0,0.0,0.0,0.0,0.0,0.0,0.0,0.0,0.0,0.0,0.0,0.0,0.0,0.0,0.0,0.0,0.0,0.0,0.0,0.0,0.0,0.0,0.0,0.0,0.0,0.0,0.0,0.0,0.0,0.0,0.0,0.0,0.0,0.0,0.0,0.0,0.0,0.0,0.0,0.0,0.0,0.0,0.0,0.0,0.0,0.0,0.0,0.0,0.0,0.0,0.0,0.0,0.0,0.0,0.0,0.0,0.0,0.0,0.0,0.0,0.0,0.0,0.0,0.0,0.0,0.0,0.0,0.0,0.0,0.0,0.0,0.0,0.0,0.0,0.0,0.0,0.0,0.0,0.0,0.0,0.0,0.0,0.0,0.0,0.0,0.0,0.0,0.0,0.0,0.0,0.0,0.0,0.0,0.0,0.0,0.0,0.0,0.0,0.0,0.0,0.0,0.0,0.0,0.0,0.0,0.0,0.0,0.0,0.0,0.0,0.0,0.0,0.0,0.0,0.0,0.0,0.0,0.0,0.0,0.0,0.0,0.0,0.0,0.0,0.0,0.0,0.0,0.0,0.0,0.0,0.0,0.0,0.0,0.0,0.0,0.0,0.0,0.0,0.0,0.0,0.0,0.0,0.0,0.0,0.0,0.0,0.0,0.0,0.0,0.0,0.0,0.0,0.0,0.0,0.0,0.0,0.0,0.0,0.0,0.0,0.0,0.0,0.0,0.0,0.0,0.0,0.0,0.0,0.0,0.0,0.0,0.0,0.0,0.0,0.0,0.0,0.0,0.0,0.0,0.0,0.0,0.0,0.0,0.0,0.0,0.0,0.0,0.0,0.0,0.0,0.0,0.0,0.0,0.0,0.0,0.0,0.0,0.0,0.0,0.0,0.0,0.0,0.0,0.0,0.0,0.0,0.0,0.0,0.0,0.0,0.0,0.0,0.0,0.0,0.0,0.0,0.0,0.0,0.0,0.0,0.0,0.0,0.0,0.0,0.0,0.0,0.0,0.0,0.0,0.0,0.0,0.0,0.0,0.0,0.0,0.0,0.0,0.0,0.0,0.0,0.0,0.0,0.0,0.0,0.0,0.0,0.0,0.0,0.0,0.0,0.0,0.0,0.0,0.0,0.0,0.0,0.0,0.0,0.0,0.0,0.0,0.0,0.0,0.0,0.0,0.0,0.0,0.0,0.0,0.0,0.0,0.0,0.0,0.0,0.0,0.0,0.0,0.0,0.0,0.0,0.0,0.0,0.0,0.0,0.0,0.0,0.0,0.0,0.0,0.0,0.0,0.0,0.0,0.0,0.0,0.0,0.0,0.0,0.0,0.0,0.0,0.0,0.0,0.0,0.0,0.0,0.0,0.0,0.0,0.0,0.0,0.0,0.0,0.0,0.0,0.0,0.0,0.0,0.0,0.0,0.0,0.0,0.0,0.0,0.0,0.0,0.0,0.0,0.0,0.0,0.0,0.0,0.0,0.0,0.0,0.0,0.0,0.0,0.0,0.0,0.0,0.0,0.0,0.0,0.0,0.0,0.0,0.0,0.0,0.0,0.0,0.0,0.0,0.0,0.0,0.0,0.0,0.0,0.0,0.0,0.0,0.0,0.0,0.0,0.0,0.0,0.0,0.0,0.0,0.0,0.0,0.0,0.0,0.0,0.0,0.0,0.0,0.0,0.0,0.0,0.0,0.0,0.0,0.0,0.0,0.0,0.0,0.0,0.0,0.0,0.0,0.0,0.0,0.0,0.0,0.0,0.0,0.0,0.0,0.0,0.0,0.0,0.0,0.0,0.0,0.0,0.0,0.0,0.0,0.0,0.0,0.0,0.0,0.0,0.0,0.0,0.0,0.0,0.0,0.0,0.0,0.0,0.0,0.0,0.0,0.0,0.0,0.0,0.0,0.0,0.0,0.0,0.0,0.0,0.0,0.0,0.0,0.0,0.0,0.0,0.0,0.0,0.0,0.0,0.0,0.0,0.0,0.0,0.0,0.0,0.0,0.0,0.0,0.0,0.0,0.0,0.0,0.0,0.0,0.0,0.0,0.0,0.0,0.0,0.0,0.0,0.0,0.0,0.0,0.0,0.0,0.0,0.0,0.0,0.0,0.0,0.0,0.0,0.0,0.0,0.0,0.0,0.0,0.0,0.0,0.0,0.0,0.0,0.0,0.0,0.0,0.0,0.0,0.0,0.0,0.0,0.0,0.0,0.0,0.0,0.0,0.0,0.0,0.0,0.0,0.0,0.0,0.0,0.0,0.0,0.0,0.0,0.0,0.0,0.0,0.0,0.0,0.0,0.0,0.0,0.0,0.0,0.0,0.0,0.0,0.0,0.0,0.0,0.0,0.0,0.0,0.0,0.0,0.0,0.0,0.0,0.0,0.0,0.0,0.0,0.0,0.0,0.0,0.0,0.0,0.0,0.0,0.0,0.0,0.0,0.0,0.0,0.0,0.0,0.0,0.0,0.0,0.0,0.0,0.0,0.0,0.0,0.0,0.0,0.0,0.0,0.0,0.0,0.0,0.0,0.0,0.0,0.0,0.0,0.0,0.0,0.0,0.0,0.0,0.0,0.0,0.0,0.0,0.0,0.0,0.0,0.0,0.0,0.0,0.0,0.0,0.0,0.0,0.0,0.0,0.0,0.0,0.0,0.0,0.0,0.0,0.0,0.0,0.0,0.0,0.0,0.0,0.0,0.0,0.0,0.0,0.0,0.0,0.0,0.0,0.0,0.0,0.0,0.0,0.0,0.0,0.0,0.0,0.0,0.0,0.0,0.0,0.0,0.0,0.0,0.0,0.0,0.0,0.0,0.0,0.0,0.0,0.0,0.0,0.0,0.0,0.0,0.0,0.0,0.0,0.0,0.0,0.0,0.0,0.0,0.0,0.0,0.0,0.0,0.0,0.0,0.0,0.0,0.0,0.0,0.0,0.0,0.0,0.0,0.0,0.0,0.0,0.0,0.0,0.0,0.0,0.0,0.0,0.0,0.0,0.0,0.0,0.0,0.0,0.0,0.0,0.0,0.0,0.0,0.0,0.0,0.0,0.0,0.0,0.0,0.0,0.0,0.0,0.0,0.0,0.0,0.0,0.0,0.0,0.0,0.0,0.0,0.0,0.0,0.0,0.0,0.0,0.0,0.0,0.0,0.0,0.0,0.0,0.0,0.0,0.0,0.0,0.0,0.0,0.0,0.0,0.0,0.0,0.0,0.0,0.0,0.0,0.0,0.0,0.0,0.0,0.0,0.0,0.0,0.0,0.0,0.0,0.0,0.0,0.0,0.0,0.0,0.0,0.0,0.0,0.0,0.0,0.0,0.0,0.0,0.0,0.0,0.0,0.0,0.0,0.0,0.0,0.0,0.0,0.0,0.0,0.0,0.0,0.0,0.0,0.0,0.0,0.0,0.0,0.0,0.0,0.0,0.0,0.0,0.0,0.0,0.0,0.0,0.0,0.0,0.0,0.0,0.0,0.0,0.0,0.0,0.0,0.0,0.0,0.0,0.0,0.0,0.0,0.0,0.0,0.0,0.0,0.0,-1.2003,0.0,0.0,0.0,0.0,0.0,0.0,0.0,0.0,0.0,0.0,0.0,0.0,0.0,0.0,0.0,0.0,0.0,0.0,0.0,0.0,0.0,0.0,0.0,0.0,0.0,0.0,0.0,0.0,0.0,0.0,0.0,0.0,0.0,0.0,0.0,0.0,0.0,0.0,0.0,0.0,0.0,0.0,0.0,0.0,0.0,0.0,0.0,0.0,0.0,0.0,0.0,0.0,0.0,0.0,0.0,0.0,0.0,0.0,0.0,0.0,0.0,0.0,0.0,0.0,0.0,0.0,0.0,0.0,0.0,0.0,0.0,0.0,0.0,0.0,0.0,0.0,0.0,0.0,0.0,0.0,0.0,0.0,0.0,0.0,0.0,0.0,0.0,0.0,0.0,0.0,0.0,0.0,0.0,0.0,0.0,0.0,0.0,0.0,0.0,0.0,0.0,0.0,0.0,0.0,0.0,0.0,0.0,0.0,0.0,0.0,-1.384,-1.3046,-1.2459,-1.2077,-1.2009,0.0,0.0,0.0,0.0,0.0,0.0,0.0,0.0,0.0,0.0,0.0,0.0,0.0,0.0,0.0,0.0,0.0,0.0,0.0,0.0,0.0,0.0,0.0,0.0,0.0,0.0,0.0,0.0,0.0,0.0,0.0,0.0,0.0,0.0,0.0,0.0,0.0,0.0,0.0,0.0,0.0,0.0,0.0,0.0,0.0,0.0,0.0,0.0,0.0,0.0,0.0,0.0,0.0,0.0,0.0,0.0,0.0,0.0,0.0,0.0,0.0,0.0,0.0,0.0,0.0,0.0,0.0,0.0,0.0,0.0,0.0,0.0,0.0,0.0,0.0,0.0,0.0,0.0,0.0,0.0,0.0,0.0,0.0,0.0,0.0,0.0,0.0,0.0,0.0,0.0,0.0,0.0,0.0,0.0,0.0,0.0,0.0,0.0,0.0,0.0,0.0,0.0,0.0,0.0,0.0,0.0,0.0,0.0,0.0,0.0,0.0,0.0,-1.239,-1.2164,-1.215,0.0,0.0,0.0,0.0,0.0,0.0,0.0,0.0,0.0,0.0,0.0,0.0,0.0,0.0,0.0,0.0,0.0,0.0,0.0,0.0,0.0,0.0,0.0,0.0,0.0,0.0,0.0,0.0,0.0,0.0,0.0,0.0,0.0,0.0,0.0,0.0,0.0,0.0,0.0,0.0,0.0,0.0,0.0,0.0,0.0,0.0,0.0,0.0,0.0,0.0,0.0,0.0,0.0,0.0,0.0,0.0,0.0,0.0,0.0,0.0,0.0,0.0,0.0,0.0,0.0,0.0,0.0,0.0,0.0,0.0,0.0,0.0,0.0,0.0,0.0,0.0,0.0,0.0,0.0,0.0,0.0,0.0,0.0,0.0,0.0,0.0,0.0,0.0,0.0,0.0,0.0,0.0,0.0,0.0,0.0,0.0,0.0,0.0,0.0,0.0,0.0,0.0,0.0,0.0,0.0,0.0,0.0,0.0,0.0,0.0,-1.3177,-1.2142,-1.1982,0.0,-1.2572,0.0,0.0,0.0,0.0,0.0,0.0,0.0,0.0,0.0,0.0,0.0,0.0,0.0,0.0,0.0,0.0,0.0,0.0,0.0,0.0,0.0,0.0,0.0,0.0,0.0,0.0,0.0,0.0,0.0,0.0,0.0,0.0,0.0,0.0,0.0,0.0,0.0,0.0,0.0,0.0,0.0,0.0,0.0,0.0,0.0,0.0,0.0,0.0,0.0,0.0,0.0,0.0,0.0,0.0,0.0,0.0,0.0,0.0,0.0,0.0,0.0,0.0,0.0,0.0,0.0,0.0,0.0,0.0,0.0,0.0,0.0,0.0,0.0,0.0,0.0,0.0,0.0,0.0,0.0,0.0,0.0,0.0,0.0,0.0,0.0,0.0,0.0,0.0,0.0,0.0,0.0,0.0,0.0,0.0,0.0,0.0,0.0,0.0,0.0,0.0,0.0,0.0,0.0,0.0,0.0,0.0,0.0,0.0,0.0,0.0,-1.2923,-1.2323,-1.2164,-1.2305,0.0,0.0,0.0,0.0,0.0,0.0,0.0,0.0,0.0,0.0,0.0,0.0,0.0,0.0,0.0,0.0,0.0,0.0,0.0,0.0,0.0,0.0,0.0,0.0,0.0,0.0,0.0,0.0,0.0,0.0,0.0,0.0,0.0,0.0,0.0,0.0,0.0,0.0,0.0,0.0,0.0,0.0,0.0,0.0,0.0,0.0,0.0,0.0,0.0,0.0,0.0,0.0,0.0,0.0,0.0,0.0,0.0,0.0,0.0,0.0,0.0,0.0,0.0,0.0,0.0,0.0,0.0,0.0,0.0,0.0,0.0,0.0,0.0,0.0,0.0,0.0,0.0,0.0,0.0,0.0,0.0,0.0,0.0,0.0,0.0,0.0,0.0,0.0,0.0,0.0,0.0,0.0,0.0,0.0,0.0,0.0,0.0,0.0,0.0,0.0,0.0,0.0,0.0,0.0,0.0,0.0,0.0,0.0,0.0,0.0,-1.3441,-1.2854,-1.2387,-1.2246,-1.2405,-1.3001,0.0,0.0,0.0,0.0,0.0,0.0,0.0,0.0,0.0,0.0,0.0,0.0,0.0,0.0,0.0,0.0,0.0,0.0,0.0,0.0,0.0,0.0,0.0,0.0,0.0,0.0,0.0,0.0,0.0,0.0,0.0,0.0,0.0,0.0,0.0,0.0,0.0,0.0,0.0,0.0,0.0,0.0,0.0,0.0,0.0,0.0,0.0,0.0,0.0,0.0,0.0,0.0,0.0,0.0,0.0,0.0,0.0,0.0,0.0,0.0,0.0,0.0,0.0,0.0,0.0,0.0,0.0,0.0,0.0,0.0,0.0,0.0,0.0,0.0,0.0,0.0,0.0,0.0,0.0,0.0,0.0,0.0,0.0,0.0,0.0,0.0,0.0,0.0,0.0,0.0,0.0,0.0,0.0,0.0,0.0,0.0,0.0,0.0,0.0,0.0,0.0,0.0,0.0,0.0,0.0,0.0,0.0,0.0,-1.4451,-1.365,-1.2883,-1.205,-1.1992,-1.2336,0.0,0.0,0.0,0.0,0.0,0.0,0.0,0.0,0.0,0.0,0.0,0.0,0.0,0.0,0.0,0.0,0.0,0.0,0.0,0.0,0.0,0.0,0.0,0.0,0.0,0.0,0.0,0.0,0.0,0.0,0.0,0.0,0.0,0.0,0.0,0.0,0.0,0.0,0.0,0.0,0.0,0.0,0.0,0.0,0.0,0.0,0.0,0.0,0.0,0.0,0.0,0.0,0.0,0.0,0.0,0.0,0.0,0.0,0.0,0.0,0.0,0.0,0.0,0.0,0.0,0.0,0.0,0.0,0.0,0.0,0.0,0.0,0.0,0.0,0.0,0.0,0.0,0.0,0.0,0.0,0.0,0.0,0.0,0.0,0.0,0.0,0.0,0.0,0.0,0.0,0.0,0.0,0.0,0.0,0.0,0.0,0.0,0.0,0.0,0.0,0.0,0.0,0.0,0.0,0.0,0.0,0.0,0.0,0.0,-1.4319,-1.3409,-1.2734,-1.2233,-1.2304,-1.2648,0.0,0.0,0.0,0.0,0.0,0.0,0.0,0.0,0.0,0.0,0.0,0.0,0.0,0.0,0.0,0.0,0.0,0.0,0.0,0.0,0.0,0.0,0.0,0.0,0.0,0.0,0.0,0.0,0.0,0.0,0.0,0.0,0.0,0.0,0.0,0.0,0.0,0.0,0.0,0.0,0.0,0.0,0.0,0.0,0.0,0.0,0.0,0.0,0.0,0.0,0.0,0.0,0.0,0.0,0.0,0.0,0.0,0.0,0.0,0.0,0.0,0.0,0.0,0.0,0.0,0.0,0.0,0.0,0.0,0.0,0.0,0.0,0.0,0.0,0.0,0.0,0.0,0.0,0.0,0.0,0.0,0.0,0.0,0.0,0.0,0.0,0.0,0.0,0.0,0.0,0.0,0.0,0.0,0.0,0.0,0.0,0.0,0.0,0.0,0.0,0.0,0.0,0.0,0.0,0.0,0.0,0.0,0.0,0.0,-1.4216,0.0,-1.292,-1.249,-1.2621,-1.2911,0.0,0.0,0.0,0.0,0.0,0.0,0.0,0.0,0.0,0.0,0.0,0.0,0.0,0.0,0.0,0.0,0.0,0.0,0.0,0.0,0.0,0.0,0.0,0.0,0.0,0.0,0.0,0.0,0.0,0.0,0.0,0.0,0.0,0.0,0.0,0.0,0.0,0.0,0.0,0.0,0.0,0.0,0.0,0.0,0.0,0.0,0.0,0.0,0.0,0.0,0.0,0.0,0.0,0.0,0.0,0.0,0.0,0.0,0.0,0.0,0.0,0.0,0.0,0.0,0.0,0.0,0.0,0.0,0.0,0.0,0.0,0.0,0.0,0.0,0.0,0.0,0.0,0.0,0.0,0.0,0.0,0.0,0.0,0.0,0.0,0.0,0.0,0.0,0.0,0.0,0.0,0.0,0.0,0.0,0.0,0.0,0.0,0.0,0.0,0.0,0.0,0.0,0.0,0.0,0.0,0.0,0.0,0.0,-1.573,-1.4088,-1.389,-1.3467,-1.2805,-1.292,-1.3103,0.0,0.0,0.0,0.0,0.0,0.0,0.0,0.0,0.0,0.0,0.0,0.0,0.0,0.0,0.0,0.0,0.0,0.0,0.0,0.0,0.0,0.0,0.0,0.0,0.0,0.0,0.0,0.0,0.0,0.0,0.0,0.0,0.0,0.0,0.0,0.0,0.0,0.0,0.0,0.0,0.0,0.0,0.0,0.0,0.0,0.0,0.0,0.0,0.0,0.0,0.0,0.0,0.0,0.0,0.0,0.0,0.0,0.0,0.0,0.0,0.0,0.0,0.0,0.0,0.0,0.0,0.0,0.0,0.0,0.0,0.0,0.0,0.0,0.0,0.0,0.0,0.0,0.0,0.0,0.0,0.0,0.0,0.0,0.0,0.0,0.0,0.0,0.0,0.0,0.0,0.0,0.0,0.0,0.0,0.0,0.0,0.0,0.0,0.0,0.0,0.0,0.0,0.0,0.0,0.0,0.0,0.0,0.0,0.0,-1.4478,-1.4121,-1.383,-1.3528,-1.3528,-1.3649,0.0,0.0,0.0,0.0,0.0,0.0,0.0,0.0,0.0,0.0,0.0,0.0,0.0,0.0,0.0,0.0,0.0,0.0,0.0,0.0,0.0,0.0,0.0,0.0,0.0,0.0,0.0,0.0,0.0,0.0,0.0,0.0,0.0,0.0,0.0,0.0,0.0,0.0,0.0,0.0,0.0,0.0,0.0,0.0,0.0,0.0,0.0,0.0,0.0,0.0,0.0,0.0,0.0,0.0,0.0,0.0,0.0,0.0,0.0,0.0,0.0,0.0,0.0,0.0,0.0,0.0,0.0,0.0,0.0,0.0,0.0,0.0,0.0,0.0,0.0,0.0,0.0,0.0,0.0,0.0,0.0,0.0,0.0,0.0,0.0,0.0,0.0,0.0,0.0,0.0,0.0,0.0,0.0,0.0,0.0,0.0,0.0,0.0,0.0,0.0,0.0,0.0,0.0,0.0,0.0,0.0,0.0,0.0,0.0,-1.5518,-1.4754,-1.4249,-1.4061,-1.4061,-1.4121,-1.424,0.0,0.0,0.0,0.0,0.0,0.0,0.0,0.0,0.0,0.0,0.0,0.0,0.0,0.0,0.0,0.0,0.0,0.0,0.0,0.0,0.0,0.0,0.0,0.0,0.0,0.0,0.0,0.0,0.0,0.0,0.0,0.0,0.0,0.0,0.0,0.0,0.0,0.0,0.0,0.0,0.0,0.0,0.0,0.0,0.0,0.0,0.0,0.0,0.0,0.0,0.0,0.0,0.0,0.0,0.0,0.0,0.0,0.0,0.0,0.0,0.0,0.0,0.0,0.0,0.0,0.0,0.0,0.0,0.0,0.0,0.0,0.0,0.0,0.0,0.0,0.0,0.0,0.0,0.0,0.0,0.0,0.0,0.0,0.0,0.0,0.0,0.0,0.0,0.0,0.0,0.0,0.0,0.0,0.0,0.0,0.0,0.0,0.0,0.0,0.0,0.0,0.0,0.0,0.0,0.0,0.0,0.0,0.0,-1.7024,-1.5807,-1.4987,-1.4671,-1.4671,-1.4721,0.0,0.0,0.0,0.0,0.0,0.0,0.0,0.0,0.0,0.0,0.0,0.0,0.0,0.0,0.0,0.0,0.0,0.0,0.0,0.0,0.0,0.0,0.0,0.0,0.0,0.0,0.0,0.0,0.0,0.0,0.0,0.0,0.0,0.0,0.0,0.0,0.0,0.0,0.0,0.0,0.0,0.0,0.0,0.0,0.0,0.0,0.0,0.0,0.0,0.0,0.0,0.0,0.0,0.0,0.0,0.0,0.0,0.0,0.0,0.0,0.0,0.0,0.0,0.0,0.0,0.0,0.0,0.0,0.0,0.0,0.0,0.0,0.0,0.0,0.0,0.0,0.0,0.0,0.0,0.0,0.0,0.0,0.0,0.0,0.0,0.0,0.0,0.0,0.0,0.0,0.0,0.0,0.0,0.0,0.0,0.0,0.0,0.0,0.0,0.0,0.0,0.0,0.0,0.0,0.0,0.0,0.0,0.0,0.0,-1.7336,-1.6928,-1.6562,-1.6243,-1.6305,-1.6491,0.0,0.0,0.0,0.0,0.0,0.0,0.0,0.0,0.0,0.0,0.0,0.0,0.0,0.0,0.0,0.0,0.0,0.0,0.0,0.0,0.0,0.0,0.0,0.0,0.0,0.0,0.0,0.0,0.0,0.0,0.0,0.0,0.0,0.0,0.0,0.0,0.0,0.0,0.0,0.0,0.0,0.0,0.0,0.0,0.0,0.0,0.0,0.0,0.0,0.0,0.0,0.0,0.0,0.0,0.0,0.0,0.0,0.0,0.0,0.0,0.0,0.0,0.0,0.0,0.0,0.0,0.0,0.0,0.0,0.0,0.0,0.0,0.0,0.0,0.0,0.0,0.0,0.0,0.0,0.0,0.0,0.0,0.0,0.0,0.0,0.0,0.0,0.0,0.0,0.0,0.0,0.0,0.0,0.0,0.0,0.0,0.0,0.0,0.0,0.0,0.0,0.0,0.0,0.0,0.0,0.0,0.0,0.0,-1.7711,-1.8224,-1.8096,-1.8022,-1.7958,-1.7539,-1.7399,0.0,0.0,0.0,0.0,0.0,0.0,0.0,0.0,0.0,0.0,0.0,0.0,0.0,0.0,0.0,0.0,0.0,0.0,0.0,0.0,0.0,0.0,0.0,0.0,0.0,0.0,0.0,0.0,0.0,0.0,0.0,0.0,0.0,0.0,0.0,0.0,0.0,0.0,0.0,0.0,0.0,0.0,0.0,0.0,0.0,0.0,0.0,0.0,0.0,0.0,0.0,0.0,0.0,0.0,0.0,0.0,0.0,0.0,0.0,0.0,0.0,0.0,0.0,0.0,0.0,0.0,0.0,0.0,0.0,0.0,0.0,0.0,0.0,0.0,0.0,0.0,0.0,0.0,0.0,0.0,0.0,0.0,0.0,0.0,0.0,0.0,0.0,0.0,0.0,0.0,0.0,0.0,0.0,0.0,0.0,0.0,0.0,0.0,0.0,0.0,0.0,0.0,0.0,0.0,0.0,0.0,0.0,0.0,-1.8268,-1.9274,-1.9208,-1.9274,-1.9584,-1.8416,-1.7916,0.0,0.0,0.0,0.0,0.0,0.0,0.0,0.0,0.0,0.0,0.0,0.0,0.0,0.0,0.0,0.0,0.0,0.0,0.0,0.0,0.0,0.0,0.0,0.0,0.0,0.0,0.0,0.0,0.0,0.0,0.0,0.0,0.0,0.0,0.0,0.0,0.0,0.0,0.0,0.0,0.0,0.0,0.0,0.0,0.0,0.0,0.0,0.0,0.0,0.0,0.0,0.0,0.0,0.0,0.0,0.0,0.0,0.0,0.0,0.0,0.0,0.0,0.0,0.0,0.0,0.0,0.0,0.0,0.0,0.0,0.0,0.0,0.0,0.0,0.0,0.0,0.0,0.0,0.0,0.0,0.0,0.0,0.0,0.0,0.0,0.0,0.0,0.0,0.0,0.0,0.0,0.0,0.0,0.0,0.0,0.0,0.0,0.0,0.0,0.0,0.0,0.0,0.0,0.0,0.0,0.0,0.0,0.0,-1.8982,-1.9274,-1.9417,-1.9605,-1.9802,-1.9663,-1.9673,0.0,0.0,0.0,0.0,0.0,0.0,0.0,0.0,0.0,0.0,0.0,0.0,0.0,0.0,0.0,0.0,0.0,0.0,0.0,0.0,0.0,0.0,0.0,0.0,0.0,0.0,0.0,0.0,0.0,0.0,0.0,0.0,0.0,0.0,0.0,0.0,0.0,0.0,0.0,0.0,0.0,0.0,0.0,0.0,0.0,0.0,0.0,0.0,-2.9512,0.0,0.0,0.0,0.0,0.0,0.0,0.0,0.0,0.0,0.0,0.0,0.0,0.0,0.0,0.0,0.0,0.0,0.0,0.0,0.0,0.0,0.0,0.0,0.0,0.0,0.0,0.0,0.0,0.0,0.0,0.0,0.0,0.0,0.0,0.0,0.0,0.0,0.0,0.0,0.0,0.0,0.0,0.0,0.0,0.0,0.0,0.0,0.0,0.0,0.0,0.0,0.0,0.0,0.0,0.0,0.0,0.0,0.0,0.0,-1.9208,-1.966,-1.9791,-1.9987,-2.0313,-2.0506,-2.0635,0.0,0.0,0.0,0.0,0.0,0.0,0.0,0.0,0.0,0.0,0.0,0.0,0.0,0.0,0.0,0.0,0.0,0.0,0.0,0.0,0.0,0.0,0.0,0.0,0.0,0.0,0.0,0.0,0.0,0.0,0.0,0.0,0.0,0.0,0.0,0.0,0.0,0.0,0.0,0.0,0.0,0.0,0.0,0.0,0.0,0.0,0.0,0.0,0.0,0.0,0.0,0.0,0.0,0.0,0.0,0.0,0.0,0.0,0.0,0.0,0.0,0.0,0.0,0.0,0.0,0.0,0.0,0.0,0.0,0.0,0.0,0.0,0.0,0.0,0.0,0.0,0.0,0.0,0.0,0.0,0.0,0.0,0.0,0.0,0.0,0.0,0.0,0.0,0.0,0.0,0.0,0.0,0.0,0.0,0.0,0.0,0.0,0.0,0.0,0.0,0.0,0.0,0.0,0.0,0.0,0.0,0.0,-1.9008,-1.9341,-2.0031,-2.0172,-2.0431,-2.0967,-2.1158,-2.121,-2.1146,0.0,0.0,0.0,0.0,0.0,0.0,0.0,0.0,0.0,0.0,0.0,0.0,0.0,0.0,0.0,0.0,0.0,0.0,0.0,0.0,0.0,0.0,0.0,0.0,0.0,0.0,0.0,0.0,0.0,0.0,0.0,0.0,0.0,0.0,0.0,0.0,0.0,0.0,-2.4205,-1.4944,0.0,0.0,0.0,0.0,0.0,0.0,0.0,0.0,-0.7288,0.0,0.0,0.0,0.0,0.0,0.0,0.0,0.0,0.0,0.0,0.0,0.0,0.0,0.0,0.0,0.0,0.0,0.0,0.0,0.0,0.0,0.0,0.0,0.0,0.0,0.0,0.0,0.0,0.0,0.0,0.0,0.0,0.0,0.0,0.0,0.0,0.0,0.0,0.0,0.0,0.0,0.0,0.0,0.0,0.0,0.0,0.0,0.0,0.0,0.0,0.0,0.0,0.0,0.0,0.0,0.0,-1.9285,-1.9407,-1.966,-2.0096,-2.0453,-2.0839,-2.1273,-2.1325,-2.1639,-2.2273,0.0,0.0,0.0,0.0,0.0,0.0,0.0,0.0,0.0,0.0,0.0,0.0,0.0,0.0,0.0,0.0,0.0,0.0,0.0,0.0,0.0,0.0,0.0,0.0,0.0,0.0,0.0,0.0,0.0,0.0,0.0,0.0,0.0,0.0,0.0,0.0,0.0,0.0,0.0,-0.2422,0.3716,0.0,0.0,0.0,0.0,0.0,0.0,0.0,0.0,0.9846,0.0,0.0,0.0,0.0,0.0,0.0,0.0,0.0,0.0,0.0,0.0,0.0,0.0,0.0,0.0,0.0,0.0,0.0,0.0,0.0,0.0,0.0,0.0,0.0,0.0,0.0,0.0,0.0,0.0,0.0,0.0,0.0,0.0,0.0,0.0,0.0,0.0,0.0,0.0,0.0,0.0,0.0,0.0,0.0,0.0,0.0,0.0,0.0,0.0,0.0,0.0,0.0,0.0,0.0,0.0,-1.9218,-1.9483,-1.9868,-2.0388,-2.0839,-2.1285,-2.1663,-2.1839,-2.2273,0.0,0.0,0.0,0.0,0.0,0.0,0.0,0.0,0.0,0.0,0.0,0.0,0.0,0.0,0.0,0.0,0.0,0.0,0.0,0.0,0.0,0.0,0.0,0.0,0.0,0.0,0.0,0.0,0.0,0.0,0.0,0.0,0.0,0.0,0.0,0.0,0.0,0.0,0.0,0.0,1.1,1.7669,1.6291,0.0,0.0,0.0,0.0,0.0,0.0,1.0013,1.6358,0.0,0.0,0.0,0.0,0.0,0.0,0.0,0.0,0.0,0.0,0.0,0.0,0.0,0.0,0.0,0.0,0.0,0.0,0.0,0.0,0.0,0.0,0.0,0.0,0.0,0.0,0.0,0.0,0.0,0.0,0.0,0.0,0.0,0.0,0.0,0.0,0.0,0.0,0.0,0.0,0.0,0.0,0.0,0.0,0.0,0.0,0.0,0.0,0.0,0.0,0.0,0.0,0.0,0.0,0.0,-1.9142,-1.955,-2.0074,-2.0722,-2.1221,-2.1651,-2.2049,-2.2347,-2.2848,0.0,0.0,0.0,0.0,0.0,0.0,0.0,0.0,0.0,0.0,0.0,0.0,0.0,0.0,0.0,0.0,0.0,0.0,0.0,0.0,0.0,0.0,0.0,0.0,0.0,0.0,0.0,0.0,0.0,0.0,0.0,0.0,0.0,0.0,0.0,0.0,0.0,0.0,0.0,0.0,0.0,2.8102,2.8837,2.6201,0.0,0.0,0.0,0.0,1.3502,1.8029,0.0,0.0,0.0,0.0,0.0,0.0,0.0,0.0,0.0,0.0,0.0,0.0,0.0,0.0,0.0,0.0,0.0,0.0,0.0,0.0,0.0,0.0,0.0,0.0,0.0,0.0,0.0,0.0,0.0,0.0,0.0,0.0,0.0,0.0,0.0,0.0,0.0,0.0,0.0,0.0,0.0,0.0,0.0,0.0,0.0,0.0,0.0,0.0,0.0,0.0,0.0,0.0,0.0,0.0,0.0,0.0,-1.9285,-1.9933,-2.0453,-2.0903,-2.14,-2.1963,-2.2519,-2.2714,-2.321,0.0,0.0,0.0,0.0,0.0,0.0,0.0,0.0,0.0,0.0,0.0,0.0,0.0,0.0,0.0,0.0,0.0,0.0,0.0,0.0,0.0,0.0,0.0,0.0,0.0,0.0,0.0,0.0,0.0,0.0,0.0,0.0,0.0,0.0,0.0,0.0,0.0,0.0,0.0,0.0,0.0,2.955,3.9634,3.0997,2.3506,0.0,0.0,1.767,1.6118,2.1183,0.0,0.0,0.0,0.0,0.0,0.0,0.0,0.0,0.0,0.0,0.0,0.0,0.0,0.0,0.0,0.0,0.0,0.0,0.0,0.0,0.0,0.0,0.0,0.0,0.0,0.0,0.0,0.0,0.0,0.0,0.0,0.0,0.0,0.0,0.0,0.0,0.0,0.0,0.0,0.0,0.0,0.0,0.0,0.0,0.0,0.0,0.0,0.0,0.0,0.0,0.0,0.0,0.0,0.0,0.0,-1.9208,-1.932,-2.0064,-2.0658,-2.1146,-2.1726,-2.2368,-2.3294,-2.3541,-2.406,0.0,0.0,0.0,0.0,0.0,0.0,0.0,0.0,0.0,0.0,0.0,0.0,0.0,0.0,0.0,0.0,0.0,0.0,0.0,0.0,0.0,0.0,0.0,0.0,0.0,0.0,0.0,0.0,0.0,0.0,0.0,0.0,0.0,0.0,0.0,0.0,0.0,0.0,0.0,0.0,0.0,0.0,4.0813,3.54,0.0,0.0,0.0,2.6376,2.5075,0.0,0.0,0.0,0.0,0.0,0.0,0.0,0.0,0.0,0.0,0.0,0.0,0.0,0.0,0.0,0.0,0.0,0.0,0.0,0.0,0.0,0.0,0.0,0.0,0.0,0.0,0.0,0.0,0.0,0.0,0.0,0.0,0.0,0.0,0.0,0.0,0.0,0.0,0.0,0.0,0.0,0.0,0.0,0.0,0.0,0.0,0.0,0.0,0.0,0.0,0.0,0.0,0.0,0.0,0.0,0.0,0.0,-1.9507,-2.0303,-2.102,-2.1713,-2.2372,-2.3205,-2.4092,-2.4418,0.0,0.0,0.0,0.0,0.0,0.0,0.0,0.0,0.0,0.0,0.0,0.0,0.0,0.0,0.0,0.0,0.0,0.0,0.0,0.0,0.0,0.0,0.0,0.0,0.0,0.0,0.0,-2.2165,0.0,0.0,0.0,0.0,0.0,0.0,0.0,0.0,0.0,0.0,0.0,0.0,0.0,0.0,3.64,3.9216,3.7469,3.5916,0.0,0.0,3.2463,3.1513,2.9615,2.8036,0.0,0.0,0.0,0.0,0.0,0.0,0.0,0.0,0.0,0.0,0.0,0.0,0.0,0.0,0.0,0.0,0.0,0.0,0.0,0.0,0.0,0.0,0.0,0.0,0.0,0.0,0.0,0.0,0.0,0.0,0.0,0.0,0.0,0.0,0.0,0.0,0.0,0.0,0.0,0.0,0.0,0.0,0.0,0.0,0.0,0.0,0.0,0.0,0.0,0.0,0.0,0.0,0.0,0.0,0.0,-2.0053,-2.1095,-2.1912,-2.2626,-2.3624,-2.4424,-2.4988,-2.5319,-2.5673,0.0,0.0,0.0,0.0,0.0,0.0,0.0,0.0,0.0,0.0,0.0,0.0,0.0,0.0,0.0,0.0,0.0,0.0,0.0,0.0,0.0,0.0,0.0,0.0,0.0,0.0,0.0,0.0,0.0,0.0,0.0,0.0,0.0,0.0,0.0,0.0,0.0,0.0,0.0,0.0,0.0,2.7046,3.6472,3.5477,3.3749,0.0,0.0,3.1523,3.1422,3.0314,2.9628,3.0203,0.0,0.0,0.0,0.0,0.0,0.0,0.0,0.0,0.0,0.0,0.0,0.0,0.0,0.0,0.0,0.0,0.0,0.0,0.0,0.0,0.0,0.0,0.0,0.0,0.0,0.0,0.0,0.0,0.0,0.0,0.0,0.0,0.0,0.0,0.0,0.0,0.0,0.0,0.0,0.0,0.0,0.0,0.0,0.0,0.0,0.0,0.0,0.0,0.0,0.0,0.0,0.0,0.0,-2.0517,-2.1184,-2.207,-2.2909,-2.3685,-2.4205,-2.4946,-2.5871,-2.6,-2.6375,0.0,0.0,0.0,0.0,0.0,0.0,0.0,0.0,0.0,0.0,0.0,0.0,0.0,0.0,0.0,0.0,0.0,0.0,0.0,0.0,0.0,0.0,0.0,0.0,0.0,0.0,0.0,0.0,-1.7879,-1.3399,-0.5874,0.0,0.0,0.0,0.0,0.0,0.0,0.0,0.0,0.0,0.0,3.3049,3.6166,3.4332,0.0,0.0,3.182,3.1502,3.1542,3.1443,3.1502,3.1815,3.2132,0.0,0.0,0.0,0.0,0.0,0.0,0.0,0.0,0.0,0.0,0.0,0.0,0.0,0.0,0.0,0.0,0.0,0.0,0.0,0.0,0.0,0.0,0.0,0.0,0.0,0.0,0.0,0.0,0.0,0.0,0.0,0.0,0.0,0.0,0.0,0.0,0.0,0.0,0.0,0.0,0.0,0.0,0.0,0.0,0.0,0.0,0.0,0.0,0.0,0.0,0.0,0.0,-2.1221,-2.2103,-2.2948,-2.3764,-2.4628,-2.5053,-2.5724,-2.6621,-2.6713,-2.6973,0.0,0.0,0.0,0.0,0.0,0.0,0.0,0.0,0.0,0.0,0.0,0.0,0.0,0.0,0.0,0.0,0.0,0.0,0.0,0.0,0.0,0.0,0.0,0.0,0.0,0.0,0.0,0.0,-1.6757,-1.0162,0.118,0.0,0.0,0.0,0.0,0.0,0.0,0.0,0.0,0.0,0.0,3.7755,3.6381,3.4214,3.2721,3.2579,3.2382,3.2341,3.2681,3.3141,3.3568,3.3654,0.0,0.0,0.0,0.0,0.0,0.0,0.0,0.0,0.0,0.0,0.0,0.0,0.0,0.0,0.0,0.0,0.0,0.0,0.0,0.0,0.0,0.0,0.0,0.0,0.0,0.0,0.0,0.0,0.0,0.0,-1.6061,0.0,0.0,0.0,0.0,0.0,0.0,0.0,0.0,0.0,0.0,0.0,0.0,0.0,0.0,0.0,0.0,0.0,0.0,0.0,0.0,0.0,0.0,-2.1757,-2.2696,-2.3777,-2.4631,-2.5344,-2.6384,-2.7002,-2.7242,-2.7364,-2.7456,-2.7469,0.0,0.0,0.0,0.0,0.0,0.0,0.0,0.0,0.0,0.0,0.0,0.0,0.0,0.0,0.0,0.0,0.0,0.0,0.0,0.0,0.0,0.0,0.0,0.0,0.0,0.0,-1.905,-1.4797,-0.8096,0.0,0.0,0.0,0.0,0.0,0.0,0.0,0.0,0.0,0.0,4.0149,3.8751,3.6916,3.5337,3.4332,3.4332,3.4288,3.4405,3.4957,3.5483,3.5843,0.0,0.0,0.0,0.0,0.0,0.0,0.0,0.0,0.0,0.0,0.0,0.0,0.0,0.0,0.0,0.0,0.0,0.0,0.0,0.0,0.0,0.0,0.0,0.0,0.0,0.0,0.0,-1.6132,-1.607,0.0,0.0,0.0,0.0,0.0,0.0,0.0,0.0,0.0,0.0,0.0,-1.8497,-1.8636,0.0,0.0,0.0,0.0,0.0,0.0,0.0,0.0,0.0,0.0,0.0,0.0,-2.255,-2.3684,-2.4531,-2.5244,-2.589,-2.6463,-2.6863,-2.7079,-2.7281,-2.7403,-2.7469,0.0,0.0,0.0,0.0,0.0,0.0,0.0,0.0,0.0,0.0,0.0,0.0,0.0,0.0,0.0,0.0,0.0,0.0,0.0,0.0,0.0,0.0,0.0,0.0,0.0,-2.1438,0.0,0.0,0.0,0.0,0.0,0.0,0.0,0.0,0.0,0.0,0.0,3.9306,4.1906,4.094,3.9416,3.774,3.6766,3.6095,0.0,0.0,0.0,0.0,0.0,0.0,0.0,0.0,0.0,0.0,0.0,0.0,0.0,0.0,3.4368,3.4743,3.5285,3.58,3.6054,0.0,0.0,0.0,0.0,0.0,0.0,0.0,0.0,0.0,0.0,0.0,0.0,0.0,0.0,-1.6132,0.0,-1.5876,0.0,0.0,0.0,0.0,0.0,0.0,0.0,0.0,-1.8577,-1.9083,-1.9505,-1.9656,-1.993,0.0,-2.0442,-2.0216,0.0,0.0,0.0,0.0,0.0,0.0,0.0,0.0,-2.2988,-2.4105,-2.4731,-2.537,-2.5955,-2.6371,-2.6577,-2.6794,-2.6998,-2.7201,-2.7403,-2.7403,-2.7323,0.0,0.0,0.0,0.0,0.0,0.0,0.0,0.0,0.0,0.0,0.0,0.0,0.0,0.0,0.0,0.0,0.0,0.0,0.0,0.0,0.0,0.0,0.0,-1.9422,0.0,0.0,0.0,0.0,0.0,0.0,0.0,0.0,0.0,4.5531,4.4696,4.3814,4.3024,4.1554,4.012,3.8921,0.0,0.0,0.0,0.0,0.0,0.0,0.0,3.7884,3.7945,3.7397,3.6663,3.5735,3.5184,3.4736,3.4438,0.0,0.0,3.3988,3.4342,3.476,3.5027,3.5245,3.5384,3.5446,3.518,3.491,0.0,0.0,0.0,0.0,0.0,0.0,0.0,0.0,-1.6184,-1.6122,0.0,-1.5928,0.0,0.0,0.0,0.0,0.0,-1.7472,0.0,0.0,-1.9421,-2.0155,-2.0544,-2.0686,-2.0899,-2.1052,-2.1498,-2.1565,-2.1314,-2.0472,0.0,0.0,0.0,0.0,0.0,0.0,-2.3075,-2.3897,-2.4443,-2.4945,-2.5535,-2.5955,-2.622,-2.6358,-2.6577,-2.685,-2.7268,-2.7268,-2.7201,-2.7024,-2.6794,0.0,0.0,0.0,0.0,0.0,0.0,0.0,0.0,0.0,0.0,0.0,0.0,0.0,0.0,0.0,0.0,0.0,0.0,0.0,0.0,-2.0142,0.0,0.0,0.0,0.0,0.0,0.0,0.0,0.0,0.0,0.0,4.5565,4.5021,4.4393,4.3608,0.0,0.0,0.0,0.0,3.8496,3.8303,3.8353,3.8387,3.8394,3.8429,3.8345,3.7993,0.0,0.0,3.5467,3.4961,3.4732,3.4465,3.4086,3.3698,3.3272,3.3176,3.3206,3.3514,3.3758,3.3819,3.397,3.4076,3.3969,-1.9566,0.0,0.0,0.0,0.0,-1.6954,-1.6593,-1.6295,-1.6295,-1.6229,-1.6229,-1.6155,0.0,0.0,0.0,0.0,0.0,0.0,-1.872,-1.9308,-1.9797,-2.0463,-2.1136,-2.1209,-2.1523,-2.1998,-2.2137,-2.2126,-2.1901,-2.1616,-2.1401,-2.1242,0.0,0.0,0.0,0.0,-2.3001,-2.3666,-2.4105,-2.4467,-2.4802,-2.5004,-2.53,-2.5581,-2.5955,-2.6314,-2.6633,-2.6782,-2.6863,-2.6794,-2.6577,0.0,0.0,0.0,0.0,0.0,0.0,0.0,0.0,0.0,0.0,0.0,0.0,0.0,0.0,0.0,0.0,0.0,0.0,0.0,-2.0784,-1.8041,-1.5873,0.0,0.0,0.0,0.0,0.0,0.0,0.0,0.0,0.0,4.5725,4.5205,4.4452,0.0,0.0,4.157,4.0156,3.9665,3.913,3.8349,3.8186,0.0,3.8585,3.845,3.843,3.8589,3.7818,3.7036,3.6473,3.605,3.5495,3.5,3.436,3.3733,3.309,3.2916,3.3072,3.3317,3.3408,3.3484,3.3743,3.3757,3.3617,-2.0242,-2.0073,-1.9129,-1.8387,-1.7728,-1.7136,-1.6691,-1.6387,-1.631,-1.6319,-1.6319,-1.6242,-1.6242,-1.6319,-1.6387,0.0,0.0,0.0,-1.8928,-1.9531,-2.0152,-2.0828,-2.1522,-2.1755,-2.2052,-2.2478,-2.2553,-2.2402,-2.2187,-2.2176,-2.1959,-2.1655,0.0,0.0,-2.2101,-2.2327,-2.2703,-2.3224,-2.3519,-2.3801,-2.4166,-2.4299,-2.4515,-2.4874,-2.517,-2.5523,-2.6082,-2.6371,-2.6508,-2.6577,-2.6496,-2.6302,0.0,0.0,0.0,0.0,0.0,0.0,0.0,0.0,0.0,0.0,0.0,-2.7174,-2.6942,0.0,0.0,0.0,-2.3982,-2.1353,-1.8264,-1.6525,0.0,0.0,0.0,0.0,0.0,0.0,0.0,4.4475,4.5097,4.506,4.4899,4.452,4.4001,4.3434,4.249,4.1446,4.0317,0.0,3.9305,3.8491,3.8314,3.8316,3.8403,3.8253,3.8068,3.7979,3.7408,3.6797,3.653,3.6075,3.5678,3.5184,3.453,3.3932,3.3414,3.3125,3.2869,3.2721,3.2617,3.2632,3.2826,3.2811,3.2735,-2.0557,-2.042,-1.9183,-1.835,-1.7818,-1.7232,-1.686,-1.6606,-1.6478,-1.6324,-1.6324,-1.6162,-1.6162,-1.6401,-1.6546,0.0,-1.7021,-1.8041,-1.8819,-1.9354,-2.0361,-2.1185,-2.1797,-2.2176,-2.2478,-2.2692,-2.2692,-2.2553,-2.2327,-2.2176,-2.1949,-2.1731,-2.1731,-2.1883,-2.2111,-2.2111,-2.2252,-2.2628,-2.2628,-2.2927,-2.3446,-2.3677,-2.3886,-2.4082,-2.4215,-2.4719,-2.5465,-2.5886,-2.6151,-2.6289,-2.6346,-2.6082,-2.563,0.0,0.0,0.0,0.0,0.0,0.0,0.0,0.0,0.0,0.0,0.0,0.0,0.0,0.0,0.0,-2.0899,0.0,-1.6951,-1.5461,0.0,0.0,0.0,1.9583,2.8492,3.8439,4.4371,4.3784,0.0,0.0,4.3502,4.3272,4.3235,4.3592,4.2075,4.0858,4.0635,3.987,3.9181,3.8789,3.8628,3.8446,3.814,3.7899,3.7537,3.6956,3.6509,3.6302,3.6,3.5673,3.5396,3.5349,3.479,3.4463,3.4313,3.3878,3.3013,3.2353,3.1845,3.1582,3.1657,3.1644,3.1704,-1.9854,-1.9529,-1.8961,-1.8635,-1.8469,-1.7828,-1.7288,-1.6959,-1.6959,-1.6806,-1.6565,-1.6573,-1.6645,-1.6887,-1.7136,-1.7536,-1.8092,-1.8576,-1.9164,-1.979,-2.0353,-2.0964,-2.1578,-2.1807,-2.2101,-2.2478,-2.2478,-2.2262,-2.1949,-2.1883,-2.1655,-2.1359,-2.1359,-2.1502,-2.1873,-2.1873,-2.1873,-2.2035,-2.2176,-2.2327,-2.2478,-2.2628,-2.2767,-2.2841,-2.3287,-2.3875,-2.4478,-2.5016,-2.537,-2.5511,-2.5734,-2.5676,-2.5394,-2.5696,0.0,0.0,0.0,0.0,0.0,0.0,0.0,0.0,0.0,-2.409,-2.3907,0.0,-2.3744,0.0,-2.0145,-1.7545,-1.5791,-1.4513,0.0,0.0,0.9525,1.9072,2.82,3.7842,4.3758,4.3707,4.3646,4.3578,4.3494,4.281,4.2299,4.2261,4.1743,4.1026,4.0159,3.9844,3.9551,3.9165,3.9017,3.8826,3.8446,3.8,3.7631,3.7203,3.6987,3.6771,3.6502,3.6174,3.6024,3.6361,3.6064,3.5893,3.614,3.5756,3.5176,3.4636,3.3177,3.1883,3.1769,3.173,3.176,-1.9143,-1.8825,-1.8434,-1.8273,-1.8353,-1.8031,-1.7619,-1.7375,-1.7302,-1.7057,-1.6894,-1.673,-1.6812,-1.6976,-1.7229,-1.7635,-1.8112,-1.8603,-1.9161,-1.9627,-2.002,-2.0489,-2.1108,-2.1339,-2.1645,-2.2035,-2.2035,-2.1883,-2.1512,-2.1415,-2.1262,-2.0886,-2.0809,-2.0876,-2.1108,-2.1436,-2.1502,-2.1512,-2.1655,-2.1731,-2.1731,-2.1807,-2.1959,-2.2101,-2.2628,-2.3224,-2.3897,-2.4478,-2.4886,-2.5158,-2.5465,-2.5535,-2.5324,-2.5817,-2.6262,0.0,0.0,0.0,0.0,0.0,0.0,0.0,0.0,0.0,0.0,0.0,-2.2483,-2.1787,-1.9459,-1.7409,-1.5828,-1.4571,-0.8275,0.5358,1.1847,2.0374,3.337,3.965,4.2846,4.2573,4.2496,4.2467,4.2403,4.1894,4.1477,4.1318,4.1146,4.0787,4.0152,3.9911,3.9712,3.935,3.921,3.9118,3.9012,3.8969,3.8833,3.8592,3.8323,3.8091,3.7872,3.76,3.7439,3.7511,3.7208,3.6982,3.7137,3.6659,3.6168,3.5716,3.4509,3.3326,3.2935,3.2473,3.2131,-1.8345,-1.8095,-1.7772,-1.77,-1.787,-1.7878,-1.787,-1.77,-1.7465,-1.7229,-1.7049,-1.6812,-1.6738,-1.673,-1.7237,-1.7554,-1.7781,-1.8362,-1.8843,-1.9222,-1.9469,-1.9863,-2.0489,-2.0722,-2.1031,-2.1349,-2.1425,-2.1282,-2.1051,-2.0876,-2.0722,-2.0489,-2.0245,-2.0167,-2.0186,-2.0741,-2.0964,-2.1051,-2.1128,-2.1128,-2.1051,-2.1128,-2.1272,-2.1655,-2.2101,-2.2703,-2.3446,-2.4116,-2.455,-2.4874,-2.5312,-2.5465,-2.5324,-2.6164,-2.6541,0.0,-2.6919,0.0,0.0,0.0,0.0,0.0,0.0,0.0,0.0,-2.1515,-2.1495,-2.0588,-1.9042,-1.7644,-1.6498,-1.4987,-0.7027,1.01,1.4072,2.1748,3.7735,4.1218,4.185,4.1155,4.1094,4.1105,4.1156,4.0987,4.0887,4.0959,4.0891,4.0825,4.0597,4.0342,4.0008,3.9646,3.9533,3.974,3.9882,4.0195,4.0293,4.0089,3.975,3.9585,3.9282,3.908,3.8912,3.8641,3.8294,3.8041,3.7866,3.7349,3.6812,3.6685,3.5856,3.5007,3.4294,3.3437,3.2879,-1.7383,-1.7057,-1.7131,-1.7221,-1.7302,-1.7473,-1.7563,-1.7579,-1.731,-1.6976,-1.6812,-1.6738,-1.6812,-1.7057,-1.7302,-1.7635,-1.7951,-1.8282,-1.8683,-1.9082,-1.9231,-1.9618,-2.002,-2.0264,-2.0566,-2.0722,-2.0799,-2.0654,-2.0498,-2.042,-2.0186,-1.9794,-1.9715,-1.9627,-1.9539,0.0,0.0,0.0,-2.0644,-2.0654,-2.0498,-2.0654,-2.0799,-2.1098,-2.1645,0.0,-2.2852,-2.3593,-2.4043,-2.4105,-2.4826,0.0,0.0,0.0,0.0,0.0,0.0,0.0,0.0,0.0,0.0,0.0,-2.3774,-2.3081,-2.2227,-2.2093,-2.1781,-2.1095,-1.966,-1.8121,-1.6755,-1.5226,-0.9747,0.1487,0.9613,1.8472,2.9083,3.6642,4.1057,4.1031,4.1074,4.1113,4.1138,4.1028,4.1217,4.1742,4.1732,4.187,4.2366,4.151,4.0829,4.0672,4.0848,4.1067,4.0946,4.0936,4.085,4.0293,3.9994,3.9815,3.9605,3.934,3.9355,3.9643,3.9365,3.9228,3.9595,3.9224,3.8546,3.8379,3.7625,3.6616,3.4953,3.421,3.391,-1.673,0.0,-1.6574,-1.6648,0.0,-1.673,-1.673,-1.6788,-1.7041,-1.6976,-1.673,-1.673,-1.6812,-1.7131,-1.731,-1.7635,-1.8031,-1.8273,-1.8531,-1.8851,-1.8922,-1.9161,-1.9469,-1.9557,-1.9784,-2.0098,-2.002,-1.9942,-1.996,-1.9794,-1.9557,-1.932,-1.9082,-1.8913,-1.8825,-1.8984,-1.9301,-1.9784,-1.9942,-1.9932,-1.9951,-1.9932,-2.0245,-2.0867,-2.1262,0.0,0.0,0.0,0.0,0.0,0.0,0.0,0.0,-2.6469,0.0,-2.7477,-2.7872,-2.7888,-2.7468,-2.6816,-2.5973,-2.4923,-2.4175,-2.3384,-2.2449,-2.2017,-2.161,-2.1233,-1.9916,-1.8536,-1.7123,-1.5711,-1.0976,-0.1183,0.8114,1.7318,2.6337,3.5264,4.0643,4.0926,4.1018,4.1205,4.1696,4.1718,4.2,4.2655,4.2707,4.275,4.2954,4.2412,4.1819,4.1525,4.1848,4.2112,4.1976,4.2117,4.2097,4.176,4.1445,4.1149,4.0831,4.0609,4.0525,4.069,4.036,4.0168,4.0251,3.9816,3.9255,3.8898,3.8327,3.7578,3.6369,3.5414,3.4696,-1.6072,-1.5922,-1.5922,-1.5989,-1.6057,-1.5997,-1.5974,-1.5921,0.0,0.0,0.0,-1.6574,-1.6738,-1.6968,-1.7139,-1.7392,-1.7789,-1.804,-1.8273,-1.8531,-1.8531,-1.8683,-1.8922,-1.8922,-1.9082,-1.9408,-1.9231,-1.9311,-1.9408,-1.9082,-1.8931,-1.8843,-1.8523,-1.8273,-1.8273,-1.8505,-1.8745,-1.9152,-1.9222,-1.9381,-1.9557,-1.939,-1.9775,-2.0712,-2.1031,-2.1578,-2.2478,-2.299,-2.3604,-2.4273,-2.4743,-2.537,-2.6151,-2.6756,-2.7242,-2.759,-2.7855,-2.7842,-2.743,-2.6892,-2.6208,-2.5382,-2.4455,-2.3519,-2.2553,-2.2025,-2.1578,-2.1369,-2.0167,-1.8886,-1.7585,-1.6296,-1.2258,-0.3687,0.5502,1.4193,2.1819,3.2169,3.8035,3.889,4.0101,4.1579,4.2461,4.2614,4.2902,4.3536,4.3665,4.3652,4.3593,4.3286,4.284,4.268,4.2894,4.3039,4.2989,4.317,4.3375,4.3105,4.2772,4.2526,4.2203,4.1937,4.171,4.1418,4.1134,4.0819,4.0549,4.0054,3.9487,3.9115,3.8623,3.8157,3.777,3.6627,3.5661,-1.5409,-1.5257,-1.5257,-1.5257,-1.5249,-1.5409,-1.556,-1.5726,-1.6072,-1.6327,-1.6394,-1.6245,-1.6327,-1.6476,-1.6558,-1.6648,-1.6894,-1.7131,-1.7456,-1.787,-1.7861,-1.8023,-1.8514,-1.8514,-1.8603,-1.878,-1.8772,-1.8772,-1.878,-1.878,-1.8692,-1.8442,-1.8193,-1.7951,-1.7861,-1.8031,-1.8273,-1.8523,-1.9063,-1.9301,-1.9381,-1.9478,-1.9715,-2.002,-2.0634,-2.1185,-2.1655,-2.2553,-2.3224,-2.3751,-2.4515,-2.537,-2.6151,-2.6947,-2.7683,-2.8157,-2.8481,-2.8481,-2.8157,-2.7484,-2.6539,-2.5382,-2.4611,-2.3824,-2.3001,-2.2703,-2.2338,-2.1731,-2.0702,-1.952,-1.8256,-1.696,-1.5018,-1.1768,-0.3475,0.3101,0.6292,2.0421,3.0431,3.1554,3.7712,4.244,4.324,4.3439,4.3727,4.4409,4.4559,4.4703,4.4984,4.4495,4.4043,4.4197,4.4261,4.4157,4.3831,4.3721,4.36,4.3321,4.2976,4.2631,4.2305,4.203,4.178,4.1622,4.1318,4.1071,4.0871,4.0485,3.9969,3.952,3.9094,3.8678,3.8189,3.7531,3.7084,-1.4643,-1.4573,-1.4573,-1.4573,-1.4566,-1.4734,-1.4901,-1.4977,-1.5242,-1.5658,-1.6245,-1.617,-1.6245,-1.6402,-1.6319,-1.6402,-1.673,-1.673,-1.696,-1.7375,-1.7465,-1.77,-1.8031,-1.8023,-1.8121,-1.8282,-1.8201,-1.8201,-1.829,-1.8282,-1.8201,-1.8023,-1.7708,-1.7546,-1.7546,-1.7635,-1.7959,-1.8362,-1.8754,-1.9002,-1.9152,-1.9082,-1.9408,-1.9872,-2.0255,-2.0722,-2.1502,-2.2252,-2.3075,-2.3875,-2.4504,-2.5358,-2.6427,-2.7027,-2.7696,-2.8379,-2.8688,-2.8739,-2.8546,-2.7564,-2.6483,-2.5535,-2.4909,-2.4273,-2.3519,-2.3001,-2.2478,-2.1807,-2.0779,-1.9687,-1.8425,-1.7123,-1.5801,-1.4273,-0.5445,0.0484,0.3199,1.7412,2.8322,2.9862,3.7234,4.3142,4.4176,4.4318,4.4604,4.5324,4.5414,4.5505,4.5794,4.531,4.4823,4.4787,4.4576,4.4317,4.4135,4.3934,4.3701,4.3495,4.3196,4.2844,4.2512,4.2187,4.1892,4.1736,4.1515,4.1226,4.0965,4.0631,4.0188,3.9642,3.9325,3.8914,3.8415,3.7902,3.7314,-1.4078,-1.4078,-1.4084,-1.4084,-1.4176,-1.4341,-1.4426,-1.4433,-1.4689,-1.5205,-1.5789,-1.5823,-1.5914,-1.6064,-1.5914,-1.6079,-1.6402,-1.6402,-1.6566,-1.6976,-1.7147,-1.7392,-1.7619,-1.7627,-1.7781,-1.7959,-1.7781,-1.7781,-1.7878,-1.7878,-1.7789,-1.7529,-1.7212,-1.7131,-1.731,-1.7392,-1.7716,-1.8353,-1.8612,-1.8851,-1.9073,-1.8851,-1.9082,-1.9706,-1.9784,-2.0255,-2.1272,-2.1959,-2.2841,-2.3852,-2.436,-2.5158,-2.6289,-2.6892,-2.7497,-2.8327,-2.8638,-2.8753,-2.8546,-2.743,-2.6371,-2.5676,-2.5147,-2.4574,-2.3897,-2.315,-2.2478,-2.1797,-2.0867,-1.9687,-1.8434,-1.7122,-1.5845,-1.388,-0.7356,-0.2895,-0.0224,1.4824,2.6221,2.7509,3.6553,4.4046,4.4879,4.5171,4.5384,4.5842,4.5964,4.5905,4.5893,4.575,4.5475,4.5074,4.465,4.4383,4.4255,4.4011,4.3818,4.3664,4.341,4.3087,4.2729,4.2391,4.2103,4.1849,4.1648,4.138,4.1012,4.0776,4.0387,3.9849,3.9573,3.9309,3.8655,3.8017,3.7373,-1.3962,-1.4046,-1.386,-1.3981,-1.4142,-1.4404,-1.4474,-1.448,-1.4952,-1.5144,-1.5239,-1.4993,-1.5006,-1.5166,-1.518,-1.534,-1.5567,-1.5914,-1.6245,-1.6484,-1.6648,-1.6976,-1.7383,-1.7392,-1.7635,-1.7959,-1.7781,-1.7691,-1.77,-1.7554,-1.7383,-1.7212,-1.7131,-1.7131,-1.7131,-1.731,-1.7716,-1.8362,-1.862,-1.8851,-1.9222,-1.9073,-1.9073,-1.9301,-1.9557,-1.9951,-2.0731,-2.1634,-2.2402,-2.3075,-2.4043,-2.4766,-2.5453,-2.6389,-2.7217,-2.7842,-2.843,-2.856,-2.7908,-2.7121,-2.6371,-2.5688,-2.5076,-2.4513,-2.3931,-2.3172,-2.2413,-2.1772,-2.0819,-1.9636,-1.8442,-1.7143,-1.5755,-1.4375,-1.202,-1.1055,-0.7379,0.6192,1.7763,1.9438,3.408,4.4996,4.5527,4.5894,4.5905,4.5925,4.5929,4.5893,4.5874,4.5761,4.5618,4.5342,4.5,4.4648,4.4411,4.4177,4.3961,4.3786,4.3513,4.3214,4.292,4.2595,4.2257,4.2044,4.1805,4.1604,4.1261,4.1047,4.0793,4.0188,3.9918,3.9713,3.8952,3.8286,3.7669,-1.3041,-1.3314,-1.3229,-1.3235,-1.3326,-1.3598,-1.3773,-1.396,-1.4237,-1.4597,-1.5026,-1.4967,-1.5023,-1.5369,-1.5184,-1.5339,-1.5567,-1.565,-1.5989,-1.6394,-1.6648,-1.6894,-1.7229,-1.7229,-1.7383,-1.7635,-1.7465,-1.7375,-1.7302,-1.7057,-1.7066,-1.7049,-1.7131,-1.7131,-1.7139,-1.7546,-1.7959,-1.8362,-1.8692,-1.9002,-1.9231,-1.9073,-1.9073,-1.9311,-1.9469,-1.9951,-2.0566,-2.1502,-2.2262,-2.3001,-2.374,-2.4467,-2.5241,-2.6045,-2.6799,-2.755,-2.8091,-2.8026,-2.7377,-2.6688,-2.6,-2.53,-2.4903,-2.4414,-2.3729,-2.3118,-2.2336,-2.142,-2.0505,-1.9489,-1.8205,-1.6736,-1.5265,-1.3721,-1.2252,-1.09,-0.9514,0.2286,1.2449,1.8761,3.0363,4.0694,4.4785,4.6047,4.5998,4.5925,4.5899,4.5887,4.5893,4.5742,4.5599,4.5457,4.5194,4.4846,4.4524,4.4266,4.4055,4.3865,4.3649,4.3373,4.316,4.2826,4.2498,4.2234,4.2086,4.1805,4.1363,4.1226,4.1088,4.05,3.9901,3.954,3.9222,3.8639,3.8075,-1.233,-1.2609,-1.2702,-1.28,-1.28,-1.2985,-1.3269,-1.3638,-1.3921,-1.4466,-1.5106,-1.5295,-1.5487,-1.5739,-1.5545,-1.5627,-1.5856,-1.5834,-1.6171,-1.6666,-1.6846,-1.6964,-1.7195,-1.7172,-1.7221,-1.731,-1.7221,-1.7057,-1.6976,-1.6894,-1.6894,-1.7049,-1.7139,-1.7212,-1.7302,-1.7789,-1.8193,-1.8603,-1.8922,-1.9222,-1.9381,-1.9311,-1.9311,-1.939,-1.9557,-1.9951,-2.0644,-2.1415,-2.2176,-2.2841,-2.353,-2.4261,-2.504,-2.5652,-2.6471,-2.7297,-2.7564,-2.7442,-2.7054,-2.642,-2.579,-2.5238,-2.486,-2.4293,-2.3563,-2.2775,-2.1846,-2.066,-1.9498,-1.8173,-1.7392,-1.5842,-1.4185,-1.2459,-1.0841,-0.9349,-0.7564,0.1282,1.0994,1.9117,2.899,3.7354,4.4018,4.5969,4.5919,4.588,4.586,4.588,4.588,4.5742,4.5632,4.553,4.5301,4.4995,4.4659,4.443,4.4207,4.4023,4.3828,4.3646,4.3442,4.3105,4.2808,4.2616,4.2396,4.2086,4.1744,4.1569,4.1346,4.0741,4.0154,3.9696,3.9556,3.8969,3.8583,-1.2145,-1.2425,-1.2727,-1.2893,-1.3108,-1.3091,-1.3397,-1.3843,-1.4435,-1.4918,-1.536,-1.5859,-1.6285,-1.6428,-1.6156,-1.608,-1.6397,-1.6718,-1.706,-1.7305,-1.7304,-1.7339,-1.7543,-1.7228,-1.7245,-1.7401,-1.7245,-1.704,-1.6762,-1.6992,-1.7057,-1.7131,-1.7302,-1.7465,-1.77,-1.7951,-1.8362,-1.8913,-1.9152,-1.946,-1.9784,-1.9863,-1.9715,-1.9673,-1.9636,-2.002,-2.0867,-2.1492,-2.2111,-2.2703,-2.3519,-2.4127,-2.4574,-2.5455,-2.6389,-2.7185,-2.6969,-2.6898,-2.6989,-2.6275,-2.5648,-2.5474,-2.4815,-2.4241,-2.3283,-2.203,-2.0762,-1.966,-1.74,-1.5944,-1.5404,-1.4239,-1.2587,-1.0518,-0.9139,-0.755,-0.5773,0.2548,1.2228,2.0712,3.0221,3.8581,4.4978,4.5814,4.581,4.5795,4.5805,4.58,4.5819,4.5776,4.57,4.5563,4.5342,4.5094,4.4827,4.4587,4.4393,4.4229,4.4048,4.3892,4.3697,4.3495,4.3232,4.3014,4.2768,4.2494,4.2169,4.1874,4.1569,4.1117,4.0614,4.0221,3.9969,3.9398,3.9023,-1.1492,-1.1878,-1.2175,-1.2467,-1.2662,-1.2856,-1.3152,-1.3642,-1.4208,-1.4777,-1.5439,-1.6015,-1.6425,-1.68,-1.697,-1.695,-1.6662,-1.6712,-1.6896,-1.7175,-1.736,-1.7463,-1.7486,-1.7368,-1.7491,-1.7746,-1.7645,-1.7447,-1.7338,-1.7398,-1.7433,-1.7481,-1.7708,-1.7878,-1.8193,-1.8523,-1.8834,-1.9152,-1.9399,-1.9636,-1.9882,-1.9872,-2.0055,-2.0391,-2.0311,-2.0489,-2.1041,-2.1797,-2.2402,-2.2852,-2.3666,-2.4349,-2.5051,-2.6239,-2.7088,-2.7363,-2.7123,-2.6907,-2.6624,-2.5751,-2.5057,-2.4725,-2.4062,-2.3227,-2.2256,-2.0966,-1.9491,-1.7743,-1.5332,-1.3197,-1.1637,-1.1849,-1.1245,-0.8282,-0.6155,-0.4294,-0.2181,0.1984,0.9138,2.1582,3.3845,4.3,4.4217,4.5626,4.5684,4.57,4.5712,4.5727,4.5746,4.5719,4.5618,4.5549,4.5381,4.5216,4.5103,4.4796,4.456,4.4374,4.4229,4.4109,4.3905,4.3697,4.3477,4.3373,4.316,4.2844,4.2516,4.2086,4.1788,4.1542,4.1041,4.0631,4.0453,3.9867,3.9556,-1.0998,-1.1389,-1.1683,-1.2078,-1.2467,-1.2667,-1.3147,-1.3727,-1.4208,-1.4873,-1.5534,-1.6008,-1.6494,-1.6979,-1.7355,-1.7313,-1.7071,-1.7041,-1.7221,-1.7578,-1.7606,-1.7632,-1.7674,-1.7484,-1.7692,-1.804,-1.804,-1.7989,-1.788,-1.794,-1.7978,-1.8086,-1.8235,-1.8422,-1.8571,-1.886,-1.9182,-1.9503,-1.9672,-1.9968,-2.024,-2.0278,-2.0481,-2.0933,-2.0973,-2.1224,-2.1628,-2.233,-2.2937,-2.3395,-2.4149,-2.4918,-2.5726,-2.6719,-2.7297,-2.7211,-2.695,-2.6657,-2.6263,-2.5419,-2.4694,-2.4221,-2.3418,-2.2494,-2.1264,-1.9692,-1.7872,-1.5799,-1.2997,-0.9989,-0.7625,-0.7146,-0.6459,-0.4278,-0.2491,-0.0499,0.1297,0.2594,0.9279,2.0802,3.379,4.1374,4.3112,4.4539,4.5312,4.5528,4.5599,4.5635,4.5635,4.5584,4.5513,4.5438,4.5361,4.5277,4.5192,4.501,4.4796,4.464,4.4449,4.4288,4.414,4.3905,4.3795,4.373,4.3529,4.3196,4.2788,4.2374,4.2061,4.1866,4.1471,4.1059,4.0728,4.0337,4.002,-1.0801,-1.0904,-1.1389,-1.198,-1.2467,-1.2759,-1.3437,-1.4202,-1.4592,-1.5159,-1.5737,-1.6123,-1.6501,-1.6979,-1.7167,-1.7326,-1.7732,-1.7887,-1.8164,-1.8517,-1.7902,-1.7861,-1.8198,-1.7768,-1.7818,-1.8344,-1.8444,-1.8506,-1.8481,-1.8654,-1.8793,-1.8879,-1.8982,-1.9056,-1.8946,-1.9177,-1.9433,-1.9843,-2.0088,-2.0428,-2.107,-2.1033,-2.1051,-2.121,-2.1505,-2.1909,-2.2431,-2.3041,-2.361,-2.4039,-2.4826,-2.5758,-2.6382,-2.6792,-2.6844,-2.6652,-2.6453,-2.6201,-2.5972,-2.5223,-2.4492,-2.3985,-2.3231,-2.1868,-2.0219,-1.8226,-1.6094,-1.3498,-1.0277,-0.7045,-0.3773,-0.0497,0.1193,0.0896,0.1992,0.3886,0.5282,0.6536,1.0013,1.9214,3.0243,3.6682,3.8419,4.1407,4.4176,4.513,4.5438,4.5457,4.5476,4.5419,4.5361,4.5321,4.5239,4.5194,4.5213,4.5233,4.508,4.4914,4.4712,4.4505,4.4393,4.4199,4.4079,4.3986,4.373,4.3408,4.3032,4.2613,4.2333,4.2061,4.1719,4.138,4.1012,4.0662,4.0436,-1.0413,-1.0904,-1.1585,-1.217,-1.2759,-1.3329,-1.3908,-1.4394,-1.4968,-1.535,-1.5635,-1.6211,-1.669,-1.7066,-1.7535,-1.7994,-1.8458,-1.855,-1.855,-1.8342,-1.8164,-1.821,-1.837,-1.8367,-1.86,-1.906,-1.9241,-1.9181,-1.915,-1.9372,-1.9427,-1.9385,-1.9521,-1.9545,-1.9516,-1.9592,-1.9751,-1.9994,-2.0078,-2.0318,-2.0596,-2.0689,-2.0828,-2.1343,-2.1618,-2.2158,-2.2857,-2.3248,-2.3668,-2.4089,-2.4758,-2.5597,-2.65,-2.6939,-2.7114,-2.7114,-2.6542,-2.6102,-2.5837,-2.4788,-2.3896,-2.324,-2.2129,-2.0494,-1.8724,-1.6469,-1.3993,-1.1191,-0.7546,-0.398,-0.0696,0.3082,0.4872,0.4171,0.6866,0.8663,0.9518,1.325,1.7495,2.0598,2.7428,3.2982,3.6364,3.9355,4.1337,4.4402,4.5031,4.5237,4.5258,4.5175,4.5129,4.5106,4.5084,4.5084,4.5103,4.5103,4.5057,4.4962,4.477,4.4659,4.4532,4.4421,4.4335,4.414,4.3892,4.3597,4.3214,4.2882,4.2613,4.231,4.1977,4.1631,4.1318,4.0995,4.0758,-1.0507,-1.1096,-1.1975,-1.2657,-1.3141,-1.3908,-1.4388,-1.4771,-1.5255,-1.554,-1.5832,-1.6211,-1.6683,-1.7153,-1.7707,-1.8265,-1.8827,-1.9004,-1.9012,-1.8735,-1.8465,-1.8666,-1.8936,-1.9196,-1.9479,-1.9762,-2.0027,-2.0,-1.9949,-2.0093,-2.0157,-2.0131,-2.0105,-2.0035,-1.992,-1.9903,-1.9989,-2.0066,-2.0066,-2.0205,-2.0571,-2.0521,-2.082,-2.1319,-2.1609,-2.2079,-2.2814,-2.3023,-2.3505,-2.4093,-2.4724,-2.5433,-2.6231,-2.6594,-2.6764,-2.661,-2.6257,-2.5757,-2.5263,-2.4231,-2.3299,-2.2403,-2.1159,-1.9422,-1.7431,-1.4968,-1.2266,-0.9041,-0.5275,-0.1495,0.199,0.576,0.8038,0.8999,1.0812,1.2425,1.3237,1.6545,1.8879,2.0246,2.4183,2.8468,3.1172,3.625,3.8135,4.1876,4.3867,4.49,4.4924,4.4895,4.4846,4.4846,4.487,4.487,4.4938,4.4962,4.4991,4.4919,4.4821,4.4719,4.4613,4.4551,4.444,4.417,4.3923,4.3716,4.3375,4.3105,4.2844,4.2534,4.2187,4.1849,4.1498,4.129,4.1041,-1.1002,-1.1389,-1.2559,-1.3238,-1.3613,-1.4304,-1.4879,-1.535,-1.5445,-1.5737,-1.6123,-1.6312,-1.669,-1.7333,-1.7792,-1.8357,-1.8912,-1.9463,-1.9828,-1.9737,-1.9379,-1.9296,-1.9579,-1.9936,-2.0019,-2.0019,-2.0546,-2.0718,-2.0494,-2.0674,-2.0997,-2.081,-2.0604,-2.0471,-2.0183,-2.0122,-2.0122,-2.0034,-2.0026,-2.0271,-2.072,-2.0683,-2.0872,-2.1257,-2.1516,-2.1872,-2.2413,-2.2698,-2.324,-2.409,-2.466,-2.5072,-2.5505,-2.5863,-2.5863,-2.5611,-2.5454,-2.4935,-2.4251,-2.3657,-2.2784,-2.1535,-2.0348,-1.8772,-1.6324,-1.3718,-1.0706,-0.7368,-0.3388,0.0598,0.4375,0.8234,1.1376,1.4208,1.45,1.4893,1.6041,1.665,1.7289,1.7768,2.0488,2.372,2.509,3.1918,3.5707,3.8981,4.1674,4.3137,4.4467,4.4439,4.4505,4.4532,4.4587,4.4693,4.4789,4.4889,4.4919,4.4895,4.4821,4.4719,4.464,4.4551,4.4411,4.4158,4.3986,4.3781,4.3513,4.3196,4.2938,4.2631,4.231,4.1977,4.1736,4.1471,4.1244,-1.1292,-1.2175,-1.2856,-1.334,-1.3823,-1.4496,-1.4892,-1.5267,-1.5465,-1.5777,-1.6238,-1.6602,-1.7196,-1.79,-1.8558,-1.9188,-1.987,-2.0209,-2.0546,-2.0645,-2.0546,-2.0283,-2.011,-2.0019,-2.011,-2.0201,-2.0374,-2.0473,-2.0473,-2.0645,-2.0826,-2.0736,-2.0736,-2.061,-2.0506,-2.03,-2.0146,-1.9966,-1.9966,-1.9901,-1.9994,-2.011,-2.0382,-2.0835,-2.1096,-2.1544,-2.2097,-2.2353,-2.2882,-2.359,-2.4024,-2.4348,-2.468,-2.4914,-2.5009,-2.4935,-2.47,-2.4176,-2.3454,-2.295,-2.1989,-2.0736,-1.9438,-1.7755,-1.519,-1.2464,-0.9233,-0.5681,-0.1596,0.2393,0.6259,1.0099,1.3987,1.7524,1.7624,1.7632,1.8648,1.8664,1.8388,1.8811,1.9687,2.1798,2.4897,2.772,3.1792,3.6493,3.9384,4.1103,4.2633,4.3974,4.4004,4.4199,4.4288,4.4477,4.4632,4.4789,4.4865,4.487,4.4796,4.4667,4.4605,4.4496,4.4296,4.4023,4.3961,4.3767,4.3463,4.3142,4.288,4.2688,4.231,4.2019,4.178,4.156,4.1363,-1.2117,-1.292,-1.3605,-1.415,-1.4451,-1.5035,-1.5329,-1.5433,-1.5726,-1.6199,-1.6787,-1.7166,-1.7934,-1.8878,-1.9445,-2.0017,-2.0568,-2.0876,-2.0989,-2.1037,-2.0905,-2.0654,-2.0473,-2.0292,-2.0201,-2.0201,-2.0382,-2.0292,-2.0201,-2.0382,-2.0564,-2.0654,-2.0564,-2.0564,-2.0637,-2.0292,-2.0011,-1.9737,-1.9563,-1.9379,-1.9296,-1.9479,-1.9928,-2.0464,-2.0826,-2.1275,-2.182,-2.1998,-2.2441,-2.2969,-2.3232,-2.3493,-2.3734,-2.3907,-2.3993,-2.409,-2.3754,-2.3309,-2.258,-2.2059,-2.1177,-1.9812,-1.8519,-1.6626,-1.4226,-1.14,-0.816,-0.439,-0.02,0.3785,0.7838,1.2234,1.6549,1.9761,2.0331,2.0322,2.1042,2.0845,2.0836,2.0899,2.0953,2.1444,2.492,2.6065,2.9245,3.3378,3.6997,3.8993,4.0927,4.2328,4.3447,4.3471,4.3946,4.4288,4.4532,4.4667,4.4815,4.4821,4.477,4.4659,4.4524,4.444,4.4237,4.4023,4.3947,4.3734,4.3428,4.3142,4.2936,4.2649,4.231,4.2019,4.178,4.1648,4.1453,-1.3147,-1.3663,-1.4702,-1.5107,-1.5083,-1.5601,-1.5752,-1.589,-1.606,-1.666,-1.7442,-1.7867,-1.8679,-1.9965,-2.0207,-2.0691,-2.1179,-2.1318,-2.1325,-2.127,-2.1051,-2.0767,-2.0685,-2.0499,-2.03,-2.0019,-2.0382,-2.0201,-1.9928,-2.0011,-2.0292,-2.0292,-2.0192,-2.0283,-2.0283,-2.0019,-1.9737,-1.9363,-1.9012,-1.8735,-1.8643,-1.8912,-1.9455,-2.0102,-2.0835,-2.1275,-2.1642,-2.1731,-2.1919,-2.2353,-2.253,-2.2715,-2.2706,-2.2882,-2.296,-2.296,-2.2784,-2.2334,-2.1615,-2.1078,-2.0167,-1.8703,-1.749,-1.5785,-1.3369,-1.0533,-0.727,-0.3393,0.0798,0.4973,0.9795,1.4836,1.8533,2.1051,2.2041,2.257,2.2824,2.2902,2.3153,2.3644,2.3517,2.3639,2.4568,2.6448,2.9126,3.1842,3.4729,3.6493,3.8698,4.0569,4.1686,4.2366,4.3133,4.4121,4.4374,4.4587,4.4693,4.4789,4.4738,4.4632,4.4468,4.4344,4.4177,4.4023,4.3915,4.3701,4.3479,4.3196,4.2918,4.2609,4.2228,4.1934,4.1719,4.1692,4.1587,-1.3999,-1.4416,-1.4665,-1.4904,-1.5107,-1.5202,-1.5518,-1.5929,-1.6023,-1.676,-1.7711,-1.8306,-1.9207,-2.0273,-2.0895,-2.1309,-2.1665,-2.1743,-2.1881,-2.1828,-2.1383,-2.1041,-2.0769,-2.0388,-2.0036,-1.9837,-1.9845,-1.9662,-1.9463,-1.9371,-1.9463,-1.9471,-1.9463,-1.9554,-1.9729,-1.9463,-1.9088,-1.8711,-1.8357,-1.7994,-1.78,-1.8257,-1.8904,-1.9554,-2.0654,-2.1383,-2.1642,-2.1731,-2.1731,-2.182,-2.1919,-2.2008,-2.1998,-2.1998,-2.1998,-2.1998,-2.1811,-2.1257,-2.0439,-1.9886,-1.9063,-1.7483,-1.6452,-1.5026,-1.2716,-0.9951,-0.647,-0.2591,0.1297,0.6257,1.2325,1.6556,1.9563,2.1578,2.3008,2.4221,2.5073,2.502,2.5167,2.5804,2.6349,2.6701,2.684,2.725,2.9224,3.1021,3.2612,3.4121,3.632,3.8754,4.0236,4.1382,4.2457,4.3553,4.4486,4.4693,4.4796,4.4821,4.4745,4.4632,4.4496,4.4296,4.4177,4.3992,4.3851,4.3634,4.341,4.305,4.2747,4.2472,4.2205,4.1952,4.178,4.1736,4.178,-1.4659,-1.5094,-1.5213,-1.5365,-1.5475,-1.5469,-1.5683,-1.6097,-1.6407,-1.7217,-1.8325,-1.9041,-1.9945,-2.0941,-2.1542,-2.1846,-2.2088,-2.2047,-2.197,-2.1709,-2.138,-2.1225,-2.0857,-2.0187,-1.9752,-1.9428,-1.9296,-1.9012,-1.8727,-1.8542,-1.8542,-1.8635,-1.8542,-1.8627,-1.8812,-1.8627,-1.8249,-1.7777,-1.7512,-1.7145,-1.6951,-1.7512,-1.8535,-1.9463,-2.0564,-2.1293,-2.1562,-2.1642,-2.1642,-2.1642,-2.1463,-2.1463,-2.1472,-2.1383,-2.1203,-2.1195,-2.0907,-2.0348,-1.9521,-1.888,-1.7963,-1.6466,-1.552,-1.3782,-1.1848,-0.9485,-0.6187,-0.2095,0.2291,0.7343,1.4177,1.7431,1.9935,2.218,2.378,2.5316,2.6565,2.6789,2.6907,2.7853,2.8609,2.9207,2.9503,2.9453,2.964,3.1576,3.3013,3.443,3.4977,3.7337,3.9423,4.0754,4.1872,4.3024,4.4289,4.4821,4.4967,4.4967,4.4895,4.4745,4.4578,4.4364,4.4158,4.3992,4.3786,4.3566,4.3304,4.292,4.2613,4.2391,4.2163,4.197,4.1841,4.178,4.1866,-1.5344,-1.5572,-1.5801,-1.5885,-1.5885,-1.5873,-1.6074,-1.6518,-1.7067,-1.7823,-1.893,-1.9761,-2.0594,-2.1489,-2.187,-2.2224,-2.234,-2.2136,-2.1837,-2.1624,-2.1471,-2.1218,-2.0837,-2.0181,-1.9509,-1.8808,-1.869,-1.8373,-1.7994,-1.7714,-1.7613,-1.7707,-1.7598,-1.7598,-1.7699,-1.7505,-1.7124,-1.6741,-1.6473,-1.6197,-1.6096,-1.6763,-1.7971,-1.9455,-2.0283,-2.0925,-2.1203,-2.1374,-2.1553,-2.1553,-2.1186,-2.1096,-2.1114,-2.0843,-2.0564,-2.0473,-2.0093,-1.9438,-1.8703,-1.787,-1.6936,-1.5642,-1.4484,-1.2829,-1.0877,-0.9103,-0.5899,-0.1295,0.3483,0.8924,1.4861,1.781,2.0288,2.262,2.4361,2.6119,2.7671,2.8255,2.9008,2.9757,3.0628,3.1282,3.1866,3.2055,3.1942,3.2109,3.347,3.4568,3.5134,3.6219,3.8477,4.0435,4.166,4.3264,4.461,4.5019,4.5132,4.5084,4.5014,4.4846,4.464,4.4364,4.4128,4.3897,4.3686,4.3428,4.316,4.2862,4.2591,4.2328,4.2139,4.1987,4.1902,4.1841,4.1952,-1.5819,-1.5831,-1.5873,-1.5885,-1.5885,-1.5885,-1.6318,-1.7067,-1.7378,-1.8318,-1.9465,-2.0181,-2.0798,-2.1318,-2.1623,-2.1928,-2.2097,-2.1896,-2.1854,-2.1811,-2.1544,-2.1114,-2.0736,-2.0151,-1.9353,-1.8677,-1.8168,-1.7702,-1.7369,-1.7052,-1.6763,-1.6567,-1.6473,-1.6567,-1.6473,-1.6278,-1.5994,-1.5609,-1.5432,-1.5248,-1.5248,-1.6001,-1.7217,-1.8796,-1.9729,-2.0283,-2.0744,-2.1006,-2.1087,-2.1087,-2.0907,-2.0835,-2.0654,-2.0292,-2.0027,-1.9754,-1.9279,-1.8719,-1.7971,-1.703,-1.5906,-1.4675,-1.3522,-1.2155,-1.0391,-0.8612,-0.5402,0.0099,0.5953,1.1497,1.4684,1.7887,2.0532,2.2853,2.502,2.6942,2.8627,2.9935,3.0904,3.1775,3.2522,3.3296,3.3751,3.4211,3.4205,3.4051,3.4698,3.514,3.5329,3.6457,3.8127,3.9947,4.1591,4.3376,4.5141,4.5247,4.5341,4.5216,4.5129,4.4919,4.4674,4.4345,4.4079,4.3814,4.3548,4.3286,4.3032,4.2747,4.2552,4.2328,4.2157,4.2005,4.1987,4.197,4.1995,-1.5885,-1.5885,-1.5885,-1.5885,-1.5891,-1.6105,-1.6537,-1.7179,-1.7799,-1.8632,-1.9672,-2.0395,-2.0909,-2.1326,-2.1623,-2.1818,-2.1827,-2.1827,-2.1725,-2.1769,-2.156,-2.1276,-2.0817,-2.0098,-1.9277,-1.8515,-1.7674,-1.7145,-1.6908,-1.6265,-1.5947,-1.5818,-1.573,-1.554,-1.5343,-1.5146,-1.4854,-1.4472,-1.4286,-1.4292,-1.4394,-1.5527,-1.6842,-1.787,-1.8896,-1.9637,-2.0201,-2.0645,-2.0916,-2.0907,-2.0826,-2.0564,-2.0292,-1.9928,-1.9471,-1.9296,-1.8743,-1.8087,-1.7326,-1.6386,-1.5337,-1.419,-1.3039,-1.1473,-0.9908,-0.812,-0.4395,0.2883,0.7337,1.2378,1.5354,1.8249,2.0971,2.3451,2.5608,2.7648,2.9603,3.1275,3.2508,3.349,3.4187,3.4853,3.5582,3.5963,3.6213,3.6245,3.6183,3.6153,3.5984,3.7159,3.8706,4.066,4.25,4.3928,4.5382,4.5459,4.5438,4.5361,4.5194,4.5014,4.4726,4.4402,4.4048,4.3749,4.3461,4.3214,4.2975,4.2727,4.253,4.2328,4.2205,4.2097,4.2072,4.2097,4.2079,-1.5885,-1.5885,-1.5885,-1.5885,-1.5885,-1.6211,-1.6749,-1.7378,-1.8213,-1.9049,-1.9887,-2.0506,-2.1019,-2.1224,-2.142,-2.1522,-2.1632,-2.1522,-2.1522,-2.1615,-2.1404,-2.1105,-2.0609,-1.9849,-1.8964,-1.8207,-1.7211,-1.664,-1.6471,-1.5881,-1.5525,-1.5287,-1.5076,-1.4731,-1.4514,-1.4202,-1.3715,-1.342,-1.3323,-1.3516,-1.419,-1.5242,-1.6285,-1.7037,-1.7963,-1.8804,-1.9463,-2.0102,-2.0464,-2.0645,-2.0645,-2.0382,-1.9837,-1.9463,-1.9096,-1.8819,-1.8265,-1.7621,-1.6871,-1.5825,-1.4765,-1.3613,-1.2457,-1.0783,-0.8696,-0.6401,-0.2395,0.6498,1.0181,1.2464,1.5617,1.8609,2.1328,2.3968,2.6157,2.8183,3.034,3.2109,3.3776,3.4773,3.5612,3.6244,3.6919,3.7322,3.7541,3.7799,3.7735,3.8156,3.8098,3.8496,3.9988,4.2015,4.3671,4.4801,4.5609,4.5636,4.5577,4.5419,4.5258,4.5061,4.4777,4.4458,4.4091,4.3763,4.3444,4.316,4.2956,4.2727,4.257,4.2409,4.2269,4.2246,4.2264,4.2216,4.2216,-1.5885,-1.5885,-1.5885,-1.5885,-1.5992,-1.6217,-1.6948,-1.7884,-1.8513,-1.9354,-2.0418,-2.0719,-2.0917,-2.1019,-2.1019,-2.1121,-2.1224,-2.1224,-2.1224,-2.1318,-2.0917,-2.0506,-2.0078,-1.9324,-1.8622,-1.7852,-1.6905,-1.6432,-1.6117,-1.5708,-1.5339,-1.5084,-1.474,-1.4166,-1.3796,-1.3397,-1.2856,-1.2662,-1.2759,-1.334,-1.4106,-1.4873,-1.5635,-1.6379,-1.7131,-1.7878,-1.8719,-1.9363,-1.992,-2.011,-2.0292,-2.011,-1.9646,-1.9363,-1.8719,-1.8071,-1.7512,-1.7145,-1.6487,-1.5445,-1.4286,-1.3125,-1.1775,-1.01,-0.7809,-0.3796,0.0999,0.7627,0.9985,1.2362,1.5705,1.8776,2.1487,2.4183,2.6651,2.8802,3.0878,3.2793,3.453,3.6075,3.6888,3.7456,3.8067,3.8463,3.8865,3.9119,3.942,3.9698,4.0163,4.0545,4.1209,4.3183,4.4324,4.5389,4.5767,4.5797,4.5688,4.553,4.5301,4.5084,4.4802,4.4486,4.4181,4.3828,4.3495,4.3196,4.3013,4.2786,4.2649,4.253,4.249,4.2468,4.2463,4.2399,4.2252,-1.5885,-1.5885,-1.5885,-1.5998,-1.6217,-1.6643,-1.7378,-1.8206,-1.9042,-1.9776,-2.0411,-2.0822,-2.0925,-2.0925,-2.0925,-2.0917,-2.1027,-2.0925,-2.0917,-2.0909,-2.0506,-2.0094,-1.9472,-1.8736,-1.801,-1.7233,-1.6628,-1.6231,-1.5909,-1.5546,-1.5224,-1.5056,-1.4713,-1.4202,-1.3473,-1.2854,-1.2376,-1.2217,-1.2467,-1.3147,-1.3823,-1.4502,-1.5166,-1.5724,-1.6473,-1.7326,-1.8164,-1.8996,-1.9554,-1.9837,-2.0019,-1.9837,-1.9371,-1.8912,-1.8265,-1.7606,-1.6965,-1.6494,-1.6015,-1.507,-1.3902,-1.2732,-1.1282,-0.9719,-0.7024,-0.2503,0.2704,0.7836,1.0075,1.2657,1.5886,1.8951,2.1813,2.4523,2.6977,2.9387,3.1443,3.3322,3.5041,3.6628,3.8076,3.8557,3.9011,3.9368,3.9749,3.9986,4.0331,4.0804,4.1556,4.2336,4.3187,4.4345,4.5118,4.5737,4.587,4.5938,4.5783,4.5613,4.5302,4.5068,4.4827,4.4513,4.4229,4.3923,4.3615,4.3339,4.3105,4.2938,4.2804,4.2765,4.2706,4.2667,4.2606,4.2353,4.2161,-1.5885,-1.5885,-1.6004,-1.6099,-1.6305,-1.706,-1.7799,-1.8513,-1.9354,-2.0094,-2.0514,-2.0822,-2.0925,-2.0925,-2.0925,-2.0917,-2.0925,-2.0925,-2.0822,-2.0609,-2.0197,-1.9672,-1.8952,-1.8227,-1.7384,-1.663,-1.6399,-1.6056,-1.5846,-1.5541,-1.5324,-1.5209,-1.4692,-1.4134,-1.3344,-1.2504,-1.1895,-1.18,-1.2473,-1.3055,-1.3539,-1.4208,-1.4777,-1.5343,-1.6008,-1.6864,-1.78,-1.8635,-1.9188,-1.9563,-1.9754,-1.9563,-1.9004,-1.845,-1.7699,-1.7044,-1.6393,-1.5927,-1.5445,-1.4675,-1.3709,-1.2344,-1.048,-0.8428,-0.6542,-0.1907,0.301,0.7637,0.9678,1.2555,1.5873,1.8951,2.1822,2.4513,2.7151,2.9681,3.2024,3.3762,3.5492,3.7125,3.8469,3.9489,3.9885,4.0269,4.0563,4.0802,4.1276,4.1775,4.2611,4.3582,4.4252,4.5055,4.5415,4.5841,4.5975,4.5988,4.585,4.5703,4.5399,4.5137,4.491,4.4629,4.4317,4.4017,4.3781,4.3634,4.3463,4.3196,4.2975,4.2956,4.2918,4.2822,4.2685,4.2435,4.2008,-1.5885,-1.5885,-1.6217,-1.618,-1.6137,-1.7358,-1.8199,-1.8902,-1.9657,-2.0395,-2.0822,-2.0917,-2.0925,-2.0925,-2.0925,-2.0925,-2.0925,-2.0925,-2.0719,-2.0411,-1.999,-1.9257,-1.8422,-1.7694,-1.6961,-1.643,-1.6105,-1.5998,-1.5879,-1.5807,-1.5626,-1.5407,-1.4746,-1.3958,-1.3043,-1.2146,-1.1659,-1.1688,-1.2325,-1.298,-1.3454,-1.4016,-1.4496,-1.4879,-1.5452,-1.6204,-1.7037,-1.8071,-1.8819,-1.9279,-1.9479,-1.9296,-1.8635,-1.8071,-1.7318,-1.648,-1.592,-1.5356,-1.4879,-1.4292,-1.3329,-1.1565,-0.9304,-0.7129,-0.5844,-0.2111,0.2609,0.7232,0.9387,1.1981,1.5295,1.847,2.1548,2.4428,2.7117,2.963,3.1938,3.4047,3.5761,3.751,3.8761,3.9714,4.0451,4.0741,4.1082,4.1328,4.2026,4.2585,4.3309,4.4158,4.4721,4.5281,4.557,4.5859,4.603,4.6003,4.5946,4.5783,4.5536,4.5323,4.5115,4.4795,4.4486,4.4258,4.4048,4.3929,4.3786,4.3513,4.3304,4.3196,4.3123,4.2975,4.2613,4.2246,4.1807,-1.5992,-1.6211,-1.6643,-1.6836,-1.7015,-1.8094,-1.893,-1.9546,-2.0078,-2.0506,-2.0925,-2.0925,-2.0925,-2.0925,-2.0925,-2.0925,-2.0925,-2.0727,-2.0514,-1.999,-1.9361,-1.8632,-1.7793,-1.7166,-1.6436,-1.6105,-1.5891,-1.5885,-1.5885,-1.5885,-1.5755,-1.5341,-1.4769,-1.3884,-1.2949,-1.1803,-1.1397,-1.1644,-1.2261,-1.2915,-1.3448,-1.4016,-1.4394,-1.4694,-1.5452,-1.6204,-1.7044,-1.7971,-1.8627,-1.9096,-1.9288,-1.892,-1.8272,-1.7606,-1.685,-1.6015,-1.5452,-1.5077,-1.4592,-1.3902,-1.2732,-1.048,-0.8113,-0.6234,-0.5349,-0.1609,0.261,0.6412,0.9221,1.176,1.5044,1.8294,2.1371,2.4333,2.7001,2.9541,3.1852,3.398,3.5902,3.7584,3.8799,3.9868,4.0531,4.1134,4.148,4.1813,4.26,4.3351,4.3998,4.4572,4.5017,4.5378,4.5674,4.5877,4.6049,4.6048,4.6027,4.5871,4.5684,4.5486,4.5284,4.5019,4.4719,4.4486,4.4288,4.4158,4.3974,4.3781,4.3615,4.3479,4.3286,4.3142,4.2693,4.2157,4.1736,-1.6105,-1.6324,-1.7067,-1.7595,-1.801,-1.8729,-1.9569,-2.0308,-2.0514,-2.0719,-2.0925,-2.0925,-2.0925,-2.0925,-2.0925,-2.0822,-2.0719,-2.0617,-2.0205,-1.9672,-1.8945,-1.8108,-1.7371,-1.6743,-1.6217,-1.5998,-1.5885,-1.5885,-1.5885,-1.5885,-1.5666,-1.5238,-1.4708,-1.3933,-1.2859,-1.17,-1.1088,-1.1545,-1.2113,-1.2846,-1.3464,-1.3955,-1.4298,-1.4592,-1.5356,-1.6109,-1.6951,-1.7792,-1.8542,-1.8819,-1.892,-1.8643,-1.7986,-1.7239,-1.648,-1.5825,-1.5172,-1.479,-1.4304,-1.3426,-1.1955,-0.9702,-0.7717,-0.625,-0.4558,-0.142,0.2746,0.6562,0.9067,1.15,1.4871,1.8006,2.1201,2.421,2.6942,2.9424,3.178,3.3994,3.5856,3.7642,3.8783,3.9919,4.0707,4.1346,4.1966,4.236,4.2978,4.3656,4.4231,4.4739,4.5074,4.5416,4.5684,4.5881,4.605,4.6073,4.6097,4.6045,4.5867,4.5645,4.5417,4.5159,4.4943,4.47,4.4513,4.4345,4.4199,4.4067,4.3878,4.3667,4.3479,4.3286,4.2884,4.24,4.1899,-1.6105,-1.643,-1.7272,-1.8016,-1.866,-1.9376,-2.0109,-2.0759,-2.0838,-2.0925,-2.0925,-2.0925,-2.0925,-2.0925,-2.0925,-2.0719,-2.0522,-2.0418,-1.9998,-1.9264,-1.8527,-1.7905,-1.7166,-1.6537,-1.6105,-1.5992,-1.5885,-1.5885,-1.5885,-1.5885,-1.5571,-1.4928,-1.4385,-1.3614,-1.2847,-1.1482,-1.1076,-1.1403,-1.1928,-1.2666,-1.3424,-1.3871,-1.4189,-1.449,-1.5255,-1.6015,-1.6669,-1.7512,-1.8265,-1.8635,-1.8558,-1.8195,-1.7628,-1.6763,-1.6008,-1.5445,-1.4777,-1.4304,-1.3829,-1.2667,-1.1119,-0.9252,-0.7472,-0.6101,-0.4431,-0.1242,0.2594,0.6479,0.8691,1.1257,1.4407,1.7645,2.095,2.4039,2.6824,2.9484,3.1809,3.3926,3.5872,3.7526,3.8799,3.9919,4.0784,4.1596,4.232,4.2885,4.3422,4.3962,4.4458,4.4802,4.5113,4.5399,4.5665,4.5867,4.604,4.6134,4.6168,4.6143,4.6033,4.5796,4.5603,4.5361,4.514,4.4929,4.4777,4.4648,4.4505,4.4383,4.4207,4.3974,4.3649,4.3391,4.2995,4.2616,4.2133,-1.6436,-1.6961,-1.7595,-1.8436,-1.9376,-1.9776,-2.0308,-2.0838,-2.0933,-2.0925,-2.0925,-2.0925,-2.0925,-2.0822,-2.0727,-2.0624,-2.0418,-1.9791,-1.9272,-1.8743,-1.801,-1.7279,-1.6643,-1.6318,-1.5992,-1.5885,-1.5885,-1.5885,-1.5885,-1.5891,-1.5571,-1.4928,-1.363,-1.2654,-1.1991,-1.115,-1.0949,-1.153,-1.2135,-1.2725,-1.3446,-1.3918,-1.4187,-1.4316,-1.5159,-1.5825,-1.6298,-1.7138,-1.78,-1.8172,-1.8102,-1.7636,-1.7066,-1.6197,-1.5635,-1.5064,-1.4394,-1.3817,-1.3099,-1.1978,-1.0888,-0.9183,-0.7471,-0.5987,-0.4622,-0.1473,0.2429,0.6047,0.8289,1.0966,1.4021,1.7449,2.0693,2.4156,2.7008,2.9707,3.2098,3.407,3.5902,3.7393,3.8707,4.0036,4.1036,4.1709,4.244,4.3069,4.356,4.3999,4.4449,4.477,4.5065,4.5342,4.5607,4.5828,4.6013,4.6132,4.621,4.6189,4.6092,4.5929,4.5731,4.5555,4.5362,4.5159,4.5065,4.4919,4.4796,4.464,4.4524,4.4325,4.3986,4.3664,4.332,4.2903,4.2418,-1.6643,-1.7285,-1.7806,-1.8541,-1.9576,-1.9983,-2.0395,-2.0814,-2.0925,-2.0925,-2.0925,-2.0925,-2.0925,-2.0814,-2.0617,-2.0308,-2.0205,-1.9472,-1.8743,-1.8108,-1.7371,-1.6849,-1.643,-1.5998,-1.5885,-1.5885,-1.5885,-1.5885,-1.5891,-1.5791,-1.5256,-1.4175,-1.2871,-1.2005,-1.1345,-1.0988,-1.0958,-1.1581,-1.212,-1.2655,-1.3324,-1.384,-1.4166,-1.4473,-1.4968,-1.554,-1.6103,-1.6669,-1.7232,-1.752,-1.7434,-1.6972,-1.64,-1.5832,-1.5267,-1.4783,-1.4112,-1.3374,-1.2511,-1.1387,-1.0306,-0.9135,-0.7422,-0.6001,-0.4486,-0.1501,0.2369,0.5612,0.7952,1.0897,1.4104,1.7396,2.09,2.4326,2.7487,3.0226,3.2422,3.434,3.6022,3.7508,3.8707,4.0002,4.1283,4.1864,4.2498,4.3069,4.3664,4.4079,4.4449,4.477,4.5042,4.5323,4.5594,4.5822,4.6007,4.6108,4.6184,4.6225,4.6133,4.6024,4.5906,4.5742,4.5574,4.54,4.5282,4.5154,4.5038,4.4895,4.4745,4.4587,4.4374,4.4011,4.3627,4.3266,4.2865,-1.6643,-1.7285,-1.7806,-1.8541,-1.9264,-1.9879,-2.0395,-2.0925,-2.0925,-2.0925,-2.0925,-2.0925,-2.0814,-2.0822,-2.0617,-2.0205,-1.9576,-1.9042,-1.8311,-1.7687,-1.7054,-1.653,-1.6318,-1.5998,-1.5885,-1.5885,-1.5885,-1.5885,-1.5891,-1.547,-1.4611,-1.3423,-1.2223,-1.1459,-1.0911,-1.0684,-1.1,-1.148,-1.2033,-1.2695,-1.341,-1.3774,-1.4161,-1.4461,-1.4827,-1.5274,-1.5737,-1.6204,-1.6574,-1.6763,-1.6676,-1.6305,-1.5832,-1.5363,-1.4981,-1.4496,-1.363,-1.2867,-1.2124,-1.0983,-0.9749,-0.8663,-0.7177,-0.6041,-0.4344,-0.1748,0.2191,0.5507,0.8041,1.1186,1.4406,1.7865,2.136,2.4854,2.8217,3.0673,3.2739,3.4545,3.6262,3.7607,3.8662,3.9919,4.1202,4.1966,4.2577,4.3142,4.3679,4.414,4.4532,4.4777,4.5087,4.5381,4.5626,4.5829,4.5988,4.6117,4.6192,4.6249,4.6202,4.6105,4.6008,4.5891,4.5728,4.5594,4.5475,4.5361,4.5197,4.5084,4.4986,4.4802,4.4648,4.4383,4.4042,4.3791,4.3474,-1.6948,-1.7477,-1.801,-1.8639,-1.9376,-1.9879,-2.0395,-2.0822,-2.0925,-2.0925,-2.0925,-2.0925,-2.0822,-2.0617,-2.0101,-1.9783,-1.916,-1.8527,-1.7799,-1.7166,-1.6743,-1.6318,-1.6105,-1.5992,-1.5885,-1.5885,-1.5885,-1.5885,-1.5672,-1.5143,-1.4175,-1.2989,-1.1787,-1.1021,-1.0582,-1.0472,-1.0802,-1.1223,-1.1914,-1.2733,-1.3482,-1.3959,-1.4219,-1.4514,-1.4666,-1.5006,-1.5356,-1.5635,-1.5913,-1.6015,-1.592,-1.554,-1.5363,-1.4981,-1.4694,-1.4118,-1.3368,-1.2562,-1.1869,-1.0612,-0.9238,-0.8148,-0.6785,-0.5969,-0.4443,-0.1887,0.1889,0.5236,0.791,1.0833,1.4254,1.7922,2.1586,2.5228,2.8566,3.1272,3.3287,3.5131,3.6736,3.7881,3.8941,4.0169,4.1401,4.211,4.2673,4.3213,4.3693,4.4181,4.4568,4.4852,4.5132,4.5419,4.5661,4.5861,4.6008,4.6156,4.6206,4.6249,4.6217,4.6172,4.6084,4.5988,4.5866,4.5733,4.5596,4.5475,4.5361,4.5258,4.5173,4.5103,4.4943,4.47,4.4467,4.4192,4.403,-1.6948,-1.7483,-1.801,-1.8534,-1.916,-1.9665,-2.0189,-2.0609,-2.0822,-2.0925,-2.0917,-2.0814,-2.0617,-2.0292,-1.9672,-1.9153,-1.8646,-1.7793,-1.7054,-1.6749,-1.643,-1.6105,-1.5998,-1.5885,-1.5885,-1.5885,-1.5891,-1.5785,-1.5464,-1.4493,-1.3418,-1.2332,-1.1236,-1.0582,-1.0143,-1.0033,-1.0366,-1.1021,-1.1746,-1.2734,-1.3404,-1.4001,-1.4364,-1.4628,-1.4649,-1.4719,-1.4885,-1.5064,-1.5261,-1.5356,-1.5159,-1.5064,-1.479,-1.4502,-1.4118,-1.3556,-1.2975,-1.2228,-1.142,-1.0164,-0.8948,-0.778,-0.6445,-0.5582,-0.4026,-0.1787,0.2009,0.5479,0.768,1.0292,1.4024,1.7922,2.1737,2.5622,2.8724,3.1818,3.3829,3.5722,3.7054,3.8212,3.9423,4.0607,4.1534,4.2192,4.275,4.3249,4.3726,4.421,4.4595,4.49,4.5197,4.5494,4.5692,4.5905,4.6046,4.6144,4.6218,4.6265,4.6267,4.6218,4.615,4.6072,4.5944,4.5822,4.5715,4.5582,4.5495,4.5438,4.538,4.5298,4.5192,4.5014,4.4777,4.4568,4.4412,-1.6842,-1.7173,-1.7707,-1.822,-1.8833,-1.9361,-1.9776,-2.0078,-2.0609,-2.0822,-2.0822,-2.0609,-2.03,-1.9768,-1.9138,-1.8527,-1.7905,-1.7166,-1.6743,-1.633,-1.6105,-1.5891,-1.5891,-1.5885,-1.5885,-1.5885,-1.5785,-1.5678,-1.5041,-1.4072,-1.2767,-1.1568,-1.0692,-1.0036,-0.971,-0.9706,-1.0036,-1.0472,-1.1546,-1.2567,-1.3329,-1.392,-1.4375,-1.4664,-1.4607,-1.4394,-1.4592,-1.4688,-1.4694,-1.4688,-1.4688,-1.4586,-1.44,-1.4118,-1.3738,-1.3121,-1.2548,-1.1851,-1.1021,-0.9852,-0.8733,-0.7526,-0.6258,-0.5375,-0.392,-0.1679,0.1901,0.5479,0.791,1.0514,1.4152,1.7922,2.1787,2.5688,2.9116,3.1943,3.4227,3.623,3.7949,3.8979,3.9766,4.0879,4.1622,4.2234,4.2806,4.3267,4.3758,4.424,4.4621,4.4948,4.526,4.553,4.5757,4.5929,4.6046,4.6144,4.6234,4.6282,4.6289,4.6254,4.6192,4.6103,4.6017,4.5893,4.5776,4.5719,4.5637,4.5568,4.5495,4.54,4.5319,4.5235,4.5084,4.487,4.477,-1.6524,-1.6849,-1.7279,-1.7701,-1.822,-1.8527,-1.9153,-1.9783,-2.0189,-2.0403,-2.0514,-2.0292,-1.9768,-1.9034,-1.8415,-1.7905,-1.7279,-1.6855,-1.6543,-1.6217,-1.5998,-1.5885,-1.5885,-1.5885,-1.5885,-1.5885,-1.5785,-1.5357,-1.4498,-1.3418,-1.2332,-1.1236,-1.0363,-0.9706,-0.9379,-0.9489,-0.9706,-1.0036,-1.1118,-1.2413,-1.3378,-1.38,-1.4129,-1.4554,-1.4636,-1.4334,-1.44,-1.44,-1.44,-1.4394,-1.4394,-1.4394,-1.4298,-1.4027,-1.3642,-1.3094,-1.2292,-1.1609,-1.0668,-0.9591,-0.8458,-0.7439,-0.6371,-0.5375,-0.3808,-0.1343,0.1564,0.5135,0.8238,1.1054,1.4158,1.8012,2.1804,2.5628,2.9398,3.2031,3.4648,3.6707,3.869,3.9473,4.0188,4.0926,4.1648,4.2257,4.2826,4.332,4.3855,4.4327,4.4655,4.4995,4.5282,4.5582,4.5814,4.5994,4.6083,4.6157,4.623,4.6278,4.6289,4.6261,4.6206,4.6123,4.6016,4.5937,4.5833,4.5781,4.5703,4.5657,4.5568,4.5477,4.54,4.5319,4.5297,4.5125,4.508,-1.643,-1.6524,-1.6855,-1.7166,-1.7483,-1.801,-1.8534,-1.8952,-1.9465,-1.968,-1.9569,-1.9457,-1.9146,-1.8311,-1.7687,-1.7279,-1.6749,-1.643,-1.6217,-1.6111,-1.5998,-1.5885,-1.5885,-1.5885,-1.5885,-1.5885,-1.5351,-1.4815,-1.3954,-1.298,-1.1896,-1.0798,-1.0033,-0.9596,-0.9268,-0.9268,-0.9489,-0.9816,-1.0911,-1.2001,-1.3254,-1.365,-1.4106,-1.4548,-1.4562,-1.437,-1.4298,-1.4298,-1.4298,-1.4298,-1.4298,-1.4298,-1.4202,-1.3919,-1.3443,-1.2763,-1.2054,-1.1378,-1.0398,-0.9308,-0.8278,-0.7241,-0.604,-0.4931,-0.4148,-0.1791,0.1453,0.4912,0.7459,1.0175,1.3842,1.7526,2.1486,2.5304,2.8992,3.2156,3.498,3.7521,3.8755,3.9404,4.0136,4.1019,4.1692,4.2297,4.2864,4.3373,4.3905,4.4318,4.4662,4.5019,4.5322,4.558,4.5814,4.5994,4.6093,4.6164,4.6221,4.6254,4.6289,4.6256,4.6211,4.6119,4.6025,4.5937,4.5874,4.5838,4.5765,4.5722,4.5637,4.5568,4.5477,4.5399,4.5359,4.5317,4.5275,-1.6217,-1.6324,-1.6524,-1.6624,-1.6736,-1.7483,-1.7911,-1.8122,-1.875,-1.8743,-1.8422,-1.8513,-1.8213,-1.7687,-1.7054,-1.6636,-1.6318,-1.6105,-1.5998,-1.5891,-1.5885,-1.5885,-1.5885,-1.5885,-1.5891,-1.5571,-1.5035,-1.4379,-1.3516,-1.2545,-1.1568,-1.0472,-0.9926,-0.9489,-0.9158,-0.9158,-0.9489,-0.9923,-1.0692,-1.1678,-1.2598,-1.342,-1.4059,-1.4418,-1.4427,-1.4334,-1.4298,-1.4298,-1.4298,-1.4298,-1.4298,-1.4304,-1.4016,-1.3732,-1.3105,-1.2516,-1.1885,-1.094,-0.9945,-0.8977,-0.7987,-0.7043,-0.5708,-0.4706,-0.3923,-0.1791,0.1453,0.435,0.6893,0.9953,1.351,1.7213,2.1167,2.5437,2.9049,3.2523,3.5421,3.801,3.8734,3.9379,4.0186,4.1019,4.1735,4.2338,4.2884,4.3408,4.3855,4.427,4.4669,4.5004,4.5341,4.5563,4.58,4.5941,4.6084,4.6164,4.6221,4.6273,4.6289,4.6254,4.6215,4.613,4.6035,4.5929,4.5887,4.5866,4.5824,4.575,4.5687,4.5601,4.555,4.5477,4.54,4.536,4.5359,-1.5791,-1.5998,-1.5992,-1.6211,-1.643,-1.6849,-1.7265,-1.7694,-1.7793,-1.7898,-1.7687,-1.7259,-1.7047,-1.6948,-1.653,-1.6217,-1.6105,-1.5891,-1.5891,-1.5885,-1.5885,-1.5885,-1.5885,-1.5885,-1.5791,-1.5363,-1.4826,-1.4062,-1.3192,-1.2327,-1.135,-1.0036,-0.9926,-0.9485,-0.9047,-0.9047,-0.9268,-0.9706,-1.0363,-1.1131,-1.2323,-1.3162,-1.394,-1.4188,-1.4392,-1.4395,-1.4298,-1.4298,-1.4298,-1.4298,-1.4298,-1.4208,-1.3925,-1.346,-1.284,-1.2213,-1.1569,-1.0611,-0.9614,-0.8596,-0.7692,-0.6824,-0.571,-0.4819,-0.3699,-0.2241,0.1007,0.4247,0.6901,0.9745,1.3301,1.7108,2.1083,2.5997,3.0121,3.3384,3.6453,3.7884,3.8866,3.9454,4.0086,4.0955,4.1735,4.2338,4.2826,4.3373,4.3873,4.4289,4.4669,4.5026,4.538,4.5563,4.5786,4.5941,4.6084,4.617,4.6225,4.6256,4.6289,4.6251,4.6215,4.6138,4.6056,4.5941,4.588,4.586,4.5819,4.5781,4.5731,4.5668,4.562,4.555,4.5457,4.54,4.54]}]]